[[{"header":{"parameterUnit":"m.s-1","parameterCategory":1,"la1":30.6,"la2":29.2853,"lo1":-89.7004,"lo2":-87.6739,"dy":0.0162,"dx":0.0183,"nx":112,"ny":82,"refTime":"2023-10-21T06:00:00:Z","depth":0,"parameterNumber":2,"parameterNumberName":"U-component_of_WINDS"},"data":[0.0,0.0,0.0,0.0,0.0,0.0,0.0,0.0,0.0,0.0,0.0,0.0,0.0,0.0,0.0,0.0,0.0,0.0,0.0,0.0,0.0,0.0,0.0,0.0,0.0,0.0,0.0,0.0,0.0,0.0,0.0,0.0,0.0,0.0,0.0,0.0,0.0,0.0,0.0,0.0,0.0,0.0,0.0,0.0,0.0,0.0,0.0,0.0,0.0,0.0,0.0,0.0,0.0,0.0,0.0,0.0,0.0,0.0,0.0,0.0,0.0,0.0,0.0,0.0,0.0,0.0,0.0,0.0,0.0,0.0,0.0,0.0,0.0,0.0,0.0,0.0,0.0,0.0,0.0,0.0,0.0,0.0,0.0,0.0,0.0,0.0,0.0,0.0,0.0,0.0,0.0,0.0,0.0,0.0,0.0,0.0,0.0647,0.2156,0.0,0.0,0.0,0.0,0.0,0.0,0.0,0.0,0.0,0.0,0.0,0.0,0.0,0.0,0.0,0.0,0.0,0.0,0.0,0.0,0.0,0.0,0.0,0.0,0.0,0.0,0.0,0.0,0.0,0.0,0.0,0.0,0.0,0.0,0.0,0.0,0.0,0.0,0.0,0.0,0.0,0.0,0.0,0.0,0.0,0.0,0.0,0.0,0.0,0.0,0.0,0.0,0.0,0.0,0.0,0.0,0.0,0.0,0.0,0.0,0.0,0.0,0.0,0.0,0.0,0.0,0.0,0.0,0.0,0.0,0.0,0.0,0.0,0.0,0.0,0.0,0.0,0.0,0.0,0.0,0.0,0.0,0.0,0.0,0.0,0.0,0.0,0.0,0.0,0.0,0.0,0.0,0.0,0.0,0.0,0.0,0.0,0.0,0.0,0.0,0.0,0.0,0.0,0.0,0.0,0.0,0.0,0.0,0.0,0.0,0.0702,0.2359,0.0,0.0,0.0,0.0,0.0,0.0,0.0,0.0,0.0,0.0,0.0,0.0,0.0,0.0,0.0,0.0,0.0,0.0,0.0,0.0,0.0,0.0,0.0,0.0,0.0,0.0,0.0,0.0,0.0,0.0,0.0,0.0,0.0,0.0,0.0,0.0,0.0,0.0,0.0,0.0,0.0,0.0,0.0,0.0,0.0,0.0,0.0,0.0,0.0,0.0,0.0,0.0,0.0,0.0,0.0,0.0,0.0,0.0,0.0,0.0,0.0,0.0,0.0,0.0,0.0,0.0,0.0,0.0,0.0,0.0,0.0,0.0,0.0,0.0,0.0,0.0,0.0,0.0,0.0,0.0,0.0,0.0,0.0,0.0,0.0,0.0,0.0,0.0,0.0,0.0,0.0,0.0,0.0,0.0,0.0,0.0,0.0,0.0,0.0,0.0,0.0,0.0,0.0,0.0,0.0,0.0,0.0,0.0,0.0,0.0,0.0662,0.2235,0.2128,0.0,0.0,0.0,0.0,0.0,0.0,0.0,0.0,0.0,0.0,0.0,0.0,0.0,0.0,0.0,0.0,0.0,0.0,0.0,0.0,0.0,0.0,0.0,0.0,0.0,0.0,0.0,0.0,0.0,0.0,0.0,0.0,0.0,0.0,0.0,0.0,0.0,0.0,0.0,0.0,0.0,0.0,0.0,0.0,0.0,0.0,0.0,0.0,0.0,0.0,0.0,0.0,0.0,0.0,0.0,0.0,0.0,0.0,0.0,0.0,0.0,0.0,0.0,0.0,0.0,0.0,0.0,0.0,0.0,0.0,0.0,0.0,0.0,0.0,0.0,0.0,0.0,0.0,0.0,0.0,0.0,0.0,0.0,0.0,0.0,0.0,0.0,0.0,0.0,0.0,0.0,0.0,0.0,0.0,0.0,0.0,0.0,0.0,0.0,0.0,0.0,0.0,0.0,0.0,0.0,0.0,0.0,0.0,0.0,0.0561,0.1859,0.1975,0.0,0.0,0.0,0.0,0.0,0.0,0.0,0.0,0.0,0.0,0.0,0.0,0.0,0.0,0.0,0.0,0.0,0.0,0.0,0.0,0.0,0.0,0.0,0.0,0.0,0.0,0.0,0.0,0.0,0.0,0.0,0.0,0.0,0.0,0.0,0.0,0.0,0.0,0.0,0.0,0.0,0.0,0.0,0.0,0.0,0.0,0.0,0.0,0.0,0.0,0.0,0.0,0.0,0.0,0.0,0.0,0.0,0.0,0.0,0.0,0.0,0.0,0.0,0.0,0.0,0.0,0.0,0.0,0.0,0.0,0.0,0.0,0.0,0.0,0.0,0.0,0.0,0.0,0.0,0.0,0.0,0.0,0.0,0.0,0.0,0.0,0.0,0.0,0.0,0.0,0.0,0.0,0.0,0.0,0.0,0.0,0.0,0.0,0.0,0.0,0.0,0.0,0.0,0.0,0.0,0.0,0.0,0.0,0.0,0.0328,0.112,0.1692,0.0,0.0,0.0,0.0,0.0,0.0,0.0,0.0,0.0,0.0,0.0,0.0,0.0,0.0,0.0,0.0,0.0,0.0,0.0,0.0,0.0,0.0,0.0,0.0,0.0,0.0,0.0,0.0,0.0,0.0,0.0,0.0,0.0,0.0,0.0,0.0,0.0,0.0,0.0,0.0,0.0,0.0,0.0,0.0,0.0,0.0,0.0,0.0,0.0,0.0,0.0,0.0,0.0,0.0,0.0,0.0,0.0,0.0,0.0,0.0,0.0,0.0,0.0,0.0,0.0,0.0,0.0,0.0,0.0,0.0,0.0,0.0,0.0,0.0,0.0,0.0,0.0,0.0,0.0,0.0,0.0,0.0,0.0,0.0,0.0,0.0,0.0,0.0,0.0,0.0,0.0,0.0,0.0,0.0,0.0,0.0,0.0,0.0,0.0,0.0,0.0,0.0,0.0,0.0,0.0,0.0,0.0,0.0,0.0,0.0323,0.1053,0.0,0.0,0.0,0.0,0.0,0.0,0.0,0.0,0.0,0.0,0.0,0.0,0.0,0.0,0.0,0.0,0.0,0.0,0.0,0.0,0.0,0.0,0.0,0.0,0.0,0.0,0.0,0.0,0.0,0.0,0.0,0.0,0.0,0.0,0.0,0.0,0.0,0.0,0.0,0.0,0.0,0.0,0.0,0.0,0.0,0.0,0.0,0.0,0.0,0.0,0.0,0.0,0.0,0.0,0.0,0.0,0.0,0.0,0.0,0.0,0.0,0.0,0.0,0.0,0.0,0.0,0.0,0.0,0.0,0.0,0.0,0.0,0.0,0.0,0.0,0.0,0.0,0.0,0.0,0.0,0.0,0.0,0.0,0.0,0.0,0.0,0.0,0.0,0.0,0.0,0.0,0.0,0.0,0.0,0.0,0.0,0.0,0.0,0.0,0.0,0.0,0.0,0.0,0.0,0.0,0.0,0.0,0.0,0.0,0.0,0.0219,0.0724,0.0,0.0,0.0,0.0,0.0,0.0,0.0,0.0,0.0,0.0,0.0,0.0,0.0,0.0,0.0,0.0,0.0,0.0,0.0,0.0,0.0,0.0,0.0,0.0,0.0,0.0,0.0,0.0,0.0,0.0,0.0,0.0,0.0,0.0,0.0,0.0,0.0,0.0,0.0,0.0,0.0,0.0,0.0,0.0,0.0,0.0,0.0,0.0,0.0,0.0,0.0,0.0,0.0,0.0,0.0,0.0,0.0,0.0,0.0,0.0,0.0,0.0,0.0,0.0,0.0,0.0,0.0,0.0,0.0,0.0,0.0,0.0,0.0,0.0,0.0,0.0,0.0,0.0,0.0,0.0,0.0,0.0,0.0,0.0,0.0,0.0,0.0,0.0,0.0,0.0,0.0,0.0,0.0,0.0,0.0,0.0,0.0,0.0,0.0,0.0,0.0,0.0,0.0,0.0,0.0,0.0,0.0,0.0,0.0,0.0,0.0,0.0,0.0,0.0,0.0,0.0,0.0,0.0,0.0,0.0,0.0,0.0,0.0,0.0,0.0,0.0,0.0,0.0,0.0,0.0,0.0,0.0,0.0,0.0,0.0,0.0,0.0,0.0,0.0,0.0,0.0,0.0,0.0,0.0,0.0,0.0,0.0,0.0,0.0,0.0,0.0,0.0,0.0,0.0,0.0,0.0,0.0,0.0,0.0,0.0,0.0,0.0,0.0,0.0,0.0,0.0,0.0,0.0,0.0,0.0,0.0,0.0,0.0,0.0,0.0,0.0,0.0,0.0,0.0,0.0,0.0,0.0,0.0,0.0,0.0,0.0,0.0,0.0,0.0,0.0,0.0,0.0,0.0,0.0,0.0,0.0,0.0,0.0,0.0,0.0,0.0,0.0,0.0,0.0,0.0,0.0,0.0,0.0,0.0,0.0,0.0,0.0,0.0,0.0,0.0,0.0,0.0,0.0,0.0,0.0,0.0,0.0,0.0,0.0,0.0,0.0,0.0,0.0,0.0,0.0,0.0,0.0,0.0,0.0,0.0,0.0,0.0,0.0,0.0,0.0,0.0,0.0,0.0,0.0,0.0,0.0,0.0,0.0,0.0,0.0,0.0,0.0,0.0,0.0,0.0,0.0,0.0,0.0,0.0,0.0,0.0,0.0,0.0,0.0,0.0,0.0,0.0,0.0,0.0,0.0,0.0,0.0,0.0,0.0,0.0,0.0,0.0,0.0,0.0,0.0,0.0,0.0,0.0,0.0,0.0,0.0,0.0,0.0,0.0,0.0,0.0,0.0,0.0,0.0,0.0,0.0,0.0,0.0,0.0,0.0,0.0,0.0,0.0,0.0,0.0,0.0,0.0,0.0,0.0,0.0,0.0,0.0,0.0,0.0,0.0,0.0,0.0,0.0,0.0,0.0,0.0,0.0,0.0,0.0,0.0,0.0,0.0,0.0,0.0,0.0,0.0,0.0,0.0,0.0,0.0,0.0,0.0,0.0,0.0,0.0,0.0,0.0,0.0,0.0,0.0,0.0,0.0,0.0,0.0,0.0,0.0,0.0,0.0,0.0,0.0,0.0,0.0,0.0,0.0,0.0,0.0,0.0,0.0,0.0,0.0,0.0,0.0,0.0,0.0,0.0,0.0,0.0,0.0,0.0,0.0,0.0,0.0,0.0,0.0,0.0,0.0,0.0,0.0,0.0,0.0,0.0,0.0,0.0,0.0,0.0,0.0,0.0,0.0,0.0,0.0,0.0,0.0,0.0,0.0,0.0,0.0,0.0,0.0,0.0,0.0,0.0,0.0,0.0,0.0,0.0,0.0,0.0,0.0,0.0,0.0,0.0,0.0,0.0,0.0,0.0,0.0,0.0,0.0,0.0,0.0,0.0,0.0,0.0,0.0,0.0,0.0,0.0,0.0,0.0,0.0,0.0,0.0,0.0,0.0,0.0,0.0,0.0,0.0,0.0,0.0,0.0,0.0,0.0,0.0,0.0,0.0,0.0,0.0,0.0,0.0,0.0,0.0,0.0,0.0,0.0,0.0,0.0,0.0,0.0,0.0,0.0,0.0,0.0,0.0,0.0,0.0,0.0,0.0,0.0,0.0,0.0,0.0,0.0,0.0,0.0,0.0,0.0,0.0,0.0,0.0,0.0,0.0,0.0,0.0,0.0,0.0,0.0,0.0,0.0,0.0,0.0,0.0,0.0,0.0,0.0,0.0,0.0,0.0,0.0,0.0,0.0,0.0,0.0,-0.5396,-0.5022,0.0,0.0,0.0,0.0,0.0,0.0,0.0,0.0,0.0,0.0,0.0,0.0,0.0,0.0,0.0,0.0,0.0,0.0,0.0,0.0,0.0,0.0,0.0,0.0,0.0,0.0,0.0,0.0,0.0,0.0,0.0,0.0,0.0,0.0,0.0,0.0,0.0,0.0,0.0,0.0,0.0,0.0,0.0,0.0,0.0,0.0,0.0,0.0,0.0,0.0,0.0,0.0,0.0,0.0,0.0,0.0,0.0,0.0,0.0,0.0,0.0,0.0,0.0,0.0,0.0,0.0,0.0,0.0,0.0,0.0,0.0,0.0,0.0,0.0,0.0,0.0,0.0,0.0,0.0,0.0,0.0,0.0,0.0,0.0,0.0,0.0,0.0,0.0,0.0,0.0,0.0,0.0,0.0,0.0,0.0,0.0,0.0,0.0,0.0,0.0,0.0,0.0,0.0,0.0,0.0,0.0,0.0,0.0,0.0,0.0,-0.6364,-0.5711,0.0,0.0,0.0,0.0,0.0,0.0,0.0,0.0,0.0,0.0,0.0,0.0,0.0,0.0,0.0,0.0,0.0,0.0,0.0,0.0,0.0,0.0,0.0,0.0,0.0,0.0,0.0,0.0,0.0,0.0,0.0,0.0,0.0,0.0,0.0,0.0,0.0,0.0,0.0,0.0,0.0,0.0,0.0,0.0,0.0,0.0,0.0,0.0,0.0,0.0,0.0,0.0,0.0,0.0,0.0,0.0,0.0,0.0,0.0,0.0,0.0,0.0,0.0,0.0,0.0,0.0,0.0,0.0,0.0,0.0,0.0,0.0,0.0,0.0,0.0,0.0,0.0,0.0,0.0,0.0,0.0,0.0,0.0,0.0,0.0,0.0,0.0,0.0,0.0,0.0,0.0,0.0,0.0,0.0,0.0,0.0,0.0,0.0,0.0,0.0,0.0,0.0,0.0,0.0,-1.1682,-1.1817,-1.1881,-1.1837,-1.1236,-1.0163,-0.8037,-0.6928,-0.6614,-0.6173,0.0,0.0,0.0,0.0,0.0,0.0,0.0,0.0,0.0,0.0,0.0,0.0,0.0,0.0,0.0,0.0,0.0,0.0,0.0,0.0,0.0,0.0,-0.5213,-0.4611,-0.522,-0.5648,-0.453,0.0,0.0,0.0,0.0,0.0,0.0,0.0,0.0,0.0,0.0,0.0,0.0,0.0,0.0,0.0,0.0,0.0,0.0,0.0,0.0,0.0,0.0,0.0,0.0,0.0,0.0,0.0,0.0,0.0,0.0,0.0,0.0,0.0,0.0,0.0,0.0,0.0,0.0,0.0,0.0,0.0,0.0,0.0,0.0,0.0,0.0,0.0,0.0,0.0,0.0,0.0,0.0,0.0,0.0,0.0,-1.2171,-1.2291,0.0,0.0,0.0,0.0,0.0,0.0,0.0,0.0,0.0,0.0,0.0,0.0,0.0,-1.2559,-1.3503,-1.4171,-1.4472,-1.4457,-1.4694,-1.4318,-1.3397,-1.3179,-1.3165,-1.321,-1.1164,0.0,-0.7253,-0.6912,0.0,0.0,0.0,0.0,0.0,0.0,0.0,0.0,0.0,0.0,0.0,0.0,0.0,0.0,0.0,0.0,0.0,0.0,0.0,0.0,0.0,0.0,-0.7217,-0.7119,-0.7207,-0.7293,-0.7099,-0.5332,-0.3698,-0.3413,-0.3357,-0.2981,0.0,0.0,0.0,0.0,0.0,0.0,0.0,0.0,0.0,0.0,0.0,0.0,0.0,0.0,0.0,0.0,0.0,0.0,0.0,0.0,0.0,0.0,0.0,0.0,0.0,0.0,0.0,0.0,0.0,0.0,0.0,0.0,0.0,0.0,0.0,0.0,0.0,0.0,0.0,0.0,0.0,0.0,0.0,0.0,0.0,0.0,0.0,0.0,0.0,-1.231,-1.3307,-1.3307,-1.316,-1.262,0.0,0.0,0.0,0.0,0.0,0.0,0.0,0.0,0.0,-1.4188,-1.4839,-1.5544,-1.6278,-1.6613,-1.6921,-1.7188,-1.7303,-1.7197,-1.6891,-1.6781,-1.6414,-1.5812,-1.4846,-1.3392,-1.1451,-0.8678,-0.7344,-0.7063,0.0,0.0,0.0,0.0,-0.6553,-0.679,-0.7021,-0.7258,-0.7425,-0.7411,0.0,0.0,0.0,0.0,0.0,0.0,0.0,-0.6756,-0.7035,-0.7339,-0.7645,-0.7783,-0.7916,-0.7929,-0.776,-0.6829,-0.5786,-0.49,-0.4723,-0.4339,-0.3132,-0.287,0.0,0.0,0.0,-0.2146,-0.2136,-0.1534,-0.1122,-0.1117,-0.0444,0.0,0.0,0.0,0.0,0.0,0.0,0.0,0.0,0.0,0.0,0.0,0.0,0.0,0.0,0.0,0.0,0.0,0.0,0.0,0.0,0.0,0.0,0.0,0.0,0.0,0.0,0.0,0.0,0.0,0.0,0.0,0.0,0.0,0.0,0.0,0.0,0.0,0.0,-1.3233,-1.4135,-1.3988,-1.4221,-1.3874,0.0,0.0,0.0,0.0,0.0,0.0,-1.471,-1.5524,-1.6257,-1.6846,-1.746,-1.7983,-1.8464,-1.8529,-1.8796,-1.9223,-1.9223,-1.9412,-1.9722,-1.9655,-1.9111,-1.8203,-1.7619,-1.6741,-1.5346,-1.1256,-0.9358,-0.9037,-0.8696,-0.8206,-0.7716,-0.7775,-0.7665,-0.7499,-0.7787,-0.8,-0.8175,-0.8101,-0.7977,-0.7746,-0.7317,0.0,0.0,0.0,0.0,-0.7122,-0.7455,-0.7685,-0.7882,-0.8074,-0.8241,-0.8281,-0.7984,-0.7929,-0.7568,-0.6349,-0.6122,-0.5735,-0.452,-0.423,0.0,-0.3887,-0.3843,-0.3842,-0.3857,-0.3059,-0.252,-0.2509,-0.1614,-0.1032,-0.1032,-0.0986,-0.0836,-0.052,-0.0473,-0.0315,-0.0023,0.0,0.0,0.0,0.0,0.0,0.0,0.0,0.0,0.0,0.0,0.0,0.0,0.0,0.0,0.0,0.0,0.0,0.0,0.0,0.0,0.0,0.0,0.0,0.0,0.0,0.0,0.0,0.0,0.0,0.0,0.0,0.0,-1.3693,-1.5354,0.0,0.0,0.0,0.0,-1.4834,-1.5337,-1.5915,-1.654,-1.7141,-1.7782,-1.8357,-1.8973,-1.9428,-1.9706,-1.9957,-2.0104,-2.013,-2.013,-2.0321,-2.0632,-2.029,-2.0286,-2.0429,-1.8649,-1.7713,-1.7285,-1.4805,-1.3719,-1.3503,-1.2798,-1.1639,-1.0395,-1.028,-0.9461,-0.8438,-0.8601,-0.8662,-0.8676,-0.8811,-0.8682,-0.8384,-0.8047,-0.7844,0.0,0.0,-0.7729,-0.7928,-0.7973,-0.8221,-0.8464,-0.8485,-0.8492,-0.8457,-0.8308,-0.8274,-0.8113,-0.7604,-0.7493,-0.7107,-0.5911,0.0,-0.5297,-0.4158,-0.3987,-0.3996,-0.3985,-0.3926,-0.3908,-0.3897,-0.3844,-0.3801,-0.3801,-0.3695,-0.3129,-0.1984,-0.1789,-0.1198,-0.0046,0.0,0.0,0.0,0.0,0.0,0.0,0.0,0.0,0.0,0.0,0.0,0.0,0.0,0.0,0.0,0.0,0.0,0.0,0.0,0.0,0.0,0.0,0.0,0.0,0.0,0.0,0.0,0.0,0.0,0.0,0.0,0.0,-1.6152,-1.7168,0.0,-1.6203,-1.6295,-1.6496,-1.6658,-1.7582,-1.8357,-1.8916,-1.9533,-2.004,-2.0485,-2.0873,-2.1127,-2.1203,-2.1309,-2.1269,-2.1114,-2.1114,-2.1042,-2.0949,-2.0811,-2.0855,-2.0917,-2.0266,-1.9912,-1.9771,-1.8746,-1.6733,-1.4176,-1.38,-1.3198,-1.2605,-1.2647,-1.1783,-1.0628,-1.0774,-1.016,-0.9266,-0.9123,-0.894,-0.873,-0.8622,-0.8554,-0.85,-0.8446,-0.8514,-0.8615,-0.873,-0.8764,-0.875,-0.875,-0.8703,-0.8587,-0.8464,-0.8362,-0.8247,-0.809,-0.7868,-0.7593,-0.7154,-0.7021,-0.6844,-0.6496,-0.6446,-0.6444,-0.644,-0.5777,-0.5286,-0.5297,-0.4523,-0.4009,-0.4009,-0.3959,-0.3735,-0.3313,-0.3246,-0.3033,-0.2586,-0.2586,-0.2572,-0.2566,-0.2579,-0.2147,0.0,0.0,0.0,0.0,0.0,0.0,0.0,0.0,0.0,0.0,0.0,0.0,0.0,0.0,0.0,0.0,0.0,0.0,0.0,0.0,0.0,0.0,0.0,0.0,0.0,-1.6061,-1.7555,-1.7876,-1.8973,-1.9267,-1.817,-1.8344,-1.8639,-1.8933,-1.9776,-2.0539,-2.1082,-2.1483,-2.1823,-2.2024,-2.2084,-2.2124,-2.2124,-2.2031,-2.1917,-2.1729,-2.1636,-2.1475,-2.1256,-2.1149,-2.1109,-2.1109,-2.1109,-2.1109,-2.1096,-2.0895,-1.913,-1.6512,-1.6247,-1.5727,-1.5124,-1.522,-1.4313,-1.3044,-1.302,-1.1862,-1.0384,-1.0199,-0.9653,-0.9061,-0.9061,-0.9061,-0.9061,-0.9061,-0.9061,-0.911,-0.9233,-0.9157,-0.9061,-0.9061,-0.8974,-0.8818,-0.8669,-0.852,-0.843,-0.8376,-0.8099,-0.7851,-0.7821,-0.7692,-0.7631,-0.7726,-0.7692,-0.7678,-0.7733,-0.7082,-0.6619,-0.6619,-0.5866,-0.535,-0.535,-0.5274,-0.5067,-0.4693,-0.4592,-0.4375,-0.4025,-0.3904,-0.3866,-0.3867,-0.3748,-0.332,-0.2542,0.0,0.0,0.0,0.0,0.0,0.0,0.0,0.0,0.0,0.0,0.0,0.0,0.0,0.0,0.0,0.0,0.0,0.0,0.0,0.0,0.0,0.0,0.0,-1.5458,-1.7515,-1.8905,-1.8651,-2.0641,-2.147,-2.0054,-2.0668,-2.1283,-2.1622,-2.1903,-2.2318,-2.2893,-2.292,-2.292,-2.292,-2.2605,-2.2411,-2.2411,-2.2164,-2.2004,-2.1991,-2.1743,-2.1609,-2.1582,-2.1269,-2.1136,-2.1136,-2.1122,-2.1122,-2.1122,-2.1109,-2.0949,-2.0686,-2.0361,-1.9302,-1.7982,-1.7982,-1.6957,-1.5505,-1.5126,-1.3714,-1.2085,-1.2085,-1.0924,-0.9569,-0.9569,-0.954,-0.9482,-0.9482,-0.9453,-0.9424,-0.9424,-0.9424,-0.9417,-0.9417,-0.9294,-0.9145,-0.8946,-0.8791,-0.8669,-0.8546,-0.8255,-0.7979,-0.7824,-0.7719,-0.7624,-0.7624,-0.7519,0.0,-0.7611,-0.7746,-0.7828,-0.7797,-0.7932,-0.7995,-0.7982,-0.7756,-0.7173,-0.6125,-0.5829,-0.5218,-0.4176,-0.3866,-0.3728,-0.3728,-0.3381,-0.3342,-0.3684,0.0,0.0,0.0,0.0,0.0,0.0,0.0,0.0,0.0,0.0,0.0,0.0,0.0,0.0,0.0,0.0,0.0,0.0,0.0,0.0,0.0,-1.6163,-1.7542,-1.7622,-1.9292,-2.0788,-2.1596,-2.2432,-2.2772,-2.2392,-2.2365,-2.2512,-2.2819,-2.2913,-2.3126,-2.3536,-2.3549,-2.3549,-2.3549,-2.3233,-2.3038,-2.3038,-2.2779,-2.2512,-2.2298,-2.2218,-2.2071,-2.189,-2.1777,-2.175,-2.1737,-2.1555,-2.1462,-2.1448,-2.1203,-2.1069,-2.0962,-2.0668,-2.0139,-1.9576,-1.9576,-1.8422,-1.6718,-1.5439,-1.45,-1.3887,-1.3887,-1.3553,-1.3181,-1.3181,-1.2361,-1.1419,-1.1419,-1.0591,-0.97,-0.97,-0.9625,-0.9544,-0.9544,-0.9376,-0.92,-0.9131,-0.8893,-0.8696,-0.8655,-0.8492,-0.8316,-0.8192,-0.8226,-0.8233,-0.8124,-0.8165,-0.8219,-0.826,-0.8275,-0.8214,-0.7973,-0.8208,-0.8228,-0.7878,-0.8004,-0.7927,-0.7483,-0.7382,-0.7198,-0.6902,-0.6832,-0.6789,-0.68,-0.5743,-0.5257,0.0,0.0,0.0,0.0,0.0,0.0,0.0,0.0,0.0,0.0,0.0,0.0,0.0,0.0,0.0,0.0,0.0,0.0,0.0,0.0,0.0,0.0,-1.821,-1.9893,-2.0762,-2.1657,-2.2565,-2.35,-2.3875,-2.3968,-2.3714,-2.3527,-2.35,-2.3688,-2.3701,-2.3821,-2.4115,-2.4142,-2.4142,-2.4142,-2.3848,-2.3634,-2.3514,-2.3207,-2.2899,-2.2605,-2.2472,-2.2338,-2.2164,-2.2044,-2.1991,-2.1977,-2.1836,-2.177,-2.1743,-2.1448,-2.1296,-2.1269,0.0,0.0,0.0,0.0,-1.9819,-1.8636,-1.7709,-1.6774,-1.5989,-1.5989,-1.5413,-1.4771,-1.4771,-1.4042,-1.3048,-1.2397,-1.1525,-1.0657,-0.9974,-0.9731,-0.97,-0.97,-0.9517,-0.9376,-0.9376,-0.9157,-0.8988,-0.8988,-0.892,0.0,-0.8696,-0.8471,-0.8269,-0.8187,-0.8187,-0.8221,-0.8289,-0.835,-0.8355,-0.8153,-0.8289,-0.8315,-0.8024,-0.8052,0.0,0.0,0.0,-0.7891,-0.7831,-0.7831,0.0,0.0,0.0,-0.6531,-0.6669,-0.5891,0.0,0.0,-0.4524,-0.4308,0.0,0.0,0.0,0.0,0.0,0.0,0.0,0.0,0.0,0.0,0.0,0.0,0.0,0.0,0.0,0.0,-2.0294,-2.2151,-2.4128,-2.4218,-2.4195,-2.4639,-2.4943,-2.489,-2.4396,-2.4289,-2.4262,-2.4302,-2.4275,-2.4369,-2.4586,-2.4599,0.0,0.0,0.0,-2.4075,-2.3857,-2.3527,-2.322,-2.2947,-2.2645,-2.2498,-2.2458,-2.2205,-2.2084,-2.2084,-2.2044,-2.2031,-2.2004,-2.1716,-2.1569,-2.1502,-2.1216,-2.1109,-2.1109,-2.1109,-2.0922,-2.0712,-2.0712,0.0,0.0,-1.8166,-1.6994,-1.5571,-1.5571,-1.5263,-1.461,-1.3204,-1.2616,-1.2157,-1.0717,-1.0331,-1.0301,-1.0119,-0.9977,-0.9813,-0.9641,-0.949,-0.941,-0.941,-0.941,-0.9369,-0.9233,-0.8628,-0.8162,-0.8142,-0.804,-0.8006,-0.8121,-0.8289,-0.8376,-0.8328,-0.8349,0.0,-0.8301,-0.8038,-0.7912,-0.8033,-0.7898,-0.778,-0.7651,-0.7651,-0.7499,-0.72,-0.7213,-0.7377,-0.7678,-0.7692,-0.7834,-0.7997,-0.5573,-0.5094,0.0,0.0,0.0,0.0,0.0,0.0,0.0,0.0,0.0,0.0,0.0,0.0,0.0,0.0,0.0,-2.0361,-2.2298,-2.4075,-2.5462,-2.561,-2.5529,-2.5358,-2.5184,-2.513,-2.5251,-2.4799,-2.4613,-2.489,-2.469,-2.4546,-2.4599,-2.4599,-2.4599,-2.4599,-2.4356,-2.4182,-2.4115,-2.3834,-2.3541,-2.3233,-2.3145,0.0,-2.2813,-2.276,-2.2733,-2.2719,-2.2445,-2.2338,-2.2298,-2.1796,-2.1448,-2.1189,-2.1136,-2.1109,-2.1109,-2.1109,-2.0922,-2.0712,-2.0712,-2.0297,-1.9759,-1.9759,-1.9507,-1.9183,-1.9183,-1.8094,0.0,-1.6489,-1.5299,-1.4063,-1.3735,-1.3676,-1.3347,-1.2037,-1.1627,-1.1181,-0.9872,-0.949,-0.941,-0.941,-0.941,-0.9403,-0.9369,-0.9247,-0.9083,-0.8981,-0.9043,-0.907,-0.8975,-0.8988,-0.8873,-0.8505,-0.8662,-0.8662,-0.8328,-0.8349,-0.8342,-0.826,-0.8054,-0.7959,-0.7932,-0.7932,-0.7905,-0.782,-0.7991,-0.8104,-0.8165,-0.8281,-0.8343,-0.8384,-0.7601,-0.7362,0.0,0.0,0.0,0.0,0.0,0.0,0.0,0.0,0.0,0.0,0.0,-1.6565,-1.7435,0.0,-2.098,-2.2418,-2.3901,-2.517,-2.6091,-2.6346,-2.6226,-2.5785,-2.565,-2.5556,-2.5518,-2.5117,-2.4917,-2.5101,-2.4796,-2.4599,-2.4599,-2.4599,-2.4599,-2.4599,-2.4452,-2.4356,-2.4209,-2.3915,-2.3621,-2.3292,-2.3292,-2.3166,-2.2893,-2.302,-2.3041,-2.2893,-2.2712,-2.2645,-2.2605,-2.2164,-2.1817,-2.155,-2.155,-2.1363,-2.1109,-2.1109,-2.1015,-2.0895,-2.0895,-2.0802,-2.0637,-2.0637,-2.0575,-2.0454,-2.0454,-1.9681,-1.8651,-1.7883,-1.696,-1.6084,-1.5267,-1.5054,-1.4811,-1.3825,-1.3541,-1.323,-1.2307,-1.1422,-1.0805,-1.0805,-1.0154,-0.9598,-0.9598,-0.9598,-0.9523,-0.9328,-0.9362,-0.9383,-0.9308,-0.9226,-0.9125,-0.8873,-0.8825,-0.8703,-0.8513,-0.8512,-0.8451,-0.8308,-0.8262,-0.8228,-0.816,-0.8153,-0.8187,-0.8262,-0.8294,-0.8328,-0.8403,-0.8471,-0.8505,-0.8505,-0.833,-0.8262,0.0,0.0,0.0,0.0,0.0,0.0,0.0,0.0,-1.5561,-1.71,-1.7929,-1.8812,-2.0227,-2.1475,-2.2773,-2.4289,-2.5237,-2.5959,-2.648,-2.6707,-2.6627,-2.6145,-2.6078,-2.5957,-2.5625,-2.5331,-2.5144,-2.5077,-2.4863,-2.4653,-2.4599,-2.4599,-2.4599,-2.4599,-2.4599,-2.4492,-2.4289,-2.4062,-2.3794,-2.3465,-2.3412,-2.3247,-2.2987,-2.3153,-2.31,-2.2893,-2.2893,-2.2867,-2.2786,-2.2512,-2.2245,-2.1991,-2.1991,-2.1697,-2.1269,-2.1216,-2.1162,-2.1109,-2.1109,-2.1109,-2.1109,-2.1109,-2.0949,-2.0793,-2.0793,-2.0548,-2.0033,-1.8784,-1.8398,-1.8043,-1.6752,-1.6413,-1.6266,-1.5706,-1.5572,-1.5429,-1.4891,-1.3769,-1.2833,-1.2833,-1.178,-1.0905,-1.0905,-1.0905,-1.0582,-0.9628,-0.9469,-0.9456,-0.9429,-0.9349,-0.926,-0.9226,-0.9009,-0.8818,-0.873,-0.8642,-0.8519,-0.8349,-0.8444,-0.8457,-0.8342,-0.8335,-0.8389,-0.8505,-0.8423,-0.8437,-0.8526,-0.8554,-0.8574,-0.8574,-0.8574,-0.854,-1.2545,-1.2305,-1.2665,-1.3721,-1.4162,-1.5154,0.0,0.0,-1.9294,-2.102,-2.2031,-2.2665,-2.2865,-2.3888,-2.4954,-2.5677,-2.6279,-2.6787,-2.7162,-2.6961,-2.6707,-2.6373,-2.6346,-2.6265,-2.5971,-2.5638,-2.5358,-2.5141,-2.5088,-2.4917,-2.4613,-2.4599,-2.4599,-2.4599,-2.4599,-2.4586,-2.4559,-2.4519,-2.4359,-2.4102,-2.3848,-2.3567,-2.326,-2.302,-2.2934,-2.2893,-2.2893,-2.2746,-2.2472,-2.2432,-2.2245,-2.1991,-2.1991,-2.1951,-2.1857,-2.1636,-2.1368,-2.1109,-2.1109,-2.1109,-2.1109,-2.1109,-2.1082,-2.1069,-2.1069,-2.0855,-2.0597,-2.0429,-2.0183,-1.9893,-1.9728,-1.9668,-1.932,-1.7916,-1.7567,-1.7188,-1.5721,-1.5247,-1.5124,-1.5124,-1.5,-1.4845,-1.4845,-1.4845,-1.3683,-1.0263,-0.9744,-0.9727,-0.9598,-0.9571,-0.9503,-0.9396,-0.9356,-0.9198,-0.8906,-0.8872,-0.8737,-0.8505,-0.8498,-0.8498,-0.8485,-0.8485,-0.8492,-0.8505,-0.8601,-0.8669,-0.8682,-0.8791,-0.8858,-0.8858,-0.8858,-0.8716,-1.4095,-1.4108,-1.4469,-1.5981,-1.6969,-1.8156,-2.0351,-2.0989,-2.155,-2.2979,-2.3848,-2.4449,-2.4796,-2.5398,-2.5919,-2.6212,-2.656,-2.68,-2.676,-2.68,-2.652,-2.5718,-2.5625,-2.5651,-2.5692,-2.5277,-2.5024,-2.5077,-2.4917,-2.477,-2.4613,-2.4599,-2.4599,-2.4599,-2.4599,-2.4599,-2.4599,-2.4439,-2.4329,-2.4209,-2.4075,-2.3875,-2.3581,-2.3621,-2.346,-2.314,-2.314,-2.2953,-2.2672,-2.2672,-2.2605,-2.2532,-2.2532,-2.2392,-2.2205,-2.1943,-2.1649,-2.1395,-2.1395,-2.1256,-2.1109,-2.1109,-2.1109,-2.1109,-2.1109,-2.1029,-2.0922,-2.0922,-2.0842,-2.0717,-2.0717,-2.0717,-2.0509,-1.9707,-1.9545,-1.9309,-1.8429,-1.7522,-1.6895,-1.6895,-1.6124,-1.5515,-1.5515,-1.5515,-1.4948,-1.3357,-1.2139,-1.1408,-1.1338,-1.0307,-0.9551,-0.9424,-0.941,-0.9334,-0.9205,-0.9198,-0.9069,-0.8737,-0.8852,-0.8818,-0.8621,-0.8615,-0.8655,-0.8716,-0.8723,-0.873,-0.8818,-0.8879,-0.8912,-0.8912,-0.8912,-0.8845,-1.479,-1.5271,-1.5979,-1.7902,-1.9383,-2.0735,-2.2024,-2.2739,-2.3447,-2.4476,-2.5024,-2.5489,-2.5917,-2.6105,-2.6199,-2.636,-2.656,-2.6653,-2.6533,-2.648,-2.6092,-2.5077,-2.4596,-2.4462,-2.4756,-2.4543,-2.4489,-2.474,-2.4596,-2.4479,-2.4479,-2.4559,-2.4599,-2.4599,-2.4599,-2.4599,-2.4599,-2.4422,-2.4329,-2.4329,-2.4249,-2.4088,-2.3888,-2.3941,-2.3688,-2.3207,-2.3252,-2.3153,-2.2907,-2.2987,-2.2974,-2.2893,-2.2893,-2.276,-2.2512,-2.2311,-2.197,-2.1582,-2.1582,-2.1395,-2.1109,-2.1109,-2.1109,-2.1109,-2.1109,-2.1109,-2.1109,-2.1109,-2.1109,-2.1109,-2.1109,-2.1109,-2.1056,-2.0842,-2.0802,-2.0735,-2.049,-1.955,-1.8766,-1.8766,-1.7824,-1.7046,-1.7046,-1.7046,-1.7046,-1.7046,-1.5401,-1.3822,-1.2819,-1.0944,-0.9656,-0.9578,-0.953,-0.949,-0.9449,-0.9442,-0.9334,-0.9048,-0.9186,-0.9131,-0.8845,-0.8832,-0.8866,-0.8912,-0.8804,-0.8798,-0.8912,-0.8912,-0.8912,-0.8912,-0.8912,-0.8912,-1.3902,-1.495,-1.6355,-1.8772,-2.0659,-2.2311,-2.3781,-2.4583,-2.5208,-2.581,-2.5957,-2.5971,-2.5998,-2.5732,-2.5718,-2.6293,-2.64,-2.6493,-2.6734,-2.6079,-2.5331,-2.4679,-2.3345,-2.2619,-2.2947,-2.3496,-2.383,-2.3843,-2.4062,-2.4222,-2.4222,-2.4452,-2.4599,-2.4599,-2.4599,-2.4599,-2.4599,-2.4586,-2.4586,-2.4586,-2.4342,-2.4195,-2.4168,-2.3572,-2.318,-2.2934,-2.3193,-2.3153,-2.292,-2.3193,-2.314,-2.2893,-2.2893,-2.2893,-2.288,-2.288,-2.2318,-2.1582,-2.1582,-2.1395,-2.1109,-2.1109,-2.1109,-2.1109,-2.1109,-2.1109,-2.1109,-2.1109,-2.1109,-2.1109,-2.1109,-2.1109,-2.1109,-2.1096,-2.1096,-2.1096,-2.1082,-2.1051,-2.0987,-2.0987,-2.0956,-2.0924,-2.0924,-2.0924,-2.0924,-2.0924,-1.9318,-1.6871,-1.3349,-1.1183,-0.997,-0.997,-0.9866,-0.9724,-0.9612,-0.9605,-0.9537,-0.9403,-0.9403,-0.9335,-0.92,-0.9193,-0.9104,-0.8912,-0.8906,-0.8906,-0.8912,-0.8912,-0.8912,-0.8912,-0.8912,-0.8912,-1.5922,-1.7301,-1.8772,-2.1127,-2.2726,-2.4022,-2.5155,-2.5703,-2.5892,-2.5705,-2.489,-2.4088,-2.3688,-2.3207,-2.3174,-2.3964,-2.4914,-2.5625,-2.5919,-2.5865,-2.5224,-2.3647,-2.302,-2.2445,-2.1764,-2.2231,-2.2832,-2.3434,-2.3754,-2.3995,-2.4195,-2.4439,-2.4599,-2.4599,-2.4599,-2.4599,-2.4599,-2.4599,-2.4599,-2.4599,-2.4506,-2.4452,-2.4439,-2.4088,-2.3741,-2.3509,-2.3581,-2.3327,-2.2934,-2.3407,-2.3362,-2.2934,-2.3335,-2.3255,-2.292,-2.31,-2.2726,-2.2098,-2.1943,-2.1676,-2.1408,-2.1176,-2.1109,-2.1109,-2.1109,-2.1109,-2.1109,-2.1109,-2.1109,-2.1109,-2.1109,-2.1109,-2.1109,-2.1109,-2.1109,-2.1109,-2.1109,-2.1109,-2.1109,-2.1109,-2.1109,-2.1109,-2.1109,-2.1109,-2.1109,-2.1109,-1.95,-1.7394,-1.4944,-1.4048,-1.3638,-1.3638,-1.3426,-1.2795,-1.1681,-1.1418,-1.0808,-0.9603,-0.953,-0.9462,-0.9342,-0.9335,-0.9308,-0.9232,-0.9232,-0.9184,-0.9111,-0.9184,-0.9178,-0.9111,-0.9184,-0.9232,-1.7555,-1.9187,-2.0739,-2.3108,-2.4382,-2.5251,-2.5864,-2.6065,-2.5785,-2.477,-2.3567,-2.2418,-2.1496,-2.0762,-2.0722,-2.2064,-2.2987,-2.3861,-2.4903,-2.493,-2.4432,-2.3166,-2.2773,-2.2291,-2.1496,-2.1764,-2.2271,-2.2918,-2.3487,-2.3884,-2.4035,-2.4386,-2.4599,-2.4599,-2.4599,-2.4599,-2.4599,-2.4599,-2.4599,-2.4599,-2.4599,-2.4492,-2.4329,-2.4235,-2.3981,-2.3621,-2.3834,-2.3683,-2.3255,-2.3728,-2.3669,-2.3255,-2.3656,-2.3509,-2.3046,-2.3247,-2.2972,-2.2539,-2.2245,-2.1984,-2.1703,-2.1483,-2.1416,-2.1416,-2.1416,-2.1416,-2.1416,-2.1416,-2.1416,-2.1403,-2.1296,-2.1269,-2.1243,-2.1136,-2.1109,-2.1109,-2.1109,-2.1109,-2.1109,-2.1109,-2.1109,-2.1109,-2.1109,-2.1109,-2.1109,-2.1109,-2.0073,-1.8647,-1.681,-1.5993,-1.5565,-1.5565,-1.533,-1.4768,-1.3723,-1.3356,-1.2711,-1.1589,-1.1435,-1.1315,-1.1197,-1.0637,-1.0295,-1.0272,-0.97,-0.9362,-0.9267,-0.9362,-0.9362,-0.9267,-0.9362,-0.941,-1.8759,-2.0619,-2.2265,-2.4553,-2.5529,-2.5931,-2.5931,-2.5611,-2.4863,-2.3148,-2.1997,-2.0873,0.0,0.0,-1.8583,-2.0628,-2.0855,-2.1622,-2.3875,-2.3487,-2.306,0.0,0.0,0.0,0.0,0.0,-2.2164,-2.2445,-2.326,-2.379,-2.383,-2.4329,-2.4599,-2.4599,-2.4599,-2.4599,-2.4599,-2.4599,-2.4599,-2.4599,-2.4599,-2.4342,-2.3857,-2.4088,-2.3901,-2.3372,-2.3968,-2.4035,-2.383,-2.4102,-2.4048,-2.3803,-2.3843,-2.3621,-2.3319,-2.3332,-2.318,-2.2907,-2.2579,-2.2271,-2.2004,-2.1991,-2.1991,-2.1991,-2.1991,-2.1991,-2.1991,-2.1991,-2.1991,-2.1957,-2.1676,-2.1609,-2.1542,-2.1216,-2.1149,-2.1136,-2.1136,-2.1122,-2.1109,-2.1109,-2.1109,-2.1109,-2.1109,-2.1109,-2.1109,-2.1109,-2.1109,-2.0494,-1.8864,-1.7072,-1.597,-1.597,-1.5846,-1.5742,-1.5649,-1.535,-1.5125,-1.5024,-1.467,-1.4429,-1.4286,-1.273,-1.1841,-1.1701,-1.0294,-0.9489,-0.9424,-0.9489,-0.9489,-0.9424,-0.943,-0.943,-2.1029,-2.2565,-2.3781,-2.4823,-2.5024,-2.497,-2.497,-2.4062,-2.2832,-2.1542,-1.9334,-1.7327,-1.6297,-1.6458,-1.7181,-1.8571,-2.0806,0.0,-2.4022,-2.4382,0.0,-2.3385,0.0,-2.3081,-2.2378,-2.2712,-2.302,-2.3052,-2.3278,-2.3634,-2.4075,-2.4436,-2.4599,-2.4599,-2.4599,-2.4599,-2.4599,-2.4599,-2.4599,-2.4599,-2.4599,-2.4519,-2.4372,-2.4262,-2.4128,-2.3995,-2.4142,-2.4035,-2.3843,-2.4315,-2.4222,-2.3843,-2.4249,-2.4102,-2.3688,-2.3901,-2.3794,-2.3562,-2.3447,-2.2939,-2.2271,-2.2058,-2.1991,-2.1991,-2.1991,-2.1991,-2.1991,-2.1991,-2.1991,-2.1964,-2.193,-2.1903,-2.189,-2.1777,-2.1636,-2.1475,-2.1475,-2.1269,-2.1109,-2.1109,-2.1109,-2.1109,-2.1109,-2.1109,-2.1109,-2.1109,-2.1109,-2.0951,-2.0494,-2.0036,-1.9732,-1.9732,-1.9525,-1.8883,-1.7676,-1.7322,-1.6544,-1.5095,-1.381,-1.3002,-1.2776,-1.1221,-1.0343,-1.0299,-1.1069,-1.0837,-0.9551,-1.0837,-1.0829,-0.9551,-0.9659,-0.9707,-2.3033,-2.4262,-2.5088,-2.5422,-2.5144,-2.4529,-2.3319,-2.2211,-2.0802,-1.8464,-1.6578,-1.5106,-1.4357,-1.4625,-1.5565,0.0,0.0,0.0,-2.3402,-2.4022,-2.4168,0.0,-2.4088,0.0,-2.3273,-2.3585,-2.3865,-2.3865,-2.3865,-2.3959,-2.4195,-2.4596,-2.4733,-2.4599,-2.4599,-2.4666,-2.4823,-2.4666,-2.4666,-2.4823,-2.4666,-2.4532,-2.4412,-2.4372,-2.4329,-2.4209,-2.4342,-2.4302,-2.4168,-2.4466,-2.4412,-2.4182,-2.4479,-2.4356,-2.3981,-2.4142,-2.4022,-2.3803,-2.3803,-2.3469,-2.2979,-2.2819,-2.2686,-2.2579,-2.2579,-2.2485,-2.2398,-2.2398,-2.2398,-2.2372,-2.2205,-2.2178,-2.2151,-2.2017,-2.189,-2.1783,-2.1783,-2.1649,-2.1496,-2.1496,-2.1496,-2.1496,-2.1496,-2.1496,-2.1456,-2.1355,-2.1309,-2.1256,-2.1122,-2.1109,-2.1109,-2.1109,-2.0962,-2.0511,-1.9607,-1.9293,-1.8656,-1.7579,-1.6505,-1.5867,-1.5709,-1.4184,-1.296,-1.2092,-1.2275,-1.1496,-0.97,-1.068,-1.0643,-0.9707,-0.9751,-0.9792,-2.4623,-2.5583,-2.5971,-2.585,-2.5342,-2.4155,-2.1483,-2.0267,-1.8649,-1.5008,-1.3961,-1.3547,-1.312,-1.314,-1.4215,-1.714,0.0,-1.9653,-2.2505,-2.3166,-2.3559,-2.4142,-2.469,-2.4823,-2.4302,-2.4452,-2.4613,-2.4653,-2.4653,-2.4532,-2.4275,-2.4783,-2.4943,-2.4613,-2.4599,-2.4746,-2.5115,-2.4783,-2.4783,-2.5115,-2.4783,-2.4466,-2.4262,-2.4479,-2.4466,-2.4275,-2.4492,-2.4599,-2.4599,-2.4599,-2.4599,-2.4599,-2.4599,-2.4439,-2.4262,-2.4262,-2.4102,-2.3924,-2.3924,-2.3924,-2.391,-2.379,-2.3541,-2.3278,-2.3273,-2.3073,-2.2893,-2.2893,-2.2893,-2.284,-2.2539,-2.2472,-2.2418,-2.2164,-2.2104,-2.2044,-2.2044,-2.2017,-2.1991,-2.1991,-2.1991,-2.1991,-2.1991,-2.1991,-2.193,-2.1676,-2.1649,-2.1542,-2.1203,-2.1136,-2.1109,-2.1109,-2.1109,-2.1109,-2.1109,-2.0882,-2.0753,-2.0712,-2.0244,-1.9933,-1.9893,-1.8423,-1.6806,-1.5095,-1.3875,-1.2228,-1.0184,-1.0338,-1.021,-0.9792,-0.9792,-0.9792,-2.5211,-2.5692,-2.5824,-2.505,-2.4199,-2.2939,-2.0281,-1.8291,0.0,0.0,-1.2256,-1.1667,-1.2056,-1.2906,-1.4434,-1.7167,-1.8704,-2.0347,-2.2586,-2.3375,-2.3821,0.0,-2.4502,-2.4639,-2.4532,-2.4572,-2.4706,-2.4983,-2.4997,-2.4877,-2.4532,-2.489,-2.4943,-2.4613,-2.4599,-2.4746,-2.5115,-2.4783,-2.4783,-2.5115,-2.4783,-2.4572,-2.4532,-2.4572,-2.4572,-2.4532,-2.4572,-2.4599,-2.4599,-2.4599,-2.4599,-2.4599,-2.4599,-2.4572,-2.4519,-2.4519,-2.4492,-2.4452,-2.4452,-2.4452,-2.4332,-2.3599,-2.3332,-2.3252,-2.3054,-2.2934,-2.2893,-2.2893,-2.2893,-2.288,-2.284,-2.2813,-2.2813,-2.276,-2.2525,-2.2338,-2.2338,-2.2151,-2.1991,-2.1991,-2.1991,-2.1991,-2.1991,-2.1991,-2.1964,-2.1957,-2.1943,-2.1836,-2.1542,-2.1256,-2.1109,-2.1109,-2.1109,-2.1109,-2.1109,-2.1069,-2.0935,-2.0726,-1.9411,-1.8518,-1.83,-1.6752,-1.5773,-1.5422,-1.6182,-1.5115,-1.2139,-1.322,-1.2397,-0.9792,-0.9792,-0.9792,-2.4986,-2.5611,-2.6011,-2.509,-2.3968,-2.2151,-1.8598,0.0,0.0,-1.153,-1.0595,-1.0597,-1.1476,-1.234,0.0,-1.5882,-1.7488,-1.9174,-2.1203,-2.2405,-2.3354,-2.4115,-2.4693,-2.5053,-2.5053,-2.5053,-2.5157,-2.5291,-2.5489,-2.5344,-2.489,-2.4997,-2.501,-2.4877,-2.501,-2.5157,-2.5304,-2.501,-2.509,-2.5569,-2.4917,-2.4759,-2.5039,-2.4733,-2.4679,-2.4863,-2.4666,-2.4599,-2.4613,-2.4796,-2.4863,-2.4877,-2.4999,-2.4997,-2.4863,-2.4863,-2.4733,-2.4599,-2.4599,-2.4599,-2.4506,-2.3932,-2.3781,-2.3754,-2.3607,-2.334,-2.31,-2.31,-2.3027,-2.2893,-2.2893,-2.2893,-2.2893,-2.2893,-2.2786,-2.2645,-2.2645,-2.2572,-2.2479,-2.2479,-2.2479,-2.2479,-2.2479,-2.2479,-2.2425,-2.2231,-2.2205,-2.2111,-2.185,-2.1657,-2.1443,-2.1136,-2.1109,-2.1109,-2.1109,-2.1109,-2.1056,-2.0909,-2.0192,-1.9707,-1.9568,-1.8806,-1.7952,-1.6961,-1.7561,-1.6635,-1.4118,-1.384,-1.2882,-1.1241,-1.0421,-0.9971,-2.473,-2.5491,-2.6052,-2.5088,-2.371,-2.1475,-1.71,-1.5124,0.0,-0.9817,-0.9365,-0.9953,-1.1099,-1.1646,-1.2572,0.0,-1.5855,-1.7394,-1.961,-2.1184,-2.2605,0.0,-2.4796,0.0,-2.5411,-2.5358,-2.5398,-2.5598,-2.5864,-2.5797,-2.5329,-2.5211,-2.517,-2.517,-2.5398,-2.5545,-2.5611,-2.5317,-2.5398,-2.5891,-2.5157,-2.4999,-2.5411,-2.4906,-2.489,-2.5157,-2.4863,-2.4733,-2.4799,-2.5077,-2.517,-2.5197,-2.5424,-2.5331,-2.5128,-2.5144,-2.4983,-2.4693,-2.4693,-2.4693,-2.4639,-2.4396,-2.4249,-2.4182,-2.4048,-2.3688,-2.3278,-2.3247,-2.3046,-2.2907,-2.2974,-2.2947,-2.2893,-2.2893,-2.2893,-2.2893,-2.2893,-2.2947,-2.3,-2.3,-2.3,-2.3014,-2.3081,-2.2987,-2.284,-2.2632,-2.2552,-2.2405,-2.2111,-2.2084,-2.1884,-2.1349,-2.1296,-2.1296,-2.1296,-2.1243,-2.1203,-2.1203,-2.1149,-2.1109,-2.1109,-2.1109,-2.0409,-1.893,-1.885,-1.7925,-1.6116,-1.4663,-1.3532,-1.2648,-1.1406,-1.0503,-2.4756,-2.5543,-2.569,-2.4285,-2.2813,-2.0619,-1.6444,0.0,-1.2478,-0.9445,-0.9044,-0.9604,-1.0822,-1.0878,-1.1605,-1.4127,-1.4647,-1.5741,-1.8609,-2.0307,-2.1777,-2.3198,0.0,0.0,-2.509,-2.4877,-2.505,-2.5891,-2.5984,-2.5971,-2.5917,-2.5625,-2.5478,-2.5478,-2.5504,-2.5638,-2.5957,-2.5625,-2.5504,-2.5558,-2.5478,-2.5317,-2.5117,-2.5064,-2.5197,-2.5451,-2.517,-2.5184,-2.5438,-2.5464,-2.5478,-2.5478,-2.5504,-2.5331,-2.5117,-2.5371,-2.5291,-2.5037,-2.5037,-2.5037,-2.4997,-2.4653,-2.4386,-2.4102,-2.3532,-2.3332,-2.326,-2.3014,-2.292,-2.296,-2.3207,-2.3073,-2.2893,-2.2893,-2.2893,-2.2893,-2.2893,-2.3086,-2.3252,-2.3252,-2.3252,-2.3367,-2.3669,-2.3268,-2.2987,-2.3207,-2.3006,-2.2746,-2.2418,-2.2345,-2.2258,-2.1937,-2.1911,-2.1911,-2.1911,-2.1689,-2.1542,-2.1542,-2.1256,-2.1109,-2.1109,-2.1109,-2.1032,-2.0848,-2.0583,-1.9667,-1.8046,-1.7626,-1.5866,-1.2875,-1.2735,-1.1705,-2.2813,-2.4325,-2.5384,-2.4124,-2.2546,-2.0254,-1.6299,0.0,-1.2163,-0.9379,-0.8885,-0.9218,-1.006,-1.0129,-1.057,-1.2144,0.0,0.0,-1.6675,-1.8289,-2.009,-2.2465,-2.3372,-2.4168,0.0,-2.497,-2.5197,-2.5944,-2.5998,-2.5998,-2.5998,-2.5877,-2.5824,-2.5824,-2.5824,-2.5877,-2.5998,-2.5665,-2.5692,-2.6039,-2.5678,-2.5638,-2.5852,-2.5504,-2.5504,-2.5758,-2.5464,-2.5411,-2.5531,-2.5705,-2.5824,-2.5837,-2.5972,-2.5865,-2.5663,-2.577,-2.5598,-2.5317,-2.5144,-2.5115,-2.5037,-2.4693,-2.4519,-2.4386,-2.4146,-2.3959,-2.3834,-2.3701,-2.342,-2.3207,-2.3514,-2.3536,-2.3442,-2.3442,-2.3442,-2.3442,-2.3442,-2.3549,-2.3594,-2.3594,-2.3594,-2.3634,-2.379,-2.3603,-2.3482,-2.3581,-2.334,-2.31,-2.2945,-2.2806,-2.2679,-2.2559,-2.2224,-2.1991,-2.1991,-2.1917,-2.177,-2.1596,-2.1475,-2.1296,-2.1122,-2.1109,-2.1109,-2.1109,-1.9954,-1.9057,-1.8411,-1.6201,-1.4413,-1.2999,-1.2032,-1.1081,-2.086,-2.2712,-2.4249,-2.3375,-2.1577,-1.9199,0.0,0.0,-1.1511,-0.9259,-0.8858,-0.9071,-0.9607,-0.9768,-1.0047,-1.0771,0.0,-1.2906,-1.4994,-1.6794,-1.8731,-2.0989,0.0,-2.3006,-2.4182,-2.4967,-2.5516,-2.5837,-2.6024,-2.6118,-2.6118,-2.6118,-2.6051,-2.5864,-2.5957,-2.5998,-2.5998,-2.5784,-2.5852,-2.6292,-2.5932,-2.5945,-2.6292,-2.5838,-2.5798,-2.6105,-2.5772,-2.5692,-2.5785,-2.6038,-2.6118,-2.6145,-2.6306,-2.6252,-2.6011,-2.6091,-2.5838,-2.5478,-2.5277,-2.5157,-2.5037,-2.4693,-2.4599,-2.4599,-2.4599,-2.4399,-2.4182,-2.4102,-2.3834,-2.3621,-2.3777,-2.387,-2.391,-2.383,-2.3803,-2.3803,-2.3803,-2.387,-2.3937,-2.3937,-2.3937,-2.3928,-2.4008,-2.3924,-2.383,-2.3924,-2.3647,-2.346,-2.346,-2.3273,-2.3161,-2.3161,-2.2719,-2.2338,-2.2291,-2.2164,-2.2031,-2.185,-2.1756,-2.1622,-2.1376,-2.1283,-2.1243,-2.1243,-1.9947,-1.9024,-1.848,-1.6043,-1.4257,-1.313,-1.1997,-1.1065,-1.9345,-2.0895,-2.1984,-2.1689,-1.9615,-1.71,0.0,-1.2478,-1.0278,-0.9058,-0.9004,-0.9297,-0.9647,-0.9913,-1.0207,-1.0546,-1.1337,0.0,-1.3915,-1.6136,-1.7849,0.0,-1.9813,-2.1194,-2.2338,-2.4606,-2.5864,-2.5545,-2.6052,-2.6386,-2.6386,-2.6386,-2.6119,-2.5531,-2.5837,-2.5998,-2.5998,-2.5998,-2.5998,-2.5998,-2.6279,-2.6239,-2.5998,-2.5998,-2.6145,-2.6373,-2.6118,-2.6158,-2.6386,-2.6386,-2.6386,-2.6386,-2.6386,-2.6252,-2.6038,-2.6319,-2.6012,-2.5518,-2.5504,-2.5317,-2.5037,-2.4693,-2.4599,-2.4599,-2.4599,-2.4399,-2.4142,-2.3897,-2.3981,-2.4128,-2.3884,-2.3981,-2.4128,-2.387,-2.3803,-2.3803,-2.3803,-2.3995,-2.4195,-2.4195,-2.4195,-2.4289,-2.4546,-2.4155,-2.391,-2.4155,-2.3991,-2.3803,-2.3803,-2.3803,-2.379,-2.379,-2.3487,-2.3193,-2.292,-2.2579,-2.2371,-2.2371,-2.2138,-2.1977,-2.1977,-2.1729,-2.1582,-2.1582,-2.1256,-2.0227,-1.8512,-1.848,-1.6657,-1.3292,-1.3292,-1.2286,-1.5872,-1.7261,-1.8263,-1.7769,-1.6553,-1.5003,-1.3133,-1.1614,-1.0265,-0.9045,-0.8871,-0.9085,-0.9607,-0.9768,-1.0129,-1.1009,-1.1574,-1.2422,0.0,0.0,0.0,-1.9437,-2.1838,-2.3607,-2.4182,-2.4954,-2.5436,-2.5504,-2.5678,-2.5705,-2.5504,-2.5678,-2.5798,-2.585,-2.5944,-2.5904,-2.5651,-2.5651,-2.5758,-2.5998,-2.5838,-2.5852,-2.5984,-2.5745,-2.5812,-2.6131,-2.6038,-2.6158,-2.6386,-2.6386,-2.6386,-2.6386,-2.6386,-2.6333,-2.6279,-2.6172,-2.6011,-2.5797,-2.5358,-2.5157,-2.5037,-2.4693,-2.4599,-2.4599,-2.4599,-2.4532,-2.4436,-2.4155,-2.4275,-2.4399,-2.4142,-2.4289,-2.4439,-2.4382,-2.4369,-2.4369,-2.4369,-2.4399,-2.4466,-2.4466,-2.4466,-2.4492,-2.4586,-2.4452,-2.4396,-2.4452,-2.4249,-2.4062,-2.4062,-2.3888,-2.3803,-2.3803,-2.3723,-2.3514,-2.3207,-2.2899,-2.2632,-2.2398,-2.2338,-2.2191,-2.2024,-2.1743,-2.1582,-2.1582,-2.0112,-1.848,-1.6722,-1.5524,-1.3774,-1.1538,-1.1538,-1.1212,-1.3273,-1.4581,-1.5488,-1.5354,-1.4416,0.0,0.0,-1.0784,-0.9701,-0.8951,-0.8978,-0.9245,-0.9634,-0.9875,-1.0263,-1.0982,-1.1547,-1.2301,-1.3434,0.0,-1.7542,-1.977,-2.2145,-2.3714,-2.3888,-2.466,-2.5157,-2.5331,-2.5451,-2.5438,-2.5251,-2.5411,-2.5545,-2.5663,-2.5663,-2.5569,-2.5344,-2.5344,-2.5491,-2.5824,-2.5598,-2.5611,-2.5785,-2.5598,-2.5611,-2.5824,-2.5824,-2.5892,0.0,-2.6225,-2.6159,-2.6066,-2.6186,-2.6159,-2.6039,-2.5852,-2.5757,-2.561,-2.5248,-2.501,-2.4877,-2.4653,-2.4599,-2.4599,-2.4599,-2.4599,-2.4559,-2.4422,-2.4452,-2.4559,-2.4372,-2.4466,-2.4599,-2.4599,-2.4599,-2.4599,-2.4599,-2.4599,-2.4599,-2.4599,-2.4599,-2.4599,-2.4599,-2.4599,-2.4599,-2.4599,-2.4439,-2.4369,-2.4369,-2.4209,-2.4102,-2.4102,-2.3937,-2.3777,-2.3661,-2.3273,-2.2953,-2.2732,-2.2645,-2.2498,-2.2358,-2.1957,-2.1743,-2.1743,-2.0259,-1.8608,-1.6883,-1.446,-1.2413,-1.0684,-1.0684,-1.0684,0.0,-1.2646,-1.3387,-1.3954,-1.2879,0.0,0.0,0.0,0.0,-0.8791,-0.9259,-0.9674,-0.9701,-1.0171,-1.0586,-1.064,-1.1377,-1.2154,-1.2757,-1.5213,-1.7675,-1.9693,-2.1256,-2.2164,-2.2151,-2.3901,-2.5064,-2.5115,-2.5304,-2.5438,-2.5424,-2.5438,-2.5317,-2.5024,-2.5037,-2.505,-2.505,-2.5101,-2.5224,-2.5478,-2.5464,-2.5464,-2.5478,-2.5464,-2.5464,-2.5478,-2.5478,-2.5491,-2.5531,-2.585,-2.5758,-2.5545,-2.585,-2.5758,-2.5504,-2.5491,-2.5304,-2.5115,-2.505,-2.4863,-2.4599,-2.4599,-2.4599,-2.4599,-2.4599,-2.4599,-2.4599,-2.4599,-2.4599,-2.4599,-2.4599,-2.4599,-2.4599,-2.4599,-2.4599,-2.4613,-2.4626,-2.4613,-2.4613,-2.4626,-2.4639,-2.4626,-2.4599,-2.4613,-2.4626,-2.4599,-2.4599,-2.4599,-2.4599,-2.4599,-2.4599,-2.4599,-2.4155,-2.3977,-2.4209,-2.3674,-2.3292,-2.3292,-2.306,-2.292,-2.2893,-2.2345,-2.2017,-2.2017,-2.1199,-1.9992,-1.8343,-1.4838,-1.2297,-1.0684,-1.0684,-1.0684,-0.9471,0.0,-0.9965,-1.0098,-0.9833,-0.9512,0.0,0.0,0.0,0.0,0.0,0.0,0.0,-0.998,-1.0448,-1.1099,-1.177,-1.2492,-1.33,-1.6687,-1.9586,-2.1007,-2.2846,-2.3928,-2.3701,-2.4329,-2.4836,-2.5064,-2.493,-2.4706,-2.4529,-2.4679,-2.4679,-2.4422,-2.4623,-2.4706,-2.4706,-2.497,-2.5117,-2.5184,-2.4919,-2.4957,-2.517,-2.4943,-2.497,-2.5184,-2.5184,-2.5304,-2.5518,-2.5585,-2.5571,-2.5518,-2.5585,-2.5571,-2.5491,-2.5264,-2.5144,-2.505,-2.4823,-2.4653,-2.4599,-2.4599,-2.4599,-2.4599,-2.4599,-2.4599,-2.4599,-2.4599,-2.4599,-2.4599,-2.4599,-2.4599,-2.4599,-2.4599,-2.4599,-2.4666,-2.493,-2.4796,-2.4666,-2.493,-2.497,-2.4903,-2.4639,-2.4823,-2.4903,-2.4639,-2.4599,-2.4599,-2.4599,-2.4599,-2.4599,-2.4599,-2.4479,-2.4426,-2.4492,-2.3759,-2.3292,-2.3292,-2.3225,-2.3113,-2.2907,-2.2512,-2.2311,-2.2311,-1.9264,-1.741,-1.6899,-1.3244,-1.1194,-1.0684,-1.0684,-1.0684,-0.8791,-0.8791,-0.8791,-0.8791,-0.8791,-0.8791,-0.8791,0.0,0.0,0.0,0.0,0.0,0.0,-1.0048,-1.0568,-1.1286,-1.2246,-1.3634,-1.5741,-1.8316,-2.0535,-2.201,-2.338,-2.4289,-2.4359,-2.4506,-2.4666,-2.4863,-2.4693,-2.4532,-2.4372,-2.4519,-2.4466,-2.4209,-2.4452,-2.4599,-2.4599,-2.4796,-2.4877,-2.4877,-2.4679,-2.4679,-2.4863,-2.4679,-2.4693,-2.4877,-2.4877,-2.497,-2.5079,-2.5264,-2.5237,-2.5093,-2.5264,-2.5224,-2.5053,-2.493,-2.4877,-2.485,-2.4653,-2.4599,-2.4599,-2.4599,-2.4599,-2.4599,-2.4599,-2.4599,-2.4599,-2.4599,-2.4599,-2.4599,-2.4599,-2.4599,-2.4599,-2.4599,-2.4599,-2.4679,-2.5024,-2.4957,-2.493,-2.5224,-2.5277,-2.5224,-2.5026,-2.5064,-2.5077,-2.4999,-2.493,-2.4836,-2.4836,-2.4836,-2.4783,-2.4613,-2.4479,-2.4452,-2.4586,-2.4039,-2.3674,-2.3541,-2.3407,-2.3193,-2.2907,-2.2579,-2.2352,-2.2218,-1.9291,-1.737,-1.6509,-1.3511,-1.1634,-1.0792,-1.0718,-1.0684,-0.8844,-0.8898,-0.8925,-0.8831,-0.8831,-0.8844,-0.8804,0.0,0.0,0.0,0.0,0.0,0.0,-1.0477,0.0,0.0,-1.308,-1.5248,-1.8569,-1.9823,-2.1015,-2.2639,-2.3482,-2.4062,-2.4426,-2.4546,-2.4599,-2.4599,-2.4599,-2.4586,-2.4532,-2.4572,-2.4439,-2.4155,-2.4426,-2.4572,-2.4532,-2.4572,-2.4599,-2.4599,-2.4599,-2.4599,-2.4599,-2.4599,-2.4599,-2.4599,-2.4599,-2.4599,-2.4613,-2.4917,-2.4863,-2.4626,-2.4917,-2.4863,-2.4599,-2.4599,-2.4599,-2.4599,-2.4599,-2.4599,-2.4599,-2.4599,-2.4599,-2.4599,-2.4599,-2.4599,-2.4599,-2.4599,-2.4639,-2.4679,-2.4719,-2.4733,-2.4733,-2.4733,-2.4733,-2.4813,-2.5144,-2.5222,-2.5237,-2.5531,-2.5585,-2.5558,-2.5518,-2.5344,-2.5277,-2.5478,-2.5304,-2.5144,-2.5144,-2.5141,-2.4997,-2.4759,-2.4439,-2.4382,-2.4639,-2.4436,-2.4142,-2.3884,-2.3594,-2.33,-2.2987,-2.2686,-2.2418,-2.2124,-2.0288,-1.844,-1.6665,-1.4574,-1.2637,-1.0914,-1.0759,-1.0684,-0.9084,-0.9338,-0.9446,-0.8938,-0.8978,-0.9084,-0.8858,0.0,0.0,0.0,0.0,0.0,0.0,-1.1855,-1.273,-1.3547,-1.5124,-1.7034,-1.9345,-2.0672,-2.1662,-2.2392,-2.3639,-2.4342,-2.3941,-2.4342,-2.4599,-2.4599,-2.4599,-2.4492,-2.4289,-2.4466,-2.4359,-2.3884,-2.4356,-2.4479,-2.4275,-2.4479,-2.4599,-2.4599,-2.4599,-2.4599,-2.4599,-2.4599,-2.4599,-2.4599,-2.4599,-2.4599,-2.4599,-2.4653,-2.4639,-2.4599,-2.4653,-2.4639,-2.4599,-2.4599,-2.4599,-2.4599,-2.4599,-2.4599,-2.4599,-2.4599,-2.4599,-2.4599,-2.4599,-2.4599,-2.4599,-2.4599,-2.4823,-2.5064,-2.5317,-2.5371,-2.5371,-2.5371,-2.5371,-2.5464,-2.5797,-2.5625,-2.5531,-2.5864,-2.5931,-2.585,-2.5558,-2.5678,-2.5784,-2.5545,-2.5478,-2.5451,-2.5451,-2.5237,-2.5157,-2.5358,-2.4853,-2.4653,-2.4983,-2.4743,-2.4412,-2.4155,-2.4088,-2.3821,-2.3273,-2.3172,-2.3046,-2.2773,-2.0909,-1.8957,-1.6932,-1.4917,-1.289,-1.0914,-1.0759,-1.0684,-0.8951,-0.9205,-0.9485,-0.9714,-0.9726,-0.9604,0.0,0.0,0.0,0.0,0.0,0.0,0.0,0.0,-1.3935,-1.6112,-1.7542,-1.8931,-2.0552,-2.1248,-2.1917,-2.2772,-2.3479,-2.3919,-2.3995,-2.4382,-2.4532,-2.4372,-2.4359,-2.4372,-2.4399,-2.4262,-2.4115,-2.4008,-2.4115,-2.4102,-2.3968,-2.4262,-2.4439,-2.4599,-2.4439,-2.4452,-2.4599,-2.4599,-2.4599,-2.4599,-2.4599,-2.4599,-2.4599,-2.4599,-2.4599,-2.4599,-2.4599,-2.4599,-2.4599,-2.4599,-2.4599,-2.4599,-2.4599,-2.4599,-2.4599,-2.4599,-2.4599,-2.4599,-2.4599,-2.4599,-2.4666,-2.4986,-2.509,-2.5117,-2.5251,-2.5398,-2.5518,-2.5518,-2.5518,-2.5598,-2.5931,-2.5891,-2.5838,-2.6172,-2.6225,-2.6185,-2.6012,-2.6011,-2.5998,-2.5985,-2.5852,-2.5692,-2.5531,-2.5531,-2.5529,-2.5304,-2.5184,-2.5104,-2.5077,-2.4957,-2.469,-2.4235,-2.4062,-2.3781,-2.3305,-2.3292,-2.318,-2.2907,-2.1079,-1.9126,-1.7096,-1.5081,-1.3096,-1.1185,-1.1029,-1.0962,-0.8871,-0.9098,-0.9485,-1.0211,-1.0356,0.0,0.0,0.0,0.0,0.0,0.0,0.0,0.0,-1.406,-1.5608,-1.8263,-1.9492,-2.0521,-2.1729,-2.189,-2.2305,-2.3394,-2.3474,-2.3634,-2.4155,-2.4409,-2.4422,-2.4128,-2.4168,-2.4275,-2.4422,-2.4008,-2.3848,-2.3995,-2.3884,-2.3777,-2.3661,-2.3888,-2.4146,-2.4492,-2.4302,-2.4356,-2.4599,-2.4532,-2.4532,-2.4599,-2.4599,-2.4599,-2.4599,-2.4599,-2.4599,-2.4599,-2.4599,-2.4599,-2.4599,-2.4599,-2.4599,-2.4599,-2.4599,-2.4599,-2.4599,-2.4599,-2.4599,-2.4599,-2.4599,-2.4653,-2.4799,-2.5291,-2.5358,-2.5342,-2.5409,-2.5558,-2.5718,-2.5718,-2.5718,-2.5785,-2.6051,-2.6091,-2.6158,-2.6346,-2.6386,-2.6386,-2.6386,-2.6238,-2.6172,-2.636,-2.6238,-2.6011,-2.5745,-2.5904,-2.585,-2.5462,-2.5464,-2.5424,-2.5197,-2.5155,-2.489,-2.4436,-2.4142,-2.3834,-2.3505,-2.3492,-2.3354,-2.3014,-2.1594,-1.9878,-1.7879,-1.5835,-1.3874,-1.2043,-1.1476,-1.12,-0.9111,-0.9405,-0.9687,-0.9741,-1.0356,0.0,-1.2652,-1.2959,0.0,-1.441,0.0,0.0,0.0,-1.7193,-1.8397,-1.9201,-2.0267,-2.143,-2.2639,-2.28,-2.3148,-2.4035,-2.3901,-2.3897,-2.4168,-2.4222,-2.4115,-2.3857,-2.4048,-2.4102,-2.3884,-2.383,-2.3647,-2.3359,-2.3634,-2.3634,-2.3332,-2.3345,-2.3674,-2.4235,-2.4209,-2.4356,-2.4586,-2.4356,-2.4346,-2.4599,-2.4599,-2.4599,-2.4599,-2.4599,-2.4599,-2.4599,-2.4599,-2.4599,-2.4599,-2.4599,-2.4599,-2.4599,-2.4599,-2.4599,-2.4599,-2.4599,-2.4599,-2.4599,-2.4599,-2.4823,-2.5064,-2.5141,-2.5529,-2.5998,-2.6226,-2.6306,-2.6333,-2.6333,-2.6333,-2.6333,-2.636,-2.636,-2.636,-2.6386,-2.6386,-2.6386,-2.6386,-2.6373,-2.636,-2.6386,-2.6373,-2.6346,-2.6333,-2.6145,-2.6078,-2.6266,-2.5825,-2.5504,-2.5478,-2.5237,-2.5064,-2.5061,-2.4743,-2.4412,-2.4155,-2.4142,-2.3875,-2.3265,-2.3147,-2.2014,-1.9877,-1.7821,-1.5845,-1.3936,-1.2086,-1.12,-0.8925,-0.9593,-1.0439,-1.1146,-1.185,0.0,0.0,-1.3494,-1.4287,-1.5297,-1.5565,0.0,0.0,-1.8556,-1.9706,-2.0151,-2.1162,-2.2071,-2.2525,-2.2773,-2.3094,-2.3594,-2.3567,-2.3541,-2.3612,-2.3821,-2.3808,-2.3514,-2.3594,-2.3688,-2.3803,-2.3442,-2.3362,-2.3594,-2.3375,-2.3247,-2.3292,-2.3292,-2.3399,-2.3625,-2.3848,-2.4088,-2.4369,-2.4249,-2.4369,-2.4586,-2.4412,-2.4439,-2.4599,-2.4599,-2.4599,-2.4599,-2.4599,-2.4599,-2.4599,-2.4599,-2.4599,-2.4626,-2.485,-2.4917,-2.4917,-2.4917,-2.5037,-2.5144,-2.497,-2.5117,-2.5384,-2.561,-2.5824,-2.6024,-2.6131,-2.6292,-2.6386,-2.6386,-2.6386,-2.6386,-2.6386,-2.6386,-2.6386,-2.6386,-2.6386,-2.6386,-2.6386,-2.6386,-2.6386,-2.6386,-2.6386,-2.6319,-2.6185,-2.6225,-2.6238,-2.6172,-2.5957,-2.5824,-2.5824,-2.5358,-2.5115,-2.5115,-2.4796,-2.4466,-2.4209,-2.4209,-2.4008,-2.3607,-2.3607,-2.2631,-2.0604,-1.8535,-1.6601,-1.4705,-1.2567,-1.1579,-0.8925,-0.9806,-1.0905,-1.169,0.0,0.0,-1.3982,-1.4629,-1.5541,-1.6795,-1.7248,-1.7609,-1.8303,0.0,-2.008,-2.0468,-2.1523,-2.2352,-2.2539,-2.2773,-2.3014,-2.3252,-2.3247,-2.322,-2.3278,-2.3514,-2.35,-2.3207,-2.3238,-2.3367,-2.3509,-2.3121,-2.3094,-2.3509,-2.3121,-2.3,-2.318,-2.318,-2.318,-2.318,-2.3487,-2.3781,-2.4062,-2.3968,-2.4142,-2.4452,-2.4289,-2.4332,-2.4599,-2.4599,-2.4599,-2.4599,-2.4599,-2.4599,-2.4599,-2.4599,-2.4599,-2.4626,-2.4863,-2.4997,-2.5115,-2.5115,-2.5277,-2.5478,-2.5277,-2.5424,-2.5692,-2.5944,-2.6065,-2.6158,-2.6238,-2.6306,-2.6386,-2.6386,-2.6386,-2.6386,-2.6386,-2.6386,-2.6386,-2.6386,-2.6386,-2.6386,-2.6386,-2.6386,-2.6386,-2.6386,-2.6386,-2.6319,-2.6158,-2.6305,-2.6319,-2.6158,-2.6131,-2.6131,-2.6131,-2.5558,-2.5224,-2.5224,-2.4813,-2.4506,-2.4342,-2.4342,-2.4209,-2.395,-2.3314,-2.2267,-2.0814,-1.8233,-1.6296,-1.499,-1.286,-1.1904,-0.9204,-1.0098,-1.1022,-1.1052,0.0,0.0,-1.6446,-1.6714,-1.7301,-1.9372,-1.98,-1.972,-1.9455,-1.9401,-1.9602,-2.0104,-2.1216,-2.2224,-2.28,-2.2893,-2.3,-2.3252,-2.3046,-2.2979,-2.3252,-2.3278,-2.3193,-2.292,-2.314,-2.318,-2.292,-2.2893,-2.2893,-2.2893,-2.2893,-2.2893,-2.2893,-2.2893,-2.2893,-2.2893,-2.318,-2.3474,-2.379,-2.346,-2.3612,-2.4209,-2.4195,-2.4369,-2.4599,-2.4599,-2.4599,-2.4599,-2.4599,-2.4599,-2.4599,-2.4599,-2.4599,-2.4599,-2.4599,-2.4836,-2.5077,-2.5077,-2.5277,-2.5518,-2.5518,-2.5718,-2.5998,-2.5998,-2.6212,-2.6453,-2.6747,-2.66,-2.6386,-2.64,-2.64,-2.64,-2.64,-2.64,-2.6386,-2.6386,-2.6386,-2.6386,-2.6386,-2.6386,-2.6386,-2.6386,-2.6386,-2.6386,-2.6386,-2.6386,-2.6386,-2.6386,-2.6386,-2.6386,-2.6386,-2.5852,-2.5518,-2.5518,-2.4933,-2.4613,-2.4599,-2.4599,-2.4466,-2.4172,-2.219,-2.1023,-2.0658,-1.6782,-1.4916,-1.4843,-1.2985,-1.2098,-1.0182,-1.1654,-1.3286,-1.3701,0.0,0.0,0.0,-1.7462,0.0,0.0,-1.984,-2.0298,-1.976,-2.0174,-2.0508,-2.0237,-2.1216,-2.2044,-2.2251,-2.2418,-2.2659,-2.2966,-2.296,-2.2934,-2.3027,-2.2806,-2.2739,-2.2893,-2.2565,-2.2525,-2.288,-2.2659,-2.2645,-2.2893,-2.2893,-2.2893,-2.2893,-2.2893,-2.2893,-2.2893,-2.2987,-2.3166,-2.346,-2.3332,-2.3612,-2.4195,-2.3981,-2.4182,-2.4599,-2.4599,-2.4599,-2.4599,-2.4599,-2.4599,-2.4599,-2.4599,-2.4599,-2.4626,-2.4877,-2.5144,-2.5384,-2.5384,-2.5718,-2.6092,-2.5931,-2.6065,-2.6305,-2.6305,-2.6319,-2.6413,-2.6493,-2.66,-2.6747,-2.7001,-2.7041,-2.7041,-2.7041,-2.6841,-2.6694,-2.6694,-2.6533,-2.6386,-2.6386,-2.6386,-2.6386,-2.6386,-2.6386,-2.6386,-2.6386,-2.6386,-2.6386,-2.6386,-2.6386,-2.6386,-2.6386,-2.6039,-2.5864,-2.5864,-2.5464,-2.5026,-2.4613,-2.3227,-2.2435,-2.2349,-2.0392,-1.9303,-1.9239,-1.6616,-1.5333,-1.5257,-1.3204,-1.2223,-1.0891,-1.2658,0.0,-1.5039,-1.6177,-1.7394,-1.8196,0.0,0.0,0.0,-2.0441,-2.0815,-2.0695,-2.0722,-2.0762,-2.0762,-2.1381,-2.189,-2.201,-2.2138,-2.2311,-2.2532,-2.2546,-2.2546,-2.2546,-2.2352,-2.2325,-2.2532,-2.2224,-2.2171,-2.2532,-2.2338,-2.2378,-2.2672,-2.2686,-2.2773,-2.2893,-2.2893,-2.2893,-2.2893,-2.2893,-2.3,-2.314,-2.314,-2.3407,-2.3848,-2.3794,-2.4035,-2.4426,-2.4426,-2.4492,-2.4599,-2.4599,-2.4599,-2.4599,-2.4599,-2.4599,-2.4626,-2.4836,-2.509,-2.5358,-2.5478,-2.5838,-2.6238,-2.6185,-2.6253,-2.6386,-2.6386,-2.6386,-2.6413,-2.6533,-2.6694,-2.6841,-2.6907,-2.7001,-2.7054,-2.6988,-2.6774,-2.6653,-2.6653,-2.6507,-2.6386,-2.6386,-2.6386,-2.6386,-2.6386,-2.6386,-2.6386,-2.6386,-2.6386,-2.6386,-2.6386,-2.6386,-2.6386,-2.6386,-2.6158,-2.5998,-2.5998,-2.5678,-2.5358,-2.4959,-2.2978,-2.186,-2.1754,-1.8932,-1.7445,-1.736,-1.531,-1.433,-1.4283,-1.2982,-1.2372,-1.1392,-1.3213,-1.512,-1.5521,-1.7141,0.0,-1.9023,-1.9973,-2.09,-2.1261,0.0,-2.1296,-2.1777,-2.1042,-2.0601,-2.1422,-2.1569,-2.1676,-2.1943,-2.1951,-2.1951,-2.201,-2.1991,-2.1991,-2.1991,-2.1997,-2.1951,-2.201,-2.1937,-2.1924,-2.201,-2.1997,-2.2084,-2.2371,-2.2392,-2.2539,-2.2893,-2.2867,-2.2867,-2.2893,-2.2893,-2.2893,-2.2893,-2.2893,-2.3033,-2.3305,-2.3647,-2.3941,-2.4209,-2.4209,-2.4369,-2.4599,-2.4599,-2.4599,-2.4599,-2.4599,-2.4599,-2.4599,-2.4626,-2.4877,-2.517,-2.5464,-2.5758,-2.6091,-2.6306,-2.6386,-2.64,-2.6426,-2.6413,-2.6453,-2.6747,-2.6787,-2.6747,-2.6453,-2.6627,-2.6787,-2.6533,-2.6453,-2.6426,-2.6426,-2.6413,-2.6386,-2.6386,-2.6386,-2.6386,-2.6386,-2.6386,-2.6386,-2.6386,-2.6386,-2.6386,-2.6386,-2.6386,-2.6386,-2.6386,-2.6185,-2.6038,-2.6038,-2.5745,-2.5598,-2.5598,-2.3302,-2.1939,-2.1711,-1.7633,-1.5424,-1.5234,-1.3375,-1.2501,-1.2501,-1.2501,-1.2501,-1.1904,-1.3681,0.0,-1.6807,-1.849,-1.9957,-2.0521,-2.1047,-2.1034,-1.9746,-2.0535,-2.1381,-2.1047,-2.1154,-2.1288,-2.1216,-2.1435,-2.1609,-2.1662,-2.1676,-2.1756,-2.1951,-2.1991,-2.1991,-2.1991,-2.181,-2.177,-2.1964,-2.1563,-2.1496,-2.1964,-2.1796,-2.1917,-2.2371,-2.2205,-2.2372,-2.2893,-2.2632,-2.2632,-2.2893,-2.2893,-2.2893,-2.2893,-2.2893,-2.3033,-2.3305,-2.3647,-2.3941,-2.4209,-2.4209,-2.4369,-2.4599,-2.4599,-2.4599,-2.4599,-2.4599,-2.4599,-2.4639,-2.4903,-2.517,-2.5464,-2.581,-2.6105,-2.6306,-2.6373,-2.6386,-2.644,-2.6667,-2.656,-2.6453,-2.6747,-2.6787,-2.6747,-2.6453,-2.6787,-2.7188,-2.7135,-2.6894,-2.6734,-2.6734,-2.6547,-2.6386,-2.6386,-2.6386,-2.6386,-2.6386,-2.6386,-2.6386,-2.6386,-2.6386,-2.6386,-2.6386,-2.6386,-2.6386,-2.6386,-2.6333,-2.6293,-2.6293,-2.6239,-2.6199,-2.6199,-2.2107,-1.9789,-1.9636,-1.5515,-1.3269,-1.3151,-1.2688,-1.2501,-1.2501,-1.2501,-1.2501,-1.2216,0.0,0.0,-1.7716,0.0,-2.0317,-2.0802,-2.1136,-2.1082,-2.016,-2.0846,-2.1489,-2.1181,-2.1261,-2.1296,-2.1136,-2.1243,-2.1368,-2.1368,-2.1368,-2.139,-2.155,-2.1563,-2.1563,-2.1563,-2.143,-2.1435,-2.155,-2.1283,-2.1243,-2.155,-2.1448,-2.155,-2.1991,-2.189,-2.2024,-2.2465,-2.2285,-2.2365,-2.2645,-2.2645,-2.2726,-2.2893,-2.2893,-2.2987,-2.3113,-2.3308,-2.35,-2.3781,-2.3781,-2.3955,-2.4235,-2.4382,-2.4399,-2.4412,-2.4546,-2.4693,-2.4863,-2.5024,-2.5277,-2.5558,-2.5904,-2.6091,-2.6252,-2.6346,-2.6386,-2.6426,-2.6573,-2.6507,-2.6426,-2.6573,-2.6613,-2.6573,-2.6426,-2.6734,-2.7014,-2.6921,-2.672,-2.6613,-2.6613,-2.6493,-2.6386,-2.6386,-2.6386,-2.6386,-2.6386,-2.6386,-2.6386,-2.6386,-2.6386,-2.6386,-2.6386,-2.6386,-2.6386,-2.6386,-2.6386,-2.6386,-2.6386,-2.6386,-2.5898,-2.484,-2.1402,-1.9441,-1.9213,-1.5027,-1.2732,-1.2501,-1.2501,-1.2501,-1.2501,-1.2501,-1.2501,-1.2033,0.0,-1.5695,-1.8277,-1.9477,0.0,-2.0619,-2.0855,-2.1042,-2.1096,-2.1309,-2.1502,-2.1502,-2.1269,-2.1109,-2.1109,-2.1109,-2.1109,-2.1109,-2.1109,-2.1109,-2.1109,-2.1109,-2.1109,-2.1109,-2.1109,-2.1109,-2.1109,-2.1109,-2.1109,-2.1109,-2.1109,-2.1243,-2.1569,-2.1542,-2.1676,-2.201,-2.1937,-2.2058,-2.2338,-2.2338,-2.2472,-2.2746,-2.28,-2.2853,-2.2893,-2.2893,-2.3033,-2.3292,-2.3292,-2.35,-2.383,-2.4088,-2.4209,-2.4235,-2.4492,-2.4823,-2.5128,-2.5144,-2.5344,-2.5638,-2.5971,-2.6078,-2.6118,-2.6319,-2.6386,-2.64,-2.6453,-2.6426,-2.64,-2.6453,-2.6426,-2.6386,-2.6386,-2.6573,-2.668,-2.644,-2.6386,-2.6386,-2.6386,-2.6426,-2.6453,-2.64,-2.6426,-2.6453,-2.64,-2.6386,-2.6386,-2.6386,-2.6386,-2.6386,-2.6386,-2.6386,-2.6386,-2.6386,-2.6386,-2.6386,-2.6386,-2.6386,-2.5568,-2.3752,-2.1241,-1.9755,-1.9447,-1.5249,-1.2901,-1.2583,-1.2583,-1.2583,-1.2583,-1.2583,-1.2569,-1.0626,0.0,-1.5912,0.0,-1.9212,-1.9722,0.0,0.0,-2.0802,-2.1056,-2.1149,-2.1162,-2.1162,-2.1136,-2.1109,-2.1109,-2.1109,-2.1109,-2.1109,-2.1109,-2.1109,-2.1109,-2.1109,-2.1109,-2.1109,-2.1109,-2.1109,-2.1109,-2.1109,-2.1109,-2.1109,-2.1109,-2.1243,-2.1569,-2.1328,-2.143,-2.1977,-2.177,-2.1783,-2.2044,-2.2044,-2.2071,-2.2144,-2.2365,-2.2619,-2.2893,-2.2893,-2.3033,-2.3292,-2.3292,-2.35,-2.383,-2.4088,-2.4209,-2.4235,-2.4492,-2.4823,-2.5117,-2.5371,-2.5651,-2.5984,-2.6279,-2.6333,-2.6333,-2.6373,-2.6386,-2.644,-2.6694,-2.6587,-2.6453,-2.6694,-2.6573,-2.6386,-2.6386,-2.6413,-2.644,-2.64,-2.6386,-2.6386,-2.6386,-2.6587,-2.668,-2.6426,-2.66,-2.668,-2.6426,-2.6386,-2.6386,-2.6386,-2.6386,-2.6386,-2.6386,-2.6386,-2.6386,-2.6386,-2.6386,-2.6386,-2.6386,-2.6386,-2.6268,-2.5977,-2.2046,-1.9826,-1.9652,-1.5384,-1.3105,-1.2941,-1.2941,-1.2941,-1.2941,-1.2941,-1.2827,-1.0675,-1.3072,-1.5548,0.0,-1.829,-1.9265,-1.9843,-2.0187,-2.0468,-2.0557,-2.0584,-2.0691,-2.1042,-2.1109,-2.1109,-2.1109,-2.1109,-2.1109,-2.1109,-2.1109,-2.1109,-2.1109,-2.1109,-2.1109,-2.1109,-2.1109,-2.1109,-2.1109,-2.1109,-2.1109,-2.1109,-2.1109,-2.1162,-2.1328,-2.1176,-2.1229,-2.1496,-2.1363,-2.1489,-2.1783,-2.1943,-2.2071,-2.2231,-2.2365,-2.2485,-2.2619,-2.2827,-2.2974,-2.3073,-2.3073,-2.314,-2.3348,-2.3817,-2.3968,-2.4022,-2.4439,-2.4823,-2.5141,-2.5224,-2.5571,-2.6011,-2.6145,-2.6292,-2.6386,-2.6386,-2.6386,-2.6413,-2.6547,-2.6493,-2.6413,-2.6547,-2.6493,-2.6386,-2.6386,-2.6386,-2.6386,-2.6386,-2.6386,-2.6386,-2.6386,-2.6493,-2.6547,-2.6413,-2.6493,-2.6533,-2.6413,-2.6386,-2.6386,-2.6386,-2.6386,-2.6386,-2.6386,-2.6386,-2.6386,-2.6386,-2.6386,-2.6386,-2.6386,-2.6386,-2.5858,-2.4602,-2.1563,-1.929,-1.798,-1.4822,-1.3146,-1.3003,-1.3003,-1.3003,-1.3003,-1.3003,-1.2874,0.0,0.0,-1.441,-1.5748,-1.7101,-1.8303,0.0,-1.9586,-1.993,-2.0157,-2.0197,-2.0344,-2.0771,-2.0851,-2.0909,-2.0989,-2.0935,-2.0904,-2.1082,-2.1042,-2.1029,-2.1096,-2.1109,-2.1109,-2.1109,-2.1109,-2.1109,-2.1109,-2.1109,-2.1109,-2.1109,-2.1109,-2.1109,-2.1109,-2.1109,-2.1109,-2.1109,-2.1109,-2.1216,-2.1475,-2.1689,-2.1871,-2.2051,-2.2245,-2.2311,-2.2325,-2.2733,-2.2893,-2.2893,-2.2893,-2.2893,-2.296,-2.3576,-2.3803,-2.387,-2.4386,-2.4823,-2.5115,-2.5115,-2.5449,-2.5891,-2.5971,-2.6145,-2.6293,-2.6373,-2.6386,-2.6386,-2.6386,-2.6386,-2.6386,-2.6386,-2.6386,-2.6386,-2.6386,-2.6386,-2.6386,-2.6386,-2.6386,-2.6386,-2.6386,-2.6453,-2.648,-2.64,-2.6453,-2.648,-2.64,-2.6386,-2.6386,-2.6386,-2.6386,-2.6386,-2.6386,-2.6386,-2.6386,-2.6386,-2.6386,-2.6386,-2.6386,-2.6386,-2.566,-2.3991,-2.1321,-1.9136,-1.7465,-1.4661,-1.322,-1.3111,-1.3111,-1.3111,-1.3111,-1.3111,-1.299,0.0,-1.1303,0.0,-1.4803,-1.5725,-1.6488,0.0,-1.8943,-1.9196,-2.0037,-2.0197,-2.021,-2.0237,-2.025,-2.0344,-2.0686,-2.0454,-2.0437,-2.1029,-2.0869,-2.0833,-2.1082,-2.1109,-2.1109,-2.1109,-2.1109,-2.1109,-2.1109,-2.1109,-2.1109,-2.1109,-2.1109,-2.1109,-2.1109,-2.1109,-2.1109,-2.1109,-2.1109,-2.1122,-2.1136,-2.1149,-2.1162,-2.1203,-2.175,-2.2004,-2.2044,-2.2653,-2.2893,-2.2893,-2.2893,-2.2893,-2.296,-2.3576,-2.3803,-2.387,-2.4386,-2.4823,-2.5115,-2.5115,-2.5277,-2.5585,-2.5904,-2.6011,-2.6065,-2.6306,-2.6386,-2.6386,-2.6386,-2.6386,-2.6386,-2.6386,-2.6386,-2.6386,-2.6386,-2.6386,-2.6386,-2.6386,-2.6386,-2.6386,-2.6386,-2.6613,-2.6707,-2.644,-2.6613,-2.6707,-2.6426,-2.6386,-2.6386,-2.6386,-2.6386,-2.6386,-2.6386,-2.6386,-2.6386,-2.6386,-2.6386,-2.6386,-2.6386,-2.6386,-2.6347,-2.6228,-2.2137,-1.9866,-1.9745,-1.5555,-1.3383,-1.3376,-1.3376,-1.3376,-1.3376,-1.3376,-1.3295,0.0,0.0,0.0,-1.2872,-1.3942,-1.495,-1.5861,-1.6795,-1.7595,-1.7876,-1.8584,-1.9172,-1.933,-1.9823,-2.0237,-2.0374,-2.0277,-2.0277,-2.049,-2.0424,-2.0397,-2.0504,-2.0517,-2.0615,-2.0815,-2.0828,-2.0909,-2.1096,-2.1109,-2.1109,-2.1109,-2.1109,-2.1109,-2.1109,-2.1109,-2.1109,-2.1109,-2.1109,-2.1109,-2.1109,-2.1109,-2.1203,-2.1435,-2.1804,-2.2084,-2.2285,-2.2719,-2.2893,-2.2893,-2.2893,-2.2893,-2.2934,-2.3327,-2.3607,-2.3857,-2.4209,-2.4543,-2.4796,-2.4796,-2.4983,-2.5251,-2.5396,-2.569,-2.6011,-2.6118,-2.6239,-2.6386,-2.6386,-2.6386,-2.6386,-2.6386,-2.6386,-2.6386,-2.6386,-2.6386,-2.6386,-2.6386,-2.6386,-2.6386,-2.6386,-2.6466,-2.6507,-2.6413,-2.648,-2.6573,-2.6653,-2.6507,-2.6453,-2.664,-2.6507,-2.6386,-2.6386,-2.6386,-2.6386,-2.6386,-2.6386,-2.6386,-2.6386,-2.6386,-2.5779,-2.435,-2.1543,-1.9303,-1.7792,-1.4976,-1.3498,-1.3403,-1.3403,-1.3403,-1.3403,-1.3403,-1.3315,-0.9204,0.0,0.0,0.0,-1.2465,-1.34,-1.4188,-1.5351,-1.6353,-1.6647,-1.7582,-1.8424,-1.8703,-1.9223,-1.9746,-2.001,-1.997,-1.9983,-2.017,-2.0117,-2.009,-2.0197,-2.0197,-2.0317,-2.0672,-2.0588,-2.0695,-2.1082,-2.1015,-2.1002,-2.1109,-2.1109,-2.1109,-2.1109,-2.1109,-2.1109,-2.1109,-2.1109,-2.1109,-2.1109,-2.1109,-2.1216,-2.1448,-2.1743,-2.2004,-2.2285,-2.2592,-2.28,-2.2893,-2.2893,-2.2893,-2.2934,-2.3313,-2.3594,-2.3857,-2.4209,-2.4439,-2.4599,-2.4599,-2.477,-2.4943,-2.505,-2.5411,-2.5864,-2.5971,-2.6198,-2.6386,-2.6386,-2.6386,-2.6386,-2.6386,-2.6386,-2.6386,-2.6386,-2.6386,-2.6386,-2.6386,-2.6386,-2.6386,-2.6386,-2.6386,-2.6426,-2.652,-2.6533,-2.664,-2.6921,-2.6814,-2.672,-2.6774,-2.6653,-2.6493,-2.64,-2.648,-2.6493,-2.64,-2.6573,-2.664,-2.6547,-2.6627,-2.5693,-2.3439,-2.1372,-1.9145,-1.68,-1.4678,-1.358,-1.3478,-1.3424,-1.3403,-1.3403,-1.3403,-1.3315,0.0,0.0,0.0,0.0,-1.1379,-1.1846,-1.3627,-1.4705,-1.5565,-1.6473,-1.7329,-1.8049,-1.8397,-1.8464,-1.8744,-1.9613,-1.9562,-1.9589,-2.0104,-1.993,-1.9893,-2.0144,-2.0184,-2.029,-2.0646,-2.0388,-2.0437,-2.1056,-2.0828,-2.0802,-2.1096,-2.1109,-2.1109,-2.1109,-2.1109,-2.1109,-2.1109,-2.1109,-2.1109,-2.1109,-2.1109,-2.1109,-2.1122,-2.1448,-2.1743,-2.1991,-2.2285,-2.2579,-2.288,-2.2893,-2.2893,-2.296,-2.3562,-2.3803,-2.387,-2.4372,-2.4586,-2.4599,-2.4599,-2.4599,-2.4653,-2.497,-2.5264,-2.5558,-2.5891,-2.6185,-2.6373,-2.6386,-2.6386,-2.6386,-2.6386,-2.6386,-2.6386,-2.6386,-2.6386,-2.6386,-2.6386,-2.6386,-2.6386,-2.6386,-2.6386,-2.648,-2.6734,-2.6787,-2.6921,-2.7269,-2.7309,-2.7202,-2.6881,-2.68,-2.6734,-2.644,-2.6667,-2.672,-2.644,-2.6974,-2.7148,-2.6854,-2.7108,-2.6218,-2.3791,-2.1703,-1.9474,-1.7053,-1.4753,-1.3592,-1.3585,-1.3478,-1.3403,-1.3403,-1.3403,-1.3322,-0.9204,0.0,0.0,0.0,0.0,0.0,-1.2243,-1.2845,-1.3601,-1.5146,-1.5818,-1.6473,-1.7648,-1.7862,-1.8063,-1.8744,-1.8958,-1.9172,-1.9589,-1.9562,-1.9548,-1.9599,-1.9599,-1.972,-2.0013,-1.9973,-2.016,-2.0779,-2.0521,-2.0544,-2.1082,-2.1109,-2.1109,-2.1109,-2.1109,-2.1109,-2.1109,-2.1109,-2.1109,-2.1109,-2.1109,-2.1109,-2.1122,-2.1448,-2.1622,-2.1729,-2.2205,-2.2472,-2.2565,-2.2813,-2.2893,-2.2934,-2.33,-2.3581,-2.3843,-2.4182,-2.4412,-2.4599,-2.4599,-2.4599,-2.4613,-2.4693,-2.4957,-2.5251,-2.5545,-2.5838,-2.6158,-2.6333,-2.6386,-2.6386,-2.6386,-2.6386,-2.6386,-2.6386,-2.6386,-2.6386,-2.6386,-2.6386,-2.6386,-2.6386,-2.6386,-2.648,-2.6734,-2.6787,-2.6987,-2.7509,-2.7443,-2.7349,-2.7442,-2.7268,-2.7108,-2.7068,-2.7135,-2.7108,-2.7068,-2.7215,-2.7269,-2.7188,-2.7269,-2.5536,-2.165,-2.1011,-1.8821,-1.4771,-1.4095,-1.3687,-1.3585,-1.3478,-1.3403,-1.3403,-1.3403,-1.3376,0.0,0.0,0.0,0.0,0.0,0.0,-1.1216,-1.1761,-1.2577,-1.4095,-1.4549,-1.507,-1.642,-1.6473,-1.654,-1.7261,-1.7729,-1.8277,-1.9065,-1.9185,-1.9225,-1.9388,-1.9401,-1.9508,-1.9773,-1.9693,-1.9867,-2.0454,-2.0214,-2.0307,-2.0895,-2.1042,-2.1109,-2.1109,-2.1109,-2.1109,-2.1109,-2.1109,-2.1109,-2.1109,-2.1109,-2.1109,-2.1122,-2.1296,-2.1462,-2.1609,-2.2044,-2.2311,-2.2445,-2.2773,-2.2893,-2.2934,-2.334,-2.3621,-2.3857,-2.4235,-2.4452,-2.4599,-2.4599,-2.4599,-2.4599,-2.4599,-2.4836,-2.513,-2.5424,-2.5718,-2.6051,-2.6306,-2.6386,-2.6386,-2.6386,-2.6386,-2.6386,-2.6386,-2.6386,-2.6386,-2.6386,-2.6386,-2.6386,-2.6386,-2.6386,-2.652,-2.6934,-2.7001,-2.7201,-2.7844,-2.7777,-2.7684,-2.7696,-2.7549,-2.7443,-2.7322,-2.7416,-2.7443,-2.7322,-2.7536,-2.7617,-2.7496,-2.7603,-2.5624,-2.1049,-2.0867,-1.8709,-1.4026,-1.3774,-1.3639,-1.3532,-1.3444,-1.3403,-1.3403,-1.3403,-1.3403,0.0,0.0,0.0,0.0,-1.0179,0.0,-1.0667,-1.1296,-1.2149,-1.3347,-1.3493,-1.3807,-1.507,-1.4843,-1.4741,-1.5608,-1.6248,-1.7168,-1.8596,-1.8823,-1.8985,-1.9308,-1.9348,-1.9455,-1.972,-1.9548,-1.9629,-2.0117,-2.0,-2.0094,-2.0561,-2.0922,-2.1096,-2.1069,-2.1096,-2.1109,-2.1109,-2.1109,-2.1109,-2.1109,-2.1109,-2.1109,-2.1109,-2.1109,-2.1256,-2.1555,-2.185,-2.2098,-2.2392,-2.2719,-2.2867,-2.296,-2.3536,-2.3777,-2.387,-2.4382,-2.4572,-2.4599,-2.4599,-2.4599,-2.4599,-2.4599,-2.481,-2.509,-2.5411,-2.5678,-2.5971,-2.6253,-2.636,-2.6386,-2.6386,-2.6386,-2.6386,-2.6386,-2.6386,-2.6386,-2.6386,-2.6386,-2.6386,-2.6386,-2.6413,-2.6613,-2.7215,-2.7336,-2.755,-2.8098,-2.8179,-2.8085,-2.7789,-2.7749,-2.7642,-2.7429,-2.7589,-2.7642,-2.7429,-2.7884,-2.8072,-2.7762,-2.778,-2.5829,-2.1353,-2.0818,-1.854,-1.4128,-1.377,-1.3511,-1.3403,-1.3403,-1.3403,-1.3403,-1.3403,-1.3403,0.0,0.0,0.0,0.0,-1.0664,0.0,-1.1524,-1.14,-1.1637,-1.3267,-1.286,-1.2719,-1.4367,-1.4402,-1.4456,-1.5337,-1.5965,-1.6794,-1.8009,-1.8396,-1.8677,-1.8943,-1.9011,-1.9132,-1.9455,-1.9428,-1.9535,-1.9853,-2.0267,-2.0347,-1.9987,-2.0695,-2.1002,-2.0762,-2.0989,-2.1109,-2.1109,-2.1109,-2.1109,-2.1109,-2.1109,-2.1109,-2.1109,-2.1109,-2.1149,-2.1216,-2.1542,-2.1836,-2.2098,-2.2378,-2.2645,-2.2934,-2.3273,-2.3554,-2.3843,-2.4155,-2.4399,-2.4599,-2.4599,-2.4599,-2.4599,-2.4599,-2.4639,-2.4786,-2.5358,-2.5384,-2.5396,-2.5931,-2.6252,-2.6386,-2.6386,-2.6386,-2.6386,-2.6386,-2.6386,-2.6386,-2.6386,-2.6386,-2.6386,-2.6386,-2.6573,-2.6854,-2.7242,-2.7455,-2.7736,-2.8138,-2.8179,-2.8165,-2.8112,-2.8098,-2.8072,-2.8018,-2.8058,-2.8072,-2.8018,-2.8125,-2.8165,-2.8098,-2.6381,-2.4074,-2.1171,-1.921,-1.6824,-1.3928,-1.3673,-1.3511,-1.3403,-1.3403,-1.3403,-1.3403,-1.3403,-1.3403,0.0,0.0,0.0,-1.0717,0.0,0.0,0.0,-1.1106,-1.1213,-1.2646,-1.2056,-1.1681,-1.3146,-1.2933,-1.2826,-1.3707,-1.4362,-1.5164,-1.6339,-1.7502,-1.8356,-1.8677,-1.8704,-1.8824,-1.9118,-1.9145,-1.9265,-1.9589,-1.9987,-2.0107,-1.9813,-2.0494,-2.0828,-2.0712,-2.0962,-2.1109,-2.1109,-2.1109,-2.1109,-2.1109,-2.1109,-2.1109,-2.1109,-2.1109,-2.1109,-2.1136,-2.1609,-2.189,-2.2017,-2.2458,-2.276,-2.2934,-2.3207,-2.3514,-2.3843,-2.4102,-2.4382,-2.4599,-2.4599,-2.4599,-2.4599,-2.4599,-2.4599,-2.4706,-2.5331,-2.5611,-2.5798,-2.6131,-2.6319,-2.6386,-2.6386,-2.6386,-2.6386,-2.6386,-2.6386,-2.6426,-2.6573,-2.6493,-2.6426,-2.6573,-2.672,-2.6867,-2.7014,-2.7295,-2.7575,-2.7924,-2.8085,-2.8179,-2.8179,-2.8179,-2.8179,-2.8179,-2.8179,-2.8179,-2.8179,-2.8179,-2.7701,-2.6546,-2.5295,-2.3035,-1.9546,-1.8031,-1.6116,-1.3663,-1.3511,-1.3478,-1.3403,-1.3403,-1.3403,-1.3403,-1.3403,-1.3403,0.0,0.0,0.0,0.0,0.0,-1.0868,0.0,0.0,0.0,-1.185,-1.1279,-1.0921,-1.1944,-1.1503,-1.1223,-1.1931,-1.2705,-1.352,-1.4459,-1.6219,-1.7596,-1.809,-1.7996,-1.8116,-1.8663,-1.8823,-1.9025,-1.9294,-1.9599,-1.9773,-1.972,-2.0267,-2.0588,-2.0588,-2.0869,-2.1056,-2.1109,-2.1109,-2.1109,-2.1109,-2.1109,-2.1109,-2.1109,-2.1109,-2.1109,-2.1136,-2.1617,-2.1884,-2.205,-2.2532,-2.28,-2.292,-2.314,-2.342,-2.3728,-2.4008,-2.4302,-2.4519,-2.4586,-2.4599,-2.4599,-2.4599,-2.4639,-2.4773,-2.5291,-2.5838,-2.6306,-2.6306,-2.6346,-2.6386,-2.6386,-2.6426,-2.6453,-2.64,-2.6426,-2.652,-2.6694,-2.656,-2.6453,-2.6694,-2.6734,-2.676,-2.6774,-2.7068,-2.7389,-2.7575,-2.7857,-2.8031,-2.8098,-2.8098,-2.8098,-2.8098,-2.8098,-2.8098,-2.8098,-2.7664,-2.6639,-2.4791,-2.3732,-2.1502,-1.7862,-1.6892,-1.5518,-1.3527,-1.3458,-1.3458,-1.3485,-1.3458,-1.3431,-1.3403,-1.3403,-1.3403,0.0,0.0,0.0,0.0,-1.1373,0.0,-1.0814,0.0,-1.0982,-1.1116,0.0,-1.0771,-1.1392,0.0,0.0,-1.1129,-1.2305,-1.316,-1.3052,-1.4378,-1.5735,-1.678,-1.6219,-1.638,-1.7969,-1.8583,-1.8916,-1.8943,-1.9492,-1.9693,-1.9455,-1.996,-2.025,-2.025,-2.0575,-2.0855,-2.1109,-2.1109,-2.1109,-2.1109,-2.1109,-2.1109,-2.1109,-2.1109,-2.1109,-2.1109,-2.1176,-2.151,-2.2024,-2.2058,-2.2425,-2.2893,-2.2934,-2.31,-2.3407,-2.3714,-2.4008,-2.4289,-2.4506,-2.4599,-2.4599,-2.4599,-2.481,-2.5037,-2.5104,-2.5583,-2.6051,-2.6051,-2.6225,-2.6386,-2.6386,-2.6587,-2.6707,-2.6453,-2.6587,-2.6707,-2.6493,-2.6413,-2.64,-2.6426,-2.644,-2.652,-2.6774,-2.7068,-2.7322,-2.7349,-2.7389,-2.7496,-2.7709,-2.7749,-2.7749,-2.7749,-2.7749,-2.7749,-2.7749,-2.5832,-2.4645,-2.4507,-2.061,-1.8016,-1.7366,-1.5183,-1.3928,-1.3747,-1.3626,-1.3619,-1.3747,-1.3619,-1.3532,-1.3403,-1.3403,-1.3403,0.0,0.0,0.0,0.0,0.0,0.0,-1.1025,0.0,-1.0811,-1.0972,0.0,0.0,0.0,0.0,0.0,0.0,-1.1753,-1.2305,-1.2749,-1.3025,-1.3842,-1.5521,-1.5387,-1.5722,-1.7102,-1.7462,-1.7702,-1.7903,-1.8437,-1.8637,-1.8371,-1.9225,-1.9813,-1.9943,-2.0428,-2.0766,-2.0855,-2.1029,-2.1109,-2.1109,-2.1109,-2.1109,-2.1109,-2.1109,-2.1109,-2.1122,-2.1328,-2.1636,-2.2004,-2.2164,-2.2485,-2.2893,-2.2893,-2.3046,-2.3305,-2.3474,-2.3808,-2.4222,-2.4342,-2.4452,-2.4599,-2.4599,-2.4836,-2.5115,-2.5115,-2.5371,-2.5732,-2.5944,-2.6078,-2.6212,-2.6346,-2.648,-2.6547,-2.6413,-2.648,-2.6587,-2.6627,-2.664,-2.664,-2.664,-2.664,-2.6627,-2.6587,-2.6814,-2.7001,-2.7001,-2.7202,-2.7349,-2.7428,-2.7589,-2.7629,-2.7468,-2.7602,-2.7142,-2.5782,-2.4765,-2.3168,-2.0769,-1.748,-1.5509,-1.5283,-1.4379,-1.3871,-1.3795,-1.3741,-1.3741,-1.3795,-1.3653,-1.3599,-1.3612,-1.3531,-1.3532,-1.3807,0.0,0.0,0.0,0.0,0.0,0.0,0.0,0.0,0.0,-1.0905,0.0,0.0,0.0,0.0,0.0,0.0,-1.1717,-1.2234,-1.2074,-1.2583,-1.441,-1.4839,-1.5294,-1.6032,-1.6393,-1.6647,-1.6805,-1.7248,-1.7515,-1.7488,-1.8384,-1.916,-1.9666,-2.0254,-2.0601,-2.0712,-2.0962,-2.1109,-2.1109,-2.1109,-2.1109,-2.1109,-2.1109,-2.1109,-2.1122,-2.1368,-2.1676,-2.2004,-2.2218,-2.2525,-2.2893,-2.2893,-2.3041,-2.3207,-2.3265,-2.3594,-2.3995,-2.4142,-2.4396,-2.4599,-2.4599,-2.4836,-2.509,-2.517,-2.5398,-2.5692,-2.6024,-2.6118,-2.6158,-2.6333,-2.6453,-2.6493,-2.6413,-2.6453,-2.6547,-2.668,-2.6707,-2.6707,-2.6707,-2.6707,-2.664,-2.6426,-2.656,-2.6707,-2.6707,-2.6894,-2.7095,-2.7134,-2.7402,-2.7468,-2.7175,-2.6933,-2.6008,-2.4239,-2.2983,-2.0745,-1.7034,-1.5184,-1.4136,-1.3869,-1.4014,-1.4041,-1.3923,-1.3883,-1.3883,-1.3923,-1.3781,-1.3804,-1.3899,-1.3673,-1.3605,0.0,0.0,0.0,-1.4461,0.0,0.0,0.0,0.0,-1.0982,0.0,0.0,0.0,0.0,0.0,0.0,0.0,0.0,0.0,0.0,-1.1534,-1.2318,-1.3507,-1.4442,-1.4892,-1.4594,-1.5618,-1.6166,-1.5861,-1.6152,-1.6591,-1.7192,-1.7488,-1.8197,-1.9374,-1.9947,-2.0388,-2.0699,-2.0962,-2.1109,-2.1109,-2.1109,-2.1109,-2.1109,-2.1109,-2.1109,-2.1109,-2.1122,-2.1456,-2.1991,-2.1991,-2.2372,-2.2893,-2.2893,-2.2907,-2.2947,-2.322,-2.3305,-2.3399,-2.4008,-2.4396,-2.4599,-2.4599,-2.4836,-2.513,-2.5411,-2.5705,-2.6038,-2.6293,-2.6373,-2.6373,-2.6386,-2.66,-2.6734,-2.6453,-2.66,-2.6734,-2.6466,-2.64,-2.64,-2.64,-2.64,-2.64,-2.6386,-2.64,-2.64,-2.64,-2.6413,-2.652,-2.676,-2.7094,-2.7202,-2.6867,-2.5293,-2.4197,-2.3826,-1.9962,-1.6588,-1.438,-1.4169,-1.4119,-1.4105,-1.4112,-1.4136,-1.4285,-1.4143,-1.4136,-1.4285,-1.4129,-1.4105,-1.4098,-1.3763,-1.366,-1.6241,-1.607,-1.5725,-1.5925,-1.4856,-1.3561,0.0,0.0,0.0,0.0,0.0,0.0,0.0,0.0,0.0,0.0,0.0,0.0,0.0,-1.157,-1.1797,-1.2398,-1.3119,-1.3735,-1.4188,-1.4394,-1.4554,-1.4669,-1.495,-1.5364,-1.5989,-1.6846,-1.7862,-1.9038,-1.9797,-2.025,-2.0374,-2.0869,-2.1109,-2.1109,-2.1109,-2.1109,-2.1109,-2.1109,-2.1109,-2.1109,-2.1109,-2.1443,-2.1991,-2.1991,-2.2372,-2.2893,-2.2893,-2.2893,-2.2907,-2.3014,-2.3153,-2.3372,-2.3995,-2.4262,-2.4346,-2.4532,-2.4666,-2.4836,-2.513,-2.5304,-2.5516,-2.6011,-2.6145,-2.6185,-2.6333,-2.6466,-2.6507,-2.6413,-2.6466,-2.6507,-2.6413,-2.6547,-2.6613,-2.6426,-2.6547,-2.6613,-2.6426,-2.6386,-2.6386,-2.6386,-2.6386,-2.6493,-2.6787,-2.7081,-2.7269,-2.7121,-2.5363,-2.3542,-2.1937,-1.7819,-1.5001,-1.4268,-1.4224,-1.4224,-1.4224,-1.4224,-1.4245,-1.4299,-1.4251,-1.4251,-1.4299,-1.4193,-1.4166,-1.4217,-1.4014,-1.3946,-1.7127,-1.6899,-1.6551,-1.6914,-1.5832,-1.4536,-1.3996,-1.316,-1.246,0.0,0.0,0.0,0.0,0.0,0.0,0.0,0.0,0.0,0.0,-1.173,-1.1713,-1.1717,-1.2243,-1.2891,-1.3567,-1.3534,-1.346,-1.3454,-1.3721,-1.4282,-1.5213,-1.6177,-1.7328,-1.8703,-1.969,-2.0197,-2.0197,-2.0784,-2.1109,-2.1109,-2.1109,-2.1109,-2.1109,-2.1109,-2.1109,-2.1109,-2.1109,-2.1443,-2.1991,-2.1991,-2.2372,-2.2893,-2.2893,-2.2893,-2.2893,-2.2893,-2.3161,-2.3541,-2.3915,-2.4182,-2.4382,-2.4532,-2.4666,-2.485,-2.5144,-2.5342,-2.5489,-2.5757,-2.5984,-2.6145,-2.6079,-2.6226,-2.6386,-2.6386,-2.6386,-2.6386,-2.6386,-2.6533,-2.6613,-2.6426,-2.6547,-2.6613,-2.6426,-2.6386,-2.6386,-2.6386,-2.648,-2.6613,-2.68,-2.7175,-2.7088,-2.6149,-2.4305,-2.1863,-1.8743,-1.5885,-1.4299,-1.4299,-1.4299,-1.4299,-1.4299,-1.4299,-1.4346,-1.4455,-1.4353,-1.4353,-1.4455,-1.4251,-1.4204,-1.4299,-1.4197,-1.415]},{"header":{"parameterUnit":"m.s-1","parameterCategory":1,"la1":30.6,"la2":29.2853,"lo1":-89.7004,"lo2":-87.6739,"dy":0.0162,"dx":0.0183,"nx":112,"ny":82,"refTime":"2023-10-21T06:00:00:Z","depth":0,"parameterNumber":3,"parameterNumberName":"V-component_of_WINDS"},"data":[0.0,0.0,0.0,0.0,0.0,0.0,0.0,0.0,0.0,0.0,0.0,0.0,0.0,0.0,0.0,0.0,0.0,0.0,0.0,0.0,0.0,0.0,0.0,0.0,0.0,0.0,0.0,0.0,0.0,0.0,0.0,0.0,0.0,0.0,0.0,0.0,0.0,0.0,0.0,0.0,0.0,0.0,0.0,0.0,0.0,0.0,0.0,0.0,0.0,0.0,0.0,0.0,0.0,0.0,0.0,0.0,0.0,0.0,0.0,0.0,0.0,0.0,0.0,0.0,0.0,0.0,0.0,0.0,0.0,0.0,0.0,0.0,0.0,0.0,0.0,0.0,0.0,0.0,0.0,0.0,0.0,0.0,0.0,0.0,0.0,0.0,0.0,0.0,0.0,0.0,3.1289,3.6289,4.2266,4.5703,4.5234,4.4023,4.0893,3.5247,0.0,0.0,0.0,0.0,0.0,0.0,0.0,0.0,0.0,0.0,0.0,0.0,0.0,0.0,0.0,0.0,0.0,0.0,0.0,0.0,0.0,0.0,0.0,0.0,0.0,0.0,0.0,0.0,0.0,0.0,0.0,0.0,0.0,0.0,0.0,0.0,0.0,0.0,0.0,0.0,0.0,0.0,0.0,0.0,0.0,0.0,0.0,0.0,0.0,0.0,0.0,0.0,0.0,0.0,0.0,0.0,0.0,0.0,0.0,0.0,0.0,0.0,0.0,0.0,0.0,0.0,0.0,0.0,0.0,0.0,0.0,0.0,0.0,0.0,0.0,0.0,0.0,0.0,0.0,0.0,0.0,0.0,0.0,0.0,0.0,0.0,0.0,0.0,0.0,0.0,0.0,0.0,0.0,0.0,0.0,0.0,0.0,0.0,0.0,0.0,0.0,0.0,0.0,0.0,3.1562,3.957,4.2617,4.4648,4.5976,4.332,4.0189,3.6917,0.0,0.0,0.0,0.0,0.0,0.0,0.0,0.0,0.0,0.0,0.0,0.0,0.0,0.0,0.0,0.0,0.0,0.0,0.0,0.0,0.0,0.0,0.0,0.0,0.0,0.0,0.0,0.0,0.0,0.0,0.0,0.0,0.0,0.0,0.0,0.0,0.0,0.0,0.0,0.0,0.0,0.0,0.0,0.0,0.0,0.0,0.0,0.0,0.0,0.0,0.0,0.0,0.0,0.0,0.0,0.0,0.0,0.0,0.0,0.0,0.0,0.0,0.0,0.0,0.0,0.0,0.0,0.0,0.0,0.0,0.0,0.0,0.0,0.0,0.0,0.0,0.0,0.0,0.0,0.0,0.0,0.0,0.0,0.0,0.0,0.0,0.0,0.0,0.0,0.0,0.0,0.0,0.0,0.0,0.0,0.0,0.0,0.0,0.0,0.0,0.0,0.0,0.0,2.9648,3.4375,4.1133,4.2969,4.4219,4.5508,4.2461,3.9135,3.5907,3.2469,0.0,0.0,0.0,0.0,0.0,0.0,0.0,0.0,0.0,0.0,0.0,0.0,0.0,0.0,0.0,0.0,0.0,0.0,0.0,0.0,0.0,0.0,0.0,0.0,0.0,0.0,0.0,0.0,0.0,0.0,0.0,0.0,0.0,0.0,0.0,0.0,0.0,0.0,0.0,0.0,0.0,0.0,0.0,0.0,0.0,0.0,0.0,0.0,0.0,0.0,0.0,0.0,0.0,0.0,0.0,0.0,0.0,0.0,0.0,0.0,0.0,0.0,0.0,0.0,0.0,0.0,0.0,0.0,0.0,0.0,0.0,0.0,0.0,0.0,0.0,0.0,0.0,0.0,0.0,0.0,0.0,0.0,0.0,0.0,0.0,0.0,0.0,0.0,0.0,0.0,0.0,0.0,0.0,0.0,0.0,0.0,0.0,0.0,0.0,0.0,0.0,0.0,3.2891,3.6914,4.1875,4.3164,4.3984,4.4648,4.1562,3.8121,3.4755,3.0913,0.0,0.0,0.0,0.0,0.0,0.0,0.0,0.0,0.0,0.0,0.0,0.0,0.0,0.0,0.0,0.0,0.0,0.0,0.0,0.0,0.0,0.0,0.0,0.0,0.0,0.0,0.0,0.0,0.0,0.0,0.0,0.0,0.0,0.0,0.0,0.0,0.0,0.0,0.0,0.0,0.0,0.0,0.0,0.0,0.0,0.0,0.0,0.0,0.0,0.0,0.0,0.0,0.0,0.0,0.0,0.0,0.0,0.0,0.0,0.0,0.0,0.0,0.0,0.0,0.0,0.0,0.0,0.0,0.0,0.0,0.0,0.0,0.0,0.0,0.0,0.0,0.0,0.0,0.0,0.0,0.0,0.0,0.0,0.0,0.0,0.0,0.0,0.0,0.0,0.0,0.0,0.0,0.0,0.0,0.0,0.0,0.0,0.0,0.0,0.0,0.0,0.0,3.3789,3.7578,4.1953,4.3164,4.3711,4.3789,4.0664,3.7538,3.4787,2.9796,0.0,0.0,0.0,0.0,0.0,0.0,0.0,0.0,0.0,0.0,0.0,0.0,0.0,0.0,0.0,0.0,0.0,0.0,0.0,0.0,0.0,0.0,0.0,0.0,0.0,0.0,0.0,0.0,0.0,0.0,0.0,0.0,0.0,0.0,0.0,0.0,0.0,0.0,0.0,0.0,0.0,0.0,0.0,0.0,0.0,0.0,0.0,0.0,0.0,0.0,0.0,0.0,0.0,0.0,0.0,0.0,0.0,0.0,0.0,0.0,0.0,0.0,0.0,0.0,0.0,0.0,0.0,0.0,0.0,0.0,0.0,0.0,0.0,0.0,0.0,0.0,0.0,0.0,0.0,0.0,0.0,0.0,0.0,0.0,0.0,0.0,0.0,0.0,0.0,0.0,0.0,0.0,0.0,0.0,0.0,0.0,0.0,0.0,0.0,0.0,0.0,0.0,3.3086,3.6836,4.1172,4.1953,4.2148,4.2148,3.9961,3.6991,3.3265,0.0,0.0,0.0,0.0,0.0,0.0,0.0,0.0,0.0,0.0,0.0,0.0,0.0,0.0,0.0,0.0,0.0,0.0,0.0,0.0,0.0,0.0,0.0,0.0,0.0,0.0,0.0,0.0,0.0,0.0,0.0,0.0,0.0,0.0,0.0,0.0,0.0,0.0,0.0,0.0,0.0,0.0,0.0,0.0,0.0,0.0,0.0,0.0,0.0,0.0,0.0,0.0,0.0,0.0,0.0,0.0,0.0,0.0,0.0,0.0,0.0,0.0,0.0,0.0,0.0,0.0,0.0,0.0,0.0,0.0,0.0,0.0,0.0,0.0,0.0,0.0,0.0,0.0,0.0,0.0,0.0,0.0,0.0,0.0,0.0,0.0,0.0,0.0,0.0,0.0,0.0,0.0,0.0,0.0,0.0,0.0,0.0,0.0,0.0,0.0,0.0,0.0,2.9609,3.3008,3.6562,4.0391,4.1016,4.1094,4.082,3.918,3.6445,3.2375,0.0,0.0,0.0,0.0,0.0,0.0,0.0,0.0,0.0,0.0,0.0,0.0,0.0,0.0,0.0,0.0,0.0,0.0,0.0,0.0,0.0,0.0,0.0,0.0,0.0,0.0,0.0,0.0,0.0,0.0,0.0,0.0,0.0,0.0,0.0,0.0,0.0,0.0,0.0,0.0,0.0,0.0,0.0,0.0,0.0,0.0,0.0,0.0,0.0,0.0,0.0,0.0,0.0,0.0,0.0,0.0,0.0,0.0,0.0,0.0,0.0,0.0,0.0,0.0,0.0,0.0,0.0,0.0,0.0,0.0,0.0,0.0,0.0,0.0,0.0,0.0,0.0,0.0,0.0,0.0,0.0,0.0,0.0,0.0,0.0,0.0,0.0,0.0,0.0,0.0,0.0,0.0,0.0,0.0,0.0,0.0,0.0,0.0,0.0,0.0,0.0,0.0,3.0586,3.3906,3.7031,3.9609,4.0664,4.0859,3.9961,3.832,3.5859,0.0,0.0,0.0,0.0,0.0,0.0,0.0,0.0,0.0,0.0,0.0,0.0,0.0,0.0,0.0,0.0,0.0,0.0,0.0,0.0,0.0,0.0,0.0,0.0,0.0,0.0,0.0,0.0,0.0,0.0,0.0,0.0,0.0,0.0,0.0,0.0,0.0,0.0,0.0,0.0,0.0,0.0,0.0,0.0,0.0,0.0,0.0,0.0,0.0,0.0,0.0,0.0,0.0,0.0,0.0,0.0,0.0,0.0,0.0,0.0,0.0,0.0,0.0,0.0,0.0,0.0,0.0,0.0,0.0,0.0,0.0,0.0,0.0,0.0,0.0,0.0,0.0,0.0,0.0,0.0,0.0,0.0,0.0,0.0,0.0,0.0,0.0,0.0,0.0,0.0,0.0,0.0,0.0,0.0,0.0,0.0,0.0,0.0,0.0,0.0,0.0,0.0,0.0,3.0703,3.4961,3.8359,3.9766,4.0664,4.0586,3.9101,3.8516,3.6211,3.1562,0.0,0.0,0.0,0.0,0.0,0.0,0.0,0.0,0.0,0.0,0.0,0.0,0.0,0.0,0.0,0.0,0.0,0.0,0.0,0.0,0.0,0.0,0.0,0.0,0.0,0.0,0.0,0.0,0.0,0.0,0.0,0.0,0.0,0.0,0.0,0.0,0.0,0.0,0.0,0.0,0.0,0.0,0.0,0.0,0.0,0.0,0.0,0.0,0.0,0.0,0.0,0.0,0.0,0.0,0.0,0.0,0.0,0.0,0.0,0.0,0.0,0.0,0.0,0.0,0.0,0.0,0.0,0.0,0.0,0.0,0.0,0.0,0.0,0.0,0.0,0.0,0.0,0.0,0.0,0.0,0.0,0.0,0.0,0.0,0.0,0.0,0.0,0.0,0.0,0.0,0.0,0.0,0.0,0.0,0.0,0.0,0.0,0.0,0.0,0.0,0.0,0.0,3.125,3.5312,3.8555,3.9766,4.0351,4.0117,3.8711,3.8594,3.668,3.2187,0.0,0.0,0.0,0.0,0.0,0.0,0.0,0.0,0.0,0.0,0.0,0.0,0.0,0.0,0.0,0.0,0.0,0.0,0.0,0.0,0.0,0.0,0.0,0.0,0.0,0.0,0.0,0.0,0.0,0.0,0.0,0.0,0.0,0.0,0.0,0.0,0.0,0.0,0.0,0.0,0.0,0.0,0.0,0.0,0.0,0.0,0.0,0.0,0.0,0.0,0.0,0.0,0.0,0.0,0.0,0.0,0.0,0.0,0.0,0.0,0.0,0.0,0.0,0.0,0.0,0.0,0.0,0.0,0.0,0.0,0.0,0.0,0.0,0.0,0.0,0.0,0.0,0.0,0.0,0.0,0.0,0.0,0.0,0.0,0.0,0.0,0.0,0.0,0.0,0.0,0.0,0.0,0.0,0.0,0.0,0.0,0.0,0.0,0.0,0.0,0.0,0.0,3.2187,3.5351,3.8086,3.9844,4.0039,3.9648,3.8672,3.8672,3.7226,3.375,0.0,0.0,0.0,0.0,0.0,0.0,0.0,0.0,0.0,0.0,0.0,0.0,0.0,0.0,0.0,0.0,0.0,0.0,0.0,0.0,0.0,0.0,0.0,0.0,0.0,0.0,0.0,0.0,0.0,0.0,0.0,0.0,0.0,0.0,0.0,0.0,0.0,0.0,0.0,0.0,0.0,0.0,0.0,0.0,0.0,0.0,0.0,0.0,0.0,0.0,0.0,0.0,0.0,0.0,0.0,0.0,0.0,0.0,0.0,0.0,3.0701,2.8665,0.0,0.0,0.0,0.0,0.0,0.0,0.0,0.0,0.0,0.0,0.0,0.0,0.0,0.0,0.0,0.0,0.0,0.0,0.0,0.0,0.0,0.0,0.0,0.0,0.0,0.0,0.0,0.0,0.0,0.0,0.0,0.0,0.0,0.0,0.0,0.0,0.0,0.0,0.0,0.0,3.3789,3.6601,3.8984,4.0742,4.0937,4.0273,3.8711,3.9219,3.8125,3.4648,3.3437,0.0,0.0,0.0,0.0,0.0,0.0,0.0,0.0,0.0,0.0,0.0,0.0,0.0,0.0,0.0,0.0,0.0,0.0,0.0,0.0,0.0,0.0,0.0,0.0,0.0,0.0,0.0,0.0,0.0,0.0,0.0,0.0,0.0,0.0,0.0,0.0,0.0,0.0,0.0,0.0,0.0,0.0,0.0,0.0,0.0,0.0,0.0,0.0,0.0,0.0,0.0,0.0,0.0,0.0,0.0,0.0,0.0,0.0,0.0,3.4337,3.2391,0.0,0.0,0.0,0.0,0.0,0.0,0.0,0.0,0.0,0.0,0.0,0.0,0.0,0.0,0.0,0.0,0.0,0.0,0.0,0.0,0.0,0.0,0.0,0.0,0.0,0.0,0.0,0.0,0.0,0.0,0.0,0.0,0.0,0.0,0.0,0.0,0.0,0.0,0.0,0.0,3.5508,3.7851,3.9726,4.1055,4.1211,4.0664,3.9336,3.9648,3.8945,3.6719,3.5351,0.0,0.0,0.0,0.0,0.0,0.0,0.0,0.0,0.0,0.0,0.0,0.0,0.0,0.0,0.0,0.0,0.0,0.0,0.0,0.0,0.0,0.0,0.0,0.0,0.0,0.0,0.0,0.0,0.0,0.0,0.0,0.0,0.0,0.0,0.0,0.0,0.0,0.0,0.0,0.0,0.0,0.0,0.0,0.0,0.0,0.0,0.0,0.0,0.0,0.0,0.0,0.0,0.0,3.9439,4.0214,4.0928,4.0777,4.1393,4.2433,3.9065,3.7609,3.7388,3.5007,0.0,0.0,0.0,0.0,0.0,0.0,0.0,0.0,0.0,0.0,0.0,0.0,0.0,0.0,0.0,0.0,0.0,0.0,0.0,0.0,0.0,0.0,3.6228,3.7727,3.8515,3.8218,3.5454,0.0,0.0,0.0,0.0,0.0,0.0,0.0,0.0,0.0,0.0,0.0,3.7305,3.9141,4.0508,4.1523,4.1484,4.1055,4.0195,4.0117,3.9766,3.8867,3.7461,3.668,0.0,0.0,0.0,0.0,0.0,0.0,0.0,0.0,0.0,0.0,0.0,0.0,0.0,0.0,0.0,0.0,0.0,0.0,0.0,0.0,0.0,0.0,0.0,0.0,0.0,0.0,0.0,0.0,0.0,0.0,0.0,0.0,3.344,3.377,0.0,0.0,0.0,0.0,0.0,0.0,0.0,0.0,0.0,0.0,0.0,0.0,0.0,3.9087,4.1327,4.3615,4.4872,4.5164,4.5991,4.6559,4.6914,4.6245,4.6776,4.8142,4.6611,0.0,4.1004,3.92,0.0,0.0,0.0,0.0,0.0,0.0,0.0,0.0,0.0,0.0,0.0,0.0,0.0,0.0,0.0,0.0,0.0,0.0,0.0,0.0,0.0,0.0,4.2002,4.2256,4.236,4.2306,4.1863,3.779,3.394,3.2988,3.2797,3.2245,0.0,0.0,0.0,0.0,0.0,0.0,3.9101,4.043,4.1641,4.3203,4.2695,4.1914,4.1094,4.1016,4.0664,3.9766,3.9492,3.9375,3.9375,3.7226,0.0,0.0,0.0,0.0,0.0,0.0,0.0,0.0,0.0,0.0,0.0,0.0,0.0,0.0,0.0,0.0,0.0,0.0,0.0,0.0,0.0,0.0,0.0,0.0,0.0,0.0,0.0,0.0,0.0,3.3763,3.656,3.656,3.6156,3.4731,0.0,0.0,0.0,0.0,0.0,0.0,0.0,0.0,0.0,4.0558,4.2566,4.4512,4.6449,4.7573,4.8624,4.9565,4.9897,5.0388,5.0944,5.0611,5.1182,5.2433,5.1456,5.0197,4.8511,4.4513,4.1781,3.9927,0.0,0.0,0.0,0.0,3.728,3.8507,3.9815,4.1162,4.2243,4.2166,0.0,0.0,0.0,0.0,0.0,0.0,0.0,3.8315,3.9773,4.1623,4.3355,4.4282,4.4893,4.497,4.4008,4.1789,3.9303,3.706,3.665,3.5989,3.3879,3.3432,0.0,0.0,0.0,3.7791,4.0764,4.1964,4.2837,4.3579,4.2888,4.2266,4.1914,4.1445,4.1055,4.0664,4.0625,4.0625,4.0625,3.9531,3.8047,0.0,0.0,0.0,0.0,0.0,0.0,0.0,0.0,0.0,0.0,0.0,0.0,0.0,0.0,0.0,0.0,0.0,0.0,0.0,0.0,0.0,0.0,0.0,0.0,0.0,0.0,0.0,0.0,3.6296,3.8836,3.8432,3.9137,3.8182,0.0,0.0,0.0,0.0,0.0,0.0,4.0414,4.2653,4.459,4.6205,4.781,4.9324,5.0729,5.0996,5.173,5.2905,5.2905,5.3335,5.4095,5.3911,5.4438,5.5407,5.4734,5.4437,5.4075,4.8997,4.5612,4.3565,4.204,4.0904,4.0164,4.059,4.1485,4.2666,4.4162,4.5513,4.6513,4.609,4.524,4.3932,4.1627,0.0,0.0,0.0,0.0,4.0392,4.2277,4.3585,4.4701,4.5936,4.674,4.6812,4.5278,4.497,4.4042,4.0956,4.0359,3.9705,3.7659,3.6946,0.0,3.9026,3.9462,4.0364,4.2481,4.3408,4.3951,4.4187,4.3486,4.2995,4.2995,4.202,4.1437,4.1481,4.1286,4.1249,4.1484,4.1523,4.0703,3.8984,0.0,0.0,0.0,0.0,0.0,0.0,0.0,0.0,0.0,0.0,0.0,0.0,0.0,0.0,0.0,0.0,0.0,0.0,0.0,0.0,0.0,0.0,0.0,0.0,0.0,0.0,0.0,0.0,0.0,3.7749,4.2258,0.0,0.0,0.0,0.0,4.0618,4.2139,4.38,4.5443,4.7095,4.8773,5.0435,5.204,5.3287,5.4142,5.4924,5.5328,5.5401,5.5401,5.5831,5.659,5.5842,5.5926,5.6706,5.6247,5.5647,5.4717,5.163,4.9785,4.8588,4.5378,4.4802,4.5708,4.4973,4.599,4.7855,4.8779,4.9125,4.936,5.013,4.924,4.7548,4.5782,4.4628,0.0,0.0,4.3974,4.5248,4.5359,4.6624,4.7851,4.7966,4.8005,4.7812,4.6966,4.6774,4.6009,4.3401,4.2905,4.2614,4.1732,0.0,4.2562,4.1982,4.2626,4.3489,4.4431,4.4593,4.4948,4.5693,4.5071,4.4565,4.4565,4.3045,4.211,4.2258,4.1485,4.1428,4.2305,4.2344,4.2656,4.3359,4.1797,0.0,0.0,0.0,0.0,0.0,0.0,0.0,0.0,0.0,0.0,0.0,0.0,0.0,0.0,0.0,0.0,0.0,0.0,0.0,0.0,0.0,0.0,0.0,0.0,0.0,0.0,0.0,0.0,4.4378,4.7168,0.0,4.4443,4.4618,4.5168,4.5691,4.8223,5.0435,5.206,5.3665,5.506,5.6187,5.7251,5.7948,5.8253,5.8547,5.8437,5.7912,5.7912,5.7813,5.7556,5.7274,5.7299,5.7567,5.7427,5.722,5.6814,5.5225,5.3171,5.0793,4.9032,4.8307,4.8304,4.8576,4.9676,5.1094,5.1941,5.2423,5.2549,5.1741,5.0702,4.9668,4.9053,4.8668,4.836,4.8052,4.8437,4.9014,4.951,4.9702,4.9784,4.9784,4.9356,4.8702,4.7851,4.7274,4.662,4.5735,4.4624,4.376,4.3478,4.3262,4.3211,4.3463,4.3786,4.4102,4.4418,4.5021,4.5514,4.5828,4.5165,4.4703,4.4703,4.361,4.2963,4.2997,4.2728,4.2705,4.3047,4.3047,4.3205,4.3518,4.293,4.0959,0.0,0.0,0.0,0.0,0.0,0.0,0.0,0.0,0.0,0.0,0.0,0.0,0.0,0.0,0.0,0.0,0.0,0.0,0.0,0.0,0.0,0.0,0.0,0.0,0.0,4.4204,4.8233,4.903,5.204,5.2847,4.9838,5.0315,5.1122,5.193,5.4242,5.6334,5.7923,5.9024,5.9857,6.0407,6.0676,6.0786,6.0786,6.0529,6.0114,5.96,5.9343,5.8902,5.84,5.8107,5.7997,5.7997,5.7997,5.7997,5.796,5.7409,5.5755,5.3486,5.2627,5.2051,5.1782,5.2323,5.3186,5.4074,5.4361,5.4345,5.405,5.2932,5.2082,5.1553,5.1553,5.1553,5.1553,5.1553,5.1553,5.1664,5.2197,5.1933,5.1553,5.1553,5.0894,5.001,4.9163,4.8317,4.7658,4.7351,4.5932,4.4667,4.4355,4.3624,4.3278,4.3816,4.3624,4.3547,4.3855,4.4716,4.53,4.53,4.5128,4.4995,4.4995,4.3942,4.3416,4.3733,4.3233,4.3216,4.38,4.3262,4.3108,4.3383,4.257,4.1038,3.8784,0.0,0.0,0.0,0.0,0.0,0.0,0.0,0.0,0.0,0.0,0.0,0.0,0.0,0.0,0.0,0.0,0.0,0.0,0.0,0.0,0.0,0.0,0.0,4.247,4.8122,5.194,5.1242,5.6712,5.8988,5.5097,5.6785,5.8474,5.9306,6.0077,6.1215,6.2793,6.2866,6.2866,6.2866,6.2108,6.1679,6.1679,6.0896,6.0456,6.0419,5.9636,5.9269,5.9196,5.8437,5.807,5.807,5.8033,5.8033,5.8033,5.7997,5.7556,5.6737,5.5941,5.586,5.6176,5.6176,5.6453,5.6748,5.5961,5.4875,5.3816,5.3816,5.3545,5.3248,5.3248,5.3254,5.3264,5.3264,5.3269,5.3274,5.3274,5.3274,5.3236,5.3236,5.2544,5.1697,5.0899,5.0014,4.9163,4.8312,4.6817,4.5398,4.4513,4.3778,4.3239,4.3239,4.2504,0.0,4.3162,4.3932,4.4393,4.4359,4.5128,4.5633,4.5556,4.4128,4.3593,4.4463,4.3005,4.2887,4.4649,4.3108,4.2611,4.3434,4.0954,4.0487,4.2105,0.0,0.0,0.0,0.0,0.0,0.0,0.0,0.0,0.0,0.0,0.0,0.0,0.0,0.0,0.0,0.0,0.0,0.0,0.0,0.0,0.0,4.4333,4.8196,4.8416,5.3004,5.7116,5.9233,6.163,6.2671,6.152,6.1447,6.1851,6.2695,6.2952,6.3539,6.4554,6.4591,6.4591,6.4591,6.3833,6.3405,6.3405,6.2585,6.1851,6.1263,6.1043,6.0639,6.004,5.9832,5.9758,5.9722,5.9123,5.8866,5.8829,5.8253,5.7886,5.7593,5.6785,5.6187,5.5765,5.5765,5.5663,5.5546,5.5672,5.5076,5.4307,5.4307,5.4231,5.4121,5.4121,5.4354,5.46,5.46,5.4806,5.5011,5.5011,5.4587,5.4126,5.4126,5.3005,5.1846,5.162,5.0433,4.9317,4.9086,4.8163,4.7163,4.6312,4.6504,4.6543,4.5928,4.6158,4.6466,4.6697,4.6932,4.6586,4.5359,4.6547,4.6663,4.4821,4.5393,4.5684,4.5324,4.4865,4.4816,4.5337,4.4873,4.4761,4.4997,4.2544,4.1504,0.0,0.0,0.0,0.0,0.0,0.0,0.0,0.0,0.0,0.0,0.0,0.0,0.0,0.0,0.0,0.0,0.0,0.0,0.0,0.0,0.0,0.0,5.0031,5.4656,5.7042,5.9501,6.1998,6.4567,6.5595,6.5852,6.5154,6.464,6.4567,6.5081,6.5118,6.5448,6.6256,6.6329,6.6329,6.6329,6.5521,6.4934,6.4604,6.3759,6.2915,6.2108,6.1741,6.1374,6.0896,6.0566,6.0419,6.0382,5.9893,5.971,5.9636,5.8829,5.851,5.8437,0.0,0.0,0.0,0.0,5.6259,5.5798,5.6058,5.5734,5.5191,5.5191,5.5112,5.5004,5.5004,5.4913,5.4876,5.5067,5.5256,5.547,5.5676,5.5362,5.5011,5.5011,5.3972,5.3005,5.3005,5.1933,5.0971,5.0971,5.0587,0.0,4.9159,4.7889,4.6894,4.6432,4.6432,4.6624,4.7009,4.7355,4.7235,4.624,4.7009,4.7005,4.5509,4.5663,0.0,0.0,0.0,4.4898,4.4551,4.4551,0.0,0.0,0.0,4.1679,4.2408,4.0945,0.0,0.0,4.0294,3.9335,0.0,0.0,0.0,0.0,0.0,0.0,0.0,0.0,0.0,0.0,0.0,0.0,0.0,0.0,0.0,0.0,5.5757,6.086,6.6292,6.6426,6.6476,6.7811,6.8531,6.8385,6.7026,6.6733,6.6659,6.6769,6.6696,6.6953,6.7664,6.77,0.0,0.0,0.0,6.6145,6.5435,6.464,6.3796,6.2939,6.2218,6.1814,6.1704,6.1006,6.0676,6.0676,6.0566,6.0529,6.0456,5.9563,5.9159,5.8976,5.829,5.7997,5.7997,5.7997,5.7483,5.6811,5.6811,0.0,0.0,5.6117,5.5912,5.5676,5.5676,5.5153,5.4643,5.5,5.5057,5.5121,5.5458,5.5571,5.5577,5.561,5.5001,5.4435,5.4505,5.3818,5.3197,5.3197,5.3197,5.2967,5.2197,4.8933,4.6436,4.6321,4.5744,4.5552,4.6206,4.7009,4.7351,4.7081,4.7197,0.0,4.6928,4.5586,4.5013,4.5706,4.4936,4.4124,4.3393,4.3393,4.2666,4.1093,4.117,4.1974,4.3547,4.3624,4.4432,4.5791,4.1975,4.0934,0.0,0.0,0.0,0.0,0.0,0.0,0.0,0.0,0.0,0.0,0.0,0.0,0.0,0.0,0.0,5.5941,6.1263,6.6145,6.9839,7.0243,7.0022,6.9669,6.9192,6.9045,6.9376,6.8251,6.7737,6.8385,6.7834,6.7554,6.77,6.77,6.77,6.77,6.6916,6.6439,6.6256,6.5485,6.4677,6.3833,6.3699,0.0,6.2572,6.2426,6.2352,6.2316,6.1667,6.1374,6.1263,5.9783,5.8829,5.8217,5.807,5.7997,5.7997,5.7997,5.7483,5.6811,5.6811,5.6338,5.5701,5.5701,5.5665,5.5613,5.5613,5.5278,0.0,5.5003,5.4819,5.4625,5.4708,5.4723,5.4804,5.5147,5.4556,5.4051,5.4424,5.3818,5.3197,5.3197,5.3197,5.3159,5.2967,5.2274,5.151,5.0774,5.112,5.1274,5.0736,5.0813,5.0159,4.8082,4.9125,4.9125,4.7081,4.7197,4.7158,4.6697,4.5821,4.5282,4.5128,4.5128,4.4975,4.4633,4.5316,4.5812,4.6158,4.6812,4.7317,4.7548,4.5423,4.4592,0.0,0.0,0.0,0.0,0.0,0.0,0.0,0.0,0.0,0.0,0.0,4.5434,4.7902,0.0,5.7545,6.1594,6.5668,6.9155,7.1564,7.2261,7.2055,7.0844,7.0353,7.0096,7.011,6.9009,6.8458,6.8848,6.8128,6.77,6.77,6.77,6.77,6.77,6.7297,6.6916,6.6512,6.5705,6.4897,6.4103,6.4103,6.3649,6.2793,6.3246,6.3196,6.2793,6.2401,6.2218,6.2108,6.0896,5.9942,5.9208,5.9208,5.8694,5.7997,5.7997,5.774,5.7409,5.7409,5.7152,5.6796,5.6796,5.6528,5.6198,5.6198,5.577,5.534,5.5552,5.5473,5.5408,5.5639,5.5697,5.564,5.5451,5.5078,5.4712,5.4527,5.432,5.4167,5.4167,5.4293,5.4434,5.4434,5.4434,5.401,5.2736,5.2928,5.3044,5.262,5.2159,5.1423,5.0159,5.0048,4.9514,4.8279,4.812,4.7774,4.6966,4.6855,4.6663,4.6278,4.624,4.6432,4.6855,4.6889,4.7081,4.7505,4.7889,4.8082,4.8082,4.724,4.6855,0.0,0.0,0.0,0.0,0.0,0.0,0.0,0.0,4.2681,4.6902,4.9177,5.1599,5.5574,5.8902,6.2462,6.6733,6.9339,7.1321,7.2753,7.3377,7.3156,7.1711,7.1527,7.1197,7.0403,6.9596,6.9082,6.8898,6.8311,6.7847,6.77,6.77,6.77,6.77,6.77,6.7407,6.6733,6.6109,6.5375,6.458,6.4433,6.387,6.305,6.3613,6.3466,6.2793,6.2793,6.2719,6.2499,6.1851,6.1117,6.0419,6.0419,5.9612,5.8437,5.829,5.8143,5.7997,5.7997,5.7997,5.7997,5.7997,5.7556,5.7031,5.7031,5.6455,5.5893,5.6243,5.6206,5.6157,5.6555,5.6655,5.6494,5.5922,5.5797,5.5634,5.5093,5.5223,5.5448,5.5448,5.5721,5.5939,5.5939,5.5939,5.5405,5.3913,5.3703,5.3626,5.3472,5.2851,5.2351,5.2159,5.0928,5.001,4.9668,4.9009,4.8159,4.7197,4.7735,4.7812,4.7158,4.712,4.7428,4.8082,4.762,4.7697,4.8355,4.8509,4.8625,4.8625,4.8625,4.8432,3.4468,3.3807,3.4798,3.7698,3.8909,4.1707,0.0,0.0,5.292,5.7655,6.0529,6.2377,6.2928,6.5632,6.8444,7.0426,7.2202,7.3597,7.45,7.4074,7.3377,7.2459,7.2386,7.2041,7.1233,7.044,6.9669,6.8958,6.8811,6.8458,6.7737,6.77,6.77,6.77,6.77,6.7664,6.759,6.748,6.704,6.6219,6.5521,6.4751,6.3906,6.3246,6.2903,6.2793,6.2793,6.2389,6.1741,6.163,6.1117,6.0419,6.0419,6.0309,6.0052,5.9343,5.8609,5.7997,5.7997,5.7997,5.7997,5.7997,5.7923,5.7886,5.7886,5.7299,5.6686,5.6706,5.6213,5.5694,5.5711,5.5733,5.5813,5.6075,5.6144,5.622,5.6567,5.6656,5.6689,5.6689,5.6722,5.6763,5.6763,5.6763,5.6451,5.5544,5.5439,5.5164,5.4434,5.428,5.3895,5.3121,5.289,5.2164,5.0668,5.0476,4.9707,4.8082,4.8043,4.8043,4.7966,4.7966,4.8005,4.8082,4.8779,4.9163,4.924,5.0014,5.0399,5.0399,5.0399,4.9591,3.8726,3.8762,3.9753,4.3983,4.67,4.9884,5.582,5.7666,5.9208,6.3135,6.5521,6.7173,6.8128,6.9779,7.1211,7.1894,7.2973,7.3634,7.3523,7.3634,7.2863,7.066,7.0403,7.0477,7.0587,6.9449,6.8752,6.8898,6.8458,6.8054,6.7737,6.77,6.77,6.77,6.77,6.77,6.77,6.726,6.6843,6.6512,6.6145,6.5595,6.4787,6.4897,6.4457,6.3576,6.3576,6.3062,6.2291,6.2291,6.2108,6.1802,6.1802,6.152,6.1006,6.0187,5.938,5.8682,5.8682,5.84,5.7997,5.7997,5.7997,5.7997,5.7997,5.7776,5.7483,5.7483,5.7262,5.7017,5.7017,5.7017,5.6926,5.663,5.6562,5.6478,5.6196,5.6322,5.6472,5.6472,5.6697,5.6907,5.6907,5.6907,5.6776,5.6449,5.6204,5.5918,5.5574,5.494,5.4164,5.3274,5.3197,5.2933,5.2202,5.2164,5.1433,4.9707,5.0043,4.9851,4.8894,4.8856,4.9086,4.9591,4.9471,4.9668,5.0168,5.0515,5.0707,5.0707,5.0707,5.0322,4.0634,4.1956,4.3901,4.927,5.3345,5.6969,6.0407,6.2475,6.442,6.7247,6.8752,6.9912,7.1087,7.16,7.1982,7.2422,7.2973,7.323,7.2899,7.2753,7.1688,6.8898,6.7577,6.721,6.8017,6.743,6.7283,6.7857,6.7577,6.737,6.737,6.759,6.77,6.77,6.77,6.77,6.77,6.71,6.6843,6.6843,6.6623,6.6182,6.5632,6.5778,6.5081,6.3759,6.3992,6.3613,6.2829,6.305,6.3013,6.2793,6.2793,6.2426,6.1851,6.13,6.026,5.9196,5.9196,5.8682,5.7997,5.7997,5.7997,5.7997,5.7997,5.7997,5.7997,5.7997,5.7997,5.7997,5.7997,5.7997,5.785,5.7262,5.7152,5.6969,5.6393,5.6477,5.6702,5.6702,5.6964,5.7202,5.7202,5.7202,5.7202,5.7202,5.6857,5.6618,5.6654,5.5812,5.4939,5.4318,5.4049,5.3818,5.3587,5.3549,5.2933,5.1476,5.1928,5.162,5.0164,5.0087,5.0279,5.0707,5.0091,5.0053,5.0707,5.0707,5.0707,5.0707,5.0707,5.0707,3.8131,4.1075,4.5011,5.1489,5.6664,6.13,6.5338,6.754,6.9142,7.0793,7.1197,7.1233,7.1307,7.0697,7.066,7.2239,7.2532,7.2789,7.3575,7.1651,6.9596,6.7921,6.4249,6.2144,6.2939,6.4444,6.5362,6.5398,6.6109,6.6549,6.6549,6.7297,6.77,6.77,6.77,6.77,6.77,6.7664,6.7664,6.7664,6.688,6.6476,6.6402,6.4874,6.3686,6.2903,6.3723,6.3613,6.2866,6.3723,6.3576,6.2793,6.2793,6.2793,6.2756,6.2756,6.1215,5.9196,5.9196,5.8682,5.7997,5.7997,5.7997,5.7997,5.7997,5.7997,5.7997,5.7997,5.7997,5.7997,5.7997,5.7997,5.7997,5.796,5.796,5.796,5.7923,5.7935,5.7958,5.7958,5.7969,5.798,5.798,5.798,5.798,5.798,5.763,5.7416,5.7534,5.7198,5.6907,5.6907,5.6132,5.5324,5.4511,5.4472,5.4087,5.3159,5.3159,5.2774,5.1846,5.1808,5.1467,5.0707,5.0668,5.0668,5.0707,5.0707,5.0707,5.0707,5.0707,5.0707,4.3672,4.7452,5.1489,5.7948,6.2438,6.5999,6.8995,7.0499,7.1138,7.0624,6.8385,6.6182,6.5081,6.3759,6.3563,6.5729,6.8334,7.0403,7.1211,7.1064,6.9302,6.4971,6.3246,6.1667,5.9795,6.108,6.2732,6.4383,6.5264,6.5925,6.6476,6.726,6.77,6.77,6.77,6.77,6.77,6.77,6.77,6.77,6.7444,6.7297,6.726,6.6182,6.5228,6.4481,6.4787,6.409,6.2903,6.431,6.4077,6.2903,6.4004,6.3783,6.2866,6.3466,6.2438,6.0713,6.0187,5.9453,5.8719,5.818,5.7997,5.7997,5.7997,5.7997,5.7997,5.7997,5.7997,5.7997,5.7997,5.7997,5.7997,5.7997,5.7997,5.7997,5.7997,5.7997,5.7997,5.7997,5.7997,5.7997,5.7997,5.7997,5.7997,5.7997,5.7651,5.7342,5.7141,5.7005,5.6944,5.6944,5.6192,5.5698,5.5702,5.5198,5.4644,5.4115,5.4049,5.3664,5.2813,5.2774,5.262,5.2356,5.2356,5.2087,5.1505,5.2087,5.2049,5.1505,5.2087,5.2356,4.815,5.2627,5.6884,6.338,6.699,6.9376,7.094,7.149,7.0844,6.8054,6.4751,6.1594,5.9061,5.7042,5.6932,6.0517,6.305,6.5558,6.8421,6.8495,6.7013,6.3649,6.2462,6.1141,5.9061,5.9795,6.119,6.3075,6.453,6.5508,6.6035,6.7113,6.77,6.77,6.77,6.77,6.77,6.77,6.77,6.77,6.77,6.7407,6.6843,6.6586,6.5888,6.4897,6.5485,6.4958,6.3783,6.5191,6.4921,6.3783,6.4884,6.4481,6.3319,6.387,6.3221,6.1924,6.1117,6.0297,5.9526,5.9024,5.8841,5.8841,5.8841,5.8841,5.8841,5.8841,5.8841,5.8804,5.851,5.8437,5.8364,5.807,5.7997,5.7997,5.7997,5.7997,5.7997,5.7997,5.7997,5.7997,5.7997,5.7997,5.7997,5.7997,5.7784,5.7604,5.7556,5.7424,5.7339,5.7339,5.6593,5.6217,5.6482,5.5766,5.5196,5.4963,5.4676,5.4103,5.3249,5.3324,5.3272,5.2998,5.3145,5.2928,5.239,5.2928,5.2928,5.239,5.2928,5.3197,5.1453,5.6554,6.1068,6.7343,7.0022,7.1123,7.1123,7.0367,6.8311,6.349,6.0334,5.7251,0.0,0.0,5.1143,5.6675,5.7299,5.9306,6.5595,6.453,6.3356,0.0,0.0,0.0,0.0,0.0,6.0896,6.1667,6.3906,6.5251,6.5362,6.6843,6.77,6.77,6.77,6.77,6.77,6.77,6.77,6.77,6.77,6.688,6.5435,6.6182,6.5668,6.4323,6.5852,6.6035,6.5362,6.6219,6.6072,6.5288,6.5398,6.4897,6.4176,6.4213,6.3686,6.2829,6.2034,6.119,6.0456,6.0419,6.0419,6.0419,6.0419,6.0419,6.0419,6.0419,6.0419,6.0224,5.9453,5.9269,5.9086,5.829,5.8107,5.807,5.807,5.8033,5.7997,5.7997,5.7997,5.7997,5.7997,5.7997,5.7997,5.7997,5.7997,5.8175,5.8601,5.8334,5.8079,5.8079,5.7383,5.6885,5.6911,5.6183,5.5718,5.5705,5.4991,5.4206,5.3314,5.3667,5.355,5.2781,5.3113,5.3303,5.3274,5.3303,5.3303,5.3274,5.3313,5.3313,5.7776,6.1998,6.5338,6.8201,6.8752,6.8605,6.8605,6.6109,6.2732,5.9086,5.3031,4.7526,4.47,4.514,4.7205,5.1022,5.7068,0.0,6.5999,6.699,0.0,6.436,0.0,6.3306,6.1484,6.2401,6.3246,6.3442,6.4066,6.4934,6.6145,6.7136,6.77,6.77,6.77,6.77,6.77,6.77,6.77,6.77,6.77,6.748,6.7076,6.6659,6.6292,6.5925,6.6329,6.6035,6.5398,6.6806,6.6549,6.5398,6.6623,6.6219,6.5081,6.5668,6.5375,6.4628,6.442,6.3025,6.119,6.0603,6.0419,6.0419,6.0419,6.0419,6.0419,6.0419,6.0419,6.0346,6.015,6.0077,6.004,5.9832,5.9343,5.8902,5.8902,5.8437,5.7997,5.7997,5.7997,5.7997,5.7997,5.7997,5.7997,5.7997,5.7997,5.8054,5.8175,5.8087,5.8026,5.8026,5.7312,5.6951,5.7255,5.6547,5.5965,5.5726,5.5777,5.5489,5.4659,5.5,5.5132,5.4902,5.4712,5.4479,5.4164,5.4479,5.4441,5.4164,5.478,5.5049,6.3282,6.6659,6.8811,6.9729,6.9082,6.7393,6.4176,6.1129,5.7152,5.0729,4.5471,4.1434,3.9378,4.0112,4.2763,0.0,0.0,0.0,6.4187,6.5999,6.6402,0.0,6.6182,0.0,6.3943,6.491,6.5681,6.5681,6.5681,6.5938,6.6476,6.7577,6.8068,6.77,6.77,6.7884,6.8201,6.7884,6.7884,6.8201,6.7884,6.7517,6.7187,6.7076,6.6843,6.6512,6.688,6.6769,6.6402,6.7333,6.7187,6.6439,6.737,6.6916,6.5888,6.6329,6.5999,6.5288,6.5288,6.4371,6.3135,6.2695,6.2328,6.2034,6.2034,6.1777,6.1435,6.1435,6.1435,6.1361,6.1006,6.0933,6.086,6.0493,6.004,5.9747,5.9747,5.938,5.9061,5.9061,5.9061,5.9061,5.9061,5.9061,5.8951,5.8572,5.8547,5.84,5.8033,5.7997,5.7997,5.7997,5.7593,5.7423,5.7656,5.6937,5.6368,5.6181,5.6058,5.5795,5.5353,5.5723,5.586,5.5694,5.5655,5.5422,5.5011,5.5266,5.5234,5.5049,5.5478,5.5708,6.765,7.0169,7.1233,7.0903,6.9509,6.6366,5.9024,5.5684,5.1326,4.1303,3.8358,3.7221,3.6046,3.6163,3.9056,4.7012,0.0,5.3995,6.1728,6.3649,6.4837,6.6329,6.7834,6.8201,6.6769,6.7297,6.7737,6.7847,6.7847,6.7517,6.6696,6.8091,6.8531,6.7737,6.77,6.8104,6.8885,6.8091,6.8091,6.8885,6.8091,6.7333,6.6659,6.737,6.7333,6.6696,6.7407,6.77,6.77,6.77,6.77,6.77,6.77,6.726,6.6659,6.6659,6.6219,6.5618,6.5618,6.5618,6.5582,6.5251,6.4677,6.4066,6.3943,6.3392,6.2793,6.2793,6.2793,6.2646,6.1924,6.1741,6.1594,6.0896,6.0627,6.0566,6.0566,6.0493,6.0419,6.0419,6.0419,6.0419,6.0419,6.0419,6.015,5.9453,5.938,5.9086,5.8253,5.807,5.7997,5.7997,5.7997,5.7997,5.7997,5.7373,5.6921,5.6811,5.6191,5.5805,5.5694,5.6075,5.6173,5.5847,5.6042,5.6025,5.5797,5.561,5.5594,5.5708,5.5708,5.5708,6.9265,7.0587,7.083,6.8825,6.6599,6.3025,5.5721,5.0168,0.0,0.0,3.3617,3.2002,3.3066,3.5459,3.9724,4.7085,5.1389,5.5904,6.1949,6.4114,6.5448,0.0,6.732,6.7811,6.7517,6.7627,6.7994,6.8641,6.8678,6.8348,6.7517,6.8385,6.8531,6.7737,6.77,6.8104,6.8885,6.8091,6.8091,6.8885,6.8091,6.7627,6.7517,6.7627,6.7627,6.7517,6.7627,6.77,6.77,6.77,6.77,6.77,6.77,6.7627,6.748,6.748,6.7407,6.7297,6.7297,6.7297,6.6966,6.4947,6.4213,6.3992,6.3233,6.2903,6.2793,6.2793,6.2793,6.2756,6.2646,6.2572,6.2572,6.2426,6.1887,6.1374,6.1374,6.086,6.0419,6.0419,6.0419,6.0419,6.0419,6.0419,6.0346,6.0224,6.0187,5.9893,5.9086,5.84,5.7997,5.7997,5.7997,5.7997,5.7997,5.7886,5.7519,5.6847,5.6979,5.6783,5.6115,5.6555,5.6755,5.669,5.5745,5.5559,5.6204,5.5197,5.5067,5.5708,5.5708,5.5708,6.8765,7.0367,7.1344,6.8935,6.5852,6.086,5.1012,0.0,0.0,3.1678,2.9108,2.9066,3.1531,3.396,0.0,4.3562,4.7966,5.259,5.8253,6.1557,6.4163,6.6256,6.7958,6.8949,6.8949,6.8949,6.9119,6.9486,6.9912,6.9633,6.8385,6.8678,6.8715,6.8348,6.8715,6.9119,6.9522,6.8715,6.8935,7.0132,6.8458,6.8141,6.8912,6.8068,6.7921,6.8311,6.7884,6.77,6.7737,6.8128,6.8311,6.8348,6.8802,6.8678,6.8311,6.8311,6.8068,6.77,6.77,6.77,6.7444,6.5865,6.5338,6.5264,6.4861,6.4127,6.3466,6.3466,6.316,6.2793,6.2793,6.2793,6.2793,6.2793,6.2499,6.2218,6.2218,6.1912,6.1655,6.1655,6.1655,6.1655,6.1655,6.1655,6.1508,6.108,6.1006,6.075,5.993,5.9501,5.8914,5.807,5.7997,5.7997,5.7997,5.7997,5.785,5.7446,5.7619,5.7539,5.7132,5.7347,5.7374,5.7145,5.6555,5.6386,5.6626,5.6292,5.6078,5.6032,5.6746,5.6549,6.7944,7.0036,7.1578,6.8811,6.5031,5.8902,4.6902,4.1552,0.0,2.7064,2.5773,2.7346,3.0546,3.2051,3.4541,0.0,4.3489,4.7709,5.3969,5.8302,6.2108,0.0,6.8128,0.0,6.9816,6.9669,6.9779,7.033,7.094,7.0756,6.9472,6.9265,6.9155,6.9155,6.9779,7.0183,7.0367,6.9559,6.9779,7.1013,6.9119,6.8802,6.9816,6.8545,6.8385,6.9119,6.8311,6.8068,6.8251,6.8898,6.9155,6.9229,6.9853,6.9596,6.8921,6.9082,6.8641,6.7958,6.7958,6.7958,6.7811,6.7026,6.6623,6.6439,6.6072,6.5081,6.4066,6.387,6.3319,6.2829,6.3013,6.2939,6.2793,6.2793,6.2793,6.2793,6.2793,6.2939,6.3086,6.3086,6.3086,6.3123,6.3306,6.305,6.2646,6.2181,6.1961,6.1557,6.075,6.0676,6.0126,5.8657,5.851,5.851,5.851,5.8364,5.8253,5.8253,5.8107,5.7997,5.7997,5.7997,5.7833,5.7512,5.7373,5.7178,5.7024,5.7213,5.705,5.6612,5.7672,5.7367,6.8017,7.0059,7.0463,6.6609,6.2572,5.6554,4.5104,0.0,3.4284,2.5993,2.4934,2.6476,2.9732,2.9837,3.1775,3.888,4.0312,4.3322,5.1216,5.5794,5.9832,6.3846,0.0,0.0,6.8935,6.8348,6.8825,7.1013,7.127,7.1233,7.1087,7.0403,7.0,7.0,7.0073,7.044,7.1197,7.0403,7.0073,7.022,7.0,6.9559,6.9009,6.8862,6.9229,6.9926,6.9155,6.9192,6.9889,6.9963,7.0,7.0,7.0073,6.9596,6.9009,6.9706,6.9486,6.8788,6.8788,6.8788,6.8678,6.7847,6.7113,6.6219,6.4763,6.4213,6.3906,6.3123,6.2866,6.2976,6.3759,6.3392,6.2793,6.2793,6.2793,6.2793,6.2793,6.3429,6.3992,6.3992,6.3992,6.42,6.4921,6.382,6.305,6.3759,6.3209,6.2389,6.1594,6.1496,6.1153,6.0272,6.0199,6.0199,6.0199,5.949,5.9086,5.9086,5.84,5.7997,5.7997,5.7997,5.7983,5.7966,5.7231,5.7016,5.7345,5.6657,5.6729,5.7482,5.7593,5.7373,6.2572,6.6719,6.9743,6.6169,6.1838,5.5647,4.4782,0.0,3.336,2.5768,2.4451,2.5369,2.764,2.7781,2.8992,3.3366,0.0,0.0,4.5892,5.0335,5.5291,6.1826,6.4323,6.6402,0.0,6.8605,6.9229,7.116,7.1307,7.1307,7.1307,7.0977,7.083,7.083,7.083,7.0977,7.1307,7.0513,7.0587,7.1541,7.055,7.044,7.1027,7.0073,7.0073,7.077,6.9963,6.9816,7.0146,7.0624,7.083,7.0866,7.1358,7.1064,7.0389,7.0683,7.033,6.9559,6.9082,6.8885,6.8788,6.7958,6.748,6.7113,6.6452,6.5938,6.5485,6.5118,6.4347,6.3759,6.4604,6.4554,6.4297,6.4297,6.4297,6.4297,6.4297,6.4591,6.4824,6.4824,6.4824,6.4934,6.5251,6.4738,6.4407,6.4787,6.4127,6.3466,6.3148,6.2658,6.2205,6.1875,6.0958,6.0419,6.0419,6.0114,5.971,5.9233,5.8902,5.851,5.8033,5.7997,5.7997,5.7997,5.795,5.8004,5.8171,5.842,5.8485,5.8335,5.914,5.8888,5.7214,6.2401,6.6623,6.4114,5.9281,5.2747,0.0,0.0,3.1518,2.5438,2.4378,2.4965,2.635,2.6791,2.7603,2.9543,0.0,3.5459,4.1266,4.614,5.1463,5.7666,0.0,6.3209,6.6439,6.8481,6.9986,7.0866,7.138,7.1637,7.1637,7.1637,7.1454,7.094,7.1197,7.1307,7.1307,7.072,7.1027,7.2114,7.1248,7.1284,7.2114,7.0991,7.0881,7.16,7.0807,7.0587,7.0844,7.1417,7.1637,7.1711,7.2275,7.2004,7.1344,7.1564,7.0991,7.0,6.9449,6.9119,6.8788,6.7958,6.77,6.77,6.77,6.715,6.6439,6.6219,6.5485,6.4897,6.5215,6.5472,6.5582,6.5362,6.5288,6.5288,6.5288,6.5472,6.5655,6.5655,6.5655,6.5742,6.5962,6.5618,6.5362,6.5618,6.4971,6.4457,6.4457,6.3943,6.3527,6.3527,6.2316,6.1374,6.1141,6.0896,6.0529,5.993,5.9673,5.9306,5.8731,5.8474,5.8364,5.8364,5.8448,5.8549,5.8723,5.9354,5.9527,5.9226,6.0143,5.9885,5.3151,5.7409,6.0297,5.949,5.3801,4.6902,0.0,3.4284,2.8143,2.4887,2.4824,2.5631,2.646,2.7236,2.8044,2.8877,3.1041,0.0,3.8167,4.4259,4.8957,0.0,5.4436,5.8132,6.1374,6.749,7.094,7.0183,7.1578,7.2496,7.2496,7.2496,7.1762,7.0146,7.0866,7.1307,7.1307,7.1307,7.1307,7.1307,7.2078,7.2092,7.1307,7.1307,7.1711,7.2459,7.1637,7.1747,7.2496,7.2496,7.2496,7.2496,7.2496,7.2004,7.1417,7.2188,7.1468,7.011,7.0073,6.9559,6.8788,6.7958,6.77,6.77,6.77,6.715,6.6329,6.5545,6.5888,6.6292,6.5508,6.5888,6.6292,6.5472,6.5288,6.5288,6.5288,6.5925,6.6476,6.6476,6.6476,6.6733,6.7554,6.6366,6.5582,6.6366,6.5802,6.5288,6.5288,6.5288,6.5251,6.5251,6.453,6.3723,6.2866,6.2034,6.1569,6.1569,6.0823,6.0382,6.0382,5.96,5.9196,5.9196,5.84,5.8227,5.8713,5.8723,5.9185,6.011,6.011,5.9885,4.3608,4.7425,5.0178,4.882,4.548,4.1222,3.6083,3.1855,2.8106,2.485,2.4415,2.5002,2.635,2.6791,2.7781,3.0246,3.1745,3.4014,0.0,0.0,0.0,5.3492,6.0101,6.4861,6.6439,6.8444,6.9765,7.0073,7.055,7.0624,7.0073,7.055,7.0881,7.0903,7.116,7.105,7.0477,7.0477,7.077,7.1307,7.0991,7.1027,7.127,7.0734,7.0917,7.1674,7.1417,7.1747,7.2496,7.2496,7.2496,7.2496,7.2496,7.2349,7.2078,7.1784,7.1344,7.0756,6.9669,6.9119,6.8788,6.7958,6.77,6.77,6.77,6.7517,6.7136,6.6366,6.6696,6.715,6.6329,6.6733,6.726,6.699,6.6953,6.6953,6.6953,6.715,6.7333,6.7333,6.7333,6.7407,6.7664,6.7297,6.7026,6.7297,6.6623,6.6109,6.6109,6.5632,6.5288,6.5288,6.5068,6.4604,6.3759,6.2915,6.2181,6.1643,6.1374,6.097,6.0407,5.9636,5.9196,5.9196,5.8721,5.8723,5.9167,5.9492,5.9962,6.0591,6.0591,6.0493,3.653,4.0128,4.2625,4.2258,3.9606,0.0,0.0,2.958,2.6607,2.4593,2.4667,2.5401,2.6424,2.7084,2.8148,3.0173,3.1672,3.3683,3.6846,0.0,4.8196,5.441,6.0945,6.5154,6.5632,6.7637,6.9119,6.9596,6.9926,6.9889,6.9376,6.9816,7.0183,7.0389,7.0389,7.0132,6.9633,6.9633,7.0036,7.083,7.033,7.0367,7.0844,7.033,7.0367,7.083,7.083,7.1138,0.0,7.1931,7.1872,7.1615,7.1945,7.1872,7.1541,7.1027,7.0646,7.0243,6.9252,6.8715,6.8348,6.7847,6.77,6.77,6.77,6.77,6.759,6.71,6.7297,6.759,6.7076,6.7333,6.77,6.77,6.77,6.77,6.77,6.77,6.77,6.77,6.77,6.77,6.77,6.77,6.77,6.77,6.726,6.6953,6.6953,6.6512,6.6219,6.6219,6.5655,6.5215,6.5007,6.3943,6.3062,6.2561,6.2218,6.1814,6.1325,6.0224,5.9636,5.9636,5.8836,5.8683,5.9121,5.98,6.0338,6.0787,6.0787,6.0787,0.0,3.4805,3.6905,3.8403,3.5385,0.0,0.0,0.0,0.0,2.4194,2.5438,2.6534,2.6607,2.7849,2.8987,2.9133,3.1152,3.328,3.4931,4.1727,4.8563,5.4106,5.84,6.0896,6.086,6.5668,6.8862,6.8885,6.9522,6.9889,6.9853,6.9889,6.9559,6.8752,6.8788,6.8825,6.8825,6.8848,6.9302,7.0,6.9963,6.9963,7.0,6.9963,6.9963,7.0,7.0,7.0036,7.0146,7.0903,7.077,7.0183,7.0903,7.077,7.0073,7.0036,6.9522,6.8885,6.8825,6.8311,6.77,6.77,6.77,6.77,6.77,6.77,6.77,6.77,6.77,6.77,6.77,6.77,6.77,6.77,6.77,6.7737,6.7774,6.7737,6.7737,6.7774,6.7811,6.7774,6.77,6.7737,6.7774,6.77,6.77,6.77,6.77,6.77,6.77,6.77,6.6366,6.5765,6.6512,6.5044,6.4103,6.4103,6.3356,6.2866,6.2793,6.1288,6.0493,6.0493,5.9044,5.8474,5.8848,5.9788,6.0441,6.0787,6.0787,6.0787,2.6067,0.0,2.7425,2.7792,2.7016,2.6135,0.0,0.0,0.0,0.0,0.0,0.0,0.0,2.742,2.8705,3.0546,3.2339,3.4321,3.6604,4.5847,5.3812,5.7618,6.2768,6.5742,6.5118,6.6843,6.8238,6.8862,6.8495,6.7994,6.7393,6.7921,6.7921,6.71,6.765,6.7994,6.7994,6.8605,6.9009,6.9192,6.8582,6.8568,6.9155,6.8531,6.8605,6.9192,6.9192,6.9522,7.011,7.0293,7.0257,7.011,7.0293,7.0257,7.0036,6.9412,6.9082,6.8825,6.8201,6.7847,6.77,6.77,6.77,6.77,6.77,6.77,6.77,6.77,6.77,6.77,6.77,6.77,6.77,6.77,6.77,6.7884,6.8495,6.8128,6.7884,6.8495,6.8605,6.8421,6.7811,6.8201,6.8421,6.7811,6.77,6.77,6.77,6.77,6.77,6.77,6.737,6.7223,6.7407,6.5388,6.4103,6.4103,6.3919,6.3503,6.2829,6.1851,6.13,6.13,6.1097,6.0717,6.0172,6.116,6.133,6.0787,6.0787,6.0787,2.4194,2.4194,2.4194,2.4194,2.4194,2.4194,2.4194,0.0,0.0,0.0,0.0,0.0,0.0,2.7561,2.9035,3.106,3.3703,3.7522,4.3322,5.0408,5.6418,6.037,6.4237,6.6733,6.704,6.7444,6.7884,6.8311,6.7958,6.7517,6.7076,6.748,6.7333,6.6512,6.7297,6.77,6.77,6.8128,6.8348,6.8348,6.7921,6.7921,6.8311,6.7921,6.7958,6.8348,6.8348,6.8605,6.9022,6.9412,6.9339,6.9059,6.9412,6.9302,6.8949,6.8495,6.8348,6.8274,6.7847,6.77,6.77,6.77,6.77,6.77,6.77,6.77,6.77,6.77,6.77,6.77,6.77,6.77,6.77,6.77,6.77,6.7921,6.8752,6.8568,6.8495,6.9302,6.9449,6.9302,6.8875,6.8862,6.8898,6.8802,6.8495,6.8238,6.8238,6.8238,6.8091,6.7737,6.737,6.7297,6.7664,6.6159,6.5044,6.4677,6.431,6.3723,6.2829,6.2034,6.141,6.1043,6.1416,6.146,6.1211,6.1582,6.1646,6.1402,6.0979,6.0787,2.4341,2.4488,2.452,2.4263,2.4305,2.4341,2.4231,0.0,0.0,0.0,0.0,0.0,0.0,2.8736,0.0,0.0,3.606,4.1964,5.1106,5.4557,5.774,6.2095,6.4407,6.6109,6.7223,6.7554,6.77,6.77,6.77,6.7664,6.7517,6.7627,6.726,6.6366,6.7223,6.7627,6.7517,6.7627,6.77,6.77,6.77,6.77,6.77,6.77,6.77,6.77,6.77,6.77,6.7737,6.8458,6.8311,6.7774,6.8458,6.8311,6.77,6.77,6.77,6.77,6.77,6.77,6.77,6.77,6.77,6.77,6.77,6.77,6.77,6.77,6.7811,6.7921,6.8031,6.8068,6.8068,6.8068,6.8068,6.8288,6.9082,6.9178,6.9339,7.0146,7.0293,7.022,7.011,6.9633,6.9449,7.0,6.9522,6.9082,6.9082,6.8958,6.8678,6.8141,6.726,6.699,6.7811,6.7136,6.6329,6.5508,6.4824,6.4016,6.305,6.2328,6.1594,6.0786,6.13,6.1759,6.2059,6.1741,6.1767,6.2095,6.121,6.0787,2.5044,2.57,2.591,2.4557,2.4708,2.5044,2.4378,0.0,0.0,0.0,0.0,0.0,0.0,3.2516,3.4857,3.7221,4.1552,4.6801,5.3151,5.6701,5.9416,6.152,6.5057,6.688,6.5778,6.688,6.77,6.77,6.77,6.7407,6.6733,6.7333,6.704,6.5508,6.6916,6.737,6.6696,6.737,6.77,6.77,6.77,6.77,6.77,6.77,6.77,6.77,6.77,6.77,6.77,6.7847,6.7811,6.77,6.7847,6.7811,6.77,6.77,6.77,6.77,6.77,6.77,6.77,6.77,6.77,6.77,6.77,6.77,6.77,6.77,6.8201,6.8862,6.9559,6.9706,6.9706,6.9706,6.9706,6.9963,7.0756,7.0403,7.0146,7.094,7.1123,7.0903,7.022,7.055,7.072,7.0183,7.0,6.9926,6.9926,6.9339,6.9119,6.9669,6.8398,6.7847,6.8641,6.7981,6.7187,6.6366,6.6182,6.5448,6.3943,6.3772,6.3319,6.2462,6.2946,6.3113,6.2918,6.2583,6.2313,6.2095,6.121,6.0787,2.4635,2.5333,2.6104,2.6644,2.6722,2.6476,0.0,0.0,0.0,0.0,0.0,0.0,0.0,0.0,3.8285,4.4268,4.8196,5.2013,5.637,5.8279,6.0114,6.2671,6.4617,6.5828,6.5925,6.699,6.7517,6.7076,6.704,6.7076,6.715,6.6659,6.6256,6.5962,6.6256,6.6219,6.5852,6.6659,6.726,6.77,6.726,6.7297,6.77,6.77,6.77,6.77,6.77,6.77,6.77,6.77,6.77,6.77,6.77,6.77,6.77,6.77,6.77,6.77,6.77,6.77,6.77,6.77,6.77,6.77,6.77,6.77,6.7884,6.8765,6.8935,6.9009,6.9376,6.9779,7.011,7.011,7.011,7.033,7.1123,7.1013,7.0991,7.1784,7.1931,7.1821,7.1468,7.1344,7.1307,7.1394,7.1027,7.0587,7.0146,7.0146,7.0022,6.9522,6.9192,6.8972,6.8898,6.8568,6.7834,6.6586,6.6109,6.5338,6.4139,6.4103,6.3686,6.2829,6.3342,6.3674,6.3804,6.3427,6.3308,6.3435,6.2551,6.2166,2.4415,2.5081,2.6104,2.7959,2.8405,0.0,0.0,0.0,0.0,0.0,0.0,0.0,0.0,3.8696,4.2955,5.0178,5.3555,5.6381,5.96,6.004,6.1178,6.4273,6.4494,6.4934,6.6366,6.7063,6.71,6.6292,6.6402,6.6696,6.71,6.5962,6.5521,6.5925,6.5508,6.5215,6.5007,6.5632,6.6452,6.7407,6.6769,6.6916,6.77,6.7517,6.7517,6.77,6.77,6.77,6.77,6.77,6.77,6.77,6.77,6.77,6.77,6.77,6.77,6.77,6.77,6.77,6.77,6.77,6.77,6.77,6.77,6.7847,6.8251,6.9486,6.9669,6.9509,6.9692,7.022,7.066,7.066,7.066,7.0844,7.1454,7.1564,7.1747,7.2386,7.2496,7.2496,7.2496,7.1967,7.1784,7.2422,7.1967,7.1344,7.0734,7.105,7.0903,6.9839,6.9963,6.9853,6.9229,6.8995,6.8385,6.7136,6.6329,6.5485,6.469,6.4653,6.4163,6.3123,6.3499,6.3893,6.4197,6.3807,6.3902,6.4391,6.3661,6.3314,2.5117,2.5883,2.657,2.6717,2.8405,0.0,3.4761,3.5605,0.0,3.9525,0.0,0.0,0.0,4.7159,5.0545,5.2664,5.5684,5.8877,6.2095,6.2536,6.349,6.6035,6.5668,6.5545,6.6402,6.6549,6.6256,6.5435,6.6072,6.6219,6.5508,6.5362,6.4971,6.4286,6.4934,6.4934,6.4213,6.4249,6.5044,6.6586,6.6512,6.6916,6.7664,6.6916,6.7003,6.77,6.77,6.77,6.77,6.77,6.77,6.77,6.77,6.77,6.77,6.77,6.77,6.77,6.77,6.77,6.77,6.77,6.77,6.77,6.77,6.8201,6.8862,6.8958,7.0022,7.1307,7.2055,7.2275,7.2349,7.2349,7.2349,7.2349,7.2422,7.2422,7.2422,7.2496,7.2496,7.2496,7.2496,7.2459,7.2422,7.2496,7.2459,7.2386,7.2349,7.1711,7.1527,7.2165,7.0954,7.0073,7.0,6.9339,6.8862,6.8738,6.7981,6.7187,6.6366,6.6329,6.5595,6.4029,6.403,6.3933,6.3648,6.3321,6.3402,6.3848,6.3469,6.3314,2.4562,2.6355,2.8583,3.0571,3.2559,0.0,0.0,3.7074,3.9321,4.2029,4.2763,0.0,0.0,5.1069,5.4142,5.5269,5.8143,6.0639,6.1887,6.2462,6.3343,6.4824,6.4751,6.4677,6.4984,6.5448,6.5411,6.4604,6.4824,6.5081,6.5288,6.4297,6.4077,6.4824,6.4114,6.387,6.4103,6.4103,6.4396,6.502,6.5521,6.6182,6.6953,6.6623,6.6953,6.7664,6.7187,6.726,6.77,6.77,6.77,6.77,6.77,6.77,6.77,6.77,6.77,6.7774,6.8274,6.8458,6.8458,6.8458,6.8788,6.9082,6.8605,6.9009,6.9743,7.0243,7.083,7.138,7.1674,7.2114,7.2496,7.2496,7.2496,7.2496,7.2496,7.2496,7.2496,7.2496,7.2496,7.2496,7.2496,7.2496,7.2496,7.2496,7.2496,7.2312,7.1821,7.1931,7.1967,7.1784,7.1197,7.083,7.083,6.9669,6.8885,6.8885,6.8128,6.7333,6.6512,6.6512,6.5962,6.4861,6.4861,6.4918,6.5098,6.5311,6.5668,6.6159,6.5803,6.5667,2.4562,2.6943,2.991,3.2118,0.0,0.0,3.8351,4.0194,4.2772,4.6223,4.7388,4.8379,5.0372,0.0,5.517,5.6235,5.9134,6.141,6.1924,6.2462,6.3123,6.3992,6.387,6.3796,6.4066,6.4604,6.4567,6.3759,6.3956,6.42,6.4481,6.3417,6.3343,6.4481,6.3417,6.3086,6.3686,6.3686,6.3686,6.3686,6.453,6.5338,6.6109,6.5852,6.6329,6.7297,6.6733,6.6966,6.77,6.77,6.77,6.77,6.77,6.77,6.77,6.77,6.77,6.7774,6.8311,6.8678,6.8885,6.8885,6.9449,7.0,6.9449,6.9853,7.0587,7.116,7.149,7.1747,7.1967,7.2275,7.2496,7.2496,7.2496,7.2496,7.2496,7.2496,7.2496,7.2496,7.2496,7.2496,7.2496,7.2496,7.2496,7.2496,7.2496,7.2312,7.1747,7.2151,7.2312,7.1747,7.1674,7.1674,7.1674,7.022,6.9302,6.9302,6.8288,6.7444,6.688,6.688,6.6512,6.5692,6.5837,6.5952,6.6015,6.6734,6.7233,6.7616,6.7536,6.7513,2.5416,2.7792,3.0283,3.0314,0.0,0.0,4.5186,4.592,4.7535,5.3225,5.4399,5.4179,5.3361,5.3214,5.3765,5.5328,5.829,6.0958,6.2536,6.2793,6.3086,6.3992,6.3319,6.3135,6.3992,6.4066,6.3723,6.2866,6.3576,6.3686,6.2866,6.2793,6.2793,6.2793,6.2793,6.2793,6.2793,6.2793,6.2793,6.2793,6.3686,6.4494,6.5251,6.4457,6.4984,6.6512,6.6476,6.6953,6.77,6.77,6.77,6.77,6.77,6.77,6.77,6.77,6.77,6.77,6.77,6.8238,6.8898,6.8898,6.9449,7.011,7.011,7.066,7.1307,7.1307,7.1894,7.2679,7.3487,7.3083,7.2496,7.2532,7.2532,7.2532,7.2532,7.2532,7.2496,7.2496,7.2496,7.2496,7.2496,7.2496,7.2496,7.2496,7.2496,7.2496,7.2496,7.2496,7.2496,7.2496,7.2496,7.2496,7.2496,7.1027,7.011,7.011,6.8618,6.7737,6.77,6.77,6.7333,6.6526,6.7048,6.6932,6.6146,6.7153,6.7632,6.7649,6.8189,6.8391,2.7928,3.1965,3.6442,3.758,0.0,0.0,0.0,4.7976,0.0,0.0,5.4509,5.5673,5.4289,5.5427,5.6345,5.5695,5.829,6.0566,6.1031,6.1594,6.2254,6.3099,6.2976,6.2903,6.316,6.2658,6.2475,6.2793,6.1998,6.1887,6.2756,6.2254,6.2218,6.2793,6.2793,6.2793,6.2793,6.2793,6.2793,6.2793,6.305,6.3649,6.4457,6.4213,6.4984,6.6476,6.5888,6.6439,6.77,6.77,6.77,6.77,6.77,6.77,6.77,6.77,6.77,6.7774,6.8348,6.9082,6.9743,6.9743,7.066,7.1688,7.1123,7.149,7.2151,7.2151,7.2312,7.2569,7.2789,7.3083,7.3487,7.4059,7.4169,7.4169,7.4169,7.3744,7.334,7.334,7.2899,7.2496,7.2496,7.2496,7.2496,7.2496,7.2496,7.2496,7.2496,7.2496,7.2496,7.2496,7.2496,7.2496,7.2496,7.1541,7.094,7.094,6.9963,6.8875,6.7737,6.806,6.816,6.7901,6.8432,6.8585,6.836,6.9044,6.934,6.9357,6.934,6.9321,2.9873,3.4718,0.0,4.125,4.437,4.7709,4.9994,0.0,0.0,0.0,5.6161,5.7189,5.6859,5.6932,5.7042,5.7042,5.8646,6.004,6.037,6.0823,6.13,6.1802,6.1838,6.1838,6.1838,6.141,6.1337,6.1802,6.0958,6.0811,6.1802,6.1374,6.1484,6.2291,6.2328,6.2462,6.2793,6.2793,6.2793,6.2793,6.2793,6.3086,6.3576,6.3576,6.431,6.5521,6.5375,6.6035,6.7223,6.7223,6.7407,6.77,6.77,6.77,6.77,6.77,6.77,6.7774,6.8238,6.8935,6.9669,7.0,7.0991,7.1967,7.1821,7.2129,7.2496,7.2496,7.2496,7.2569,7.2899,7.334,7.3744,7.3927,7.4184,7.4331,7.4023,7.356,7.323,7.323,7.2826,7.2496,7.2496,7.2496,7.2496,7.2496,7.2496,7.2496,7.2496,7.2496,7.2496,7.2496,7.2496,7.2496,7.2496,7.1747,7.1307,7.1307,7.055,6.9669,6.8692,6.9174,6.9331,6.8995,6.9741,6.9967,6.9626,7.0145,7.0432,7.0401,7.0256,7.0167,3.1354,3.6303,4.147,4.2571,4.7095,0.0,5.2354,5.4876,5.7324,5.8315,0.0,5.851,5.9832,5.7813,5.6602,5.8756,5.9159,5.9453,6.0187,6.0309,6.0309,6.037,6.0419,6.0419,6.0419,6.0334,6.0309,6.037,6.0272,6.0236,6.037,6.0334,6.0676,6.1569,6.152,6.1924,6.2793,6.2719,6.2719,6.2793,6.2793,6.2793,6.2793,6.2793,6.3282,6.4139,6.4971,6.5778,6.6512,6.6512,6.6953,6.77,6.77,6.77,6.77,6.77,6.77,6.77,6.7774,6.8348,6.9155,6.9963,7.077,7.1564,7.2275,7.2496,7.2532,7.2606,7.2569,7.2679,7.3487,7.3722,7.3487,7.2679,7.3156,7.3597,7.2899,7.2679,7.2606,7.2606,7.2569,7.2496,7.2496,7.2496,7.2496,7.2496,7.2496,7.2496,7.2496,7.2496,7.2496,7.2496,7.2496,7.2496,7.2496,7.1821,7.1417,7.1417,7.0734,7.033,7.033,7.0795,7.0656,6.9787,7.0887,7.104,7.0162,7.0659,7.0898,7.0898,7.0898,7.0898,3.2706,3.7588,0.0,4.6177,5.0802,5.4924,5.6381,5.7728,5.7691,5.4252,5.6418,5.8646,5.7728,5.8022,5.8389,5.829,5.8792,5.9269,5.9416,5.9453,5.9673,6.0309,6.0419,6.0419,6.0419,5.982,5.971,6.0346,5.9245,5.9061,6.0346,5.9783,6.0114,6.1569,6.1006,6.1361,6.2793,6.2181,6.2181,6.2793,6.2793,6.2793,6.2793,6.2793,6.3282,6.4139,6.4971,6.5778,6.6512,6.6512,6.6953,6.77,6.77,6.77,6.77,6.77,6.77,6.7811,6.8421,6.9155,6.9963,7.0793,7.16,7.2275,7.2459,7.2496,7.2642,7.3266,7.2973,7.2679,7.3487,7.3722,7.3487,7.2679,7.3597,7.4573,7.4426,7.3891,7.345,7.345,7.2936,7.2496,7.2496,7.2496,7.2496,7.2496,7.2496,7.2496,7.2496,7.2496,7.2496,7.2496,7.2496,7.2496,7.2496,7.2349,7.2239,7.2239,7.2092,7.1982,7.1982,7.1749,7.1207,7.0358,7.146,7.1593,7.0741,7.0825,7.0898,7.0898,7.0898,7.0898,3.3507,0.0,0.0,4.8673,0.0,5.5915,5.7152,5.807,5.7923,5.539,5.7178,5.8939,5.8095,5.8315,5.851,5.807,5.8364,5.8609,5.8609,5.8609,5.8767,5.9208,5.9245,5.9245,5.9245,5.8877,5.8792,5.9208,5.8474,5.8364,5.9208,5.8829,5.9208,6.0419,6.004,6.0407,6.1618,6.1227,6.1447,6.2218,6.2218,6.2438,6.2793,6.2793,6.305,6.3503,6.393,6.4567,6.5338,6.5338,6.5815,6.6586,6.699,6.715,6.7187,6.7554,6.7958,6.8311,6.8752,6.9449,7.022,7.105,7.1564,7.2004,7.2386,7.2496,7.2606,7.301,7.2826,7.2606,7.301,7.312,7.301,7.2606,7.345,7.4221,7.3839,7.3413,7.312,7.312,7.2789,7.2496,7.2496,7.2496,7.2496,7.2496,7.2496,7.2496,7.2496,7.2496,7.2496,7.2496,7.2496,7.2496,7.2496,7.2496,7.2496,7.2496,7.2496,7.263,7.2916,7.2981,7.2396,7.1082,7.2243,7.2206,7.0898,7.0898,7.0898,7.0898,7.0898,7.0898,3.2949,0.0,4.3048,5.0215,5.3602,0.0,5.6554,5.7299,5.7813,5.796,5.8547,5.8976,5.8976,5.8437,5.7997,5.7997,5.7997,5.7997,5.7997,5.7997,5.7997,5.7997,5.7997,5.7997,5.7997,5.7997,5.7997,5.7997,5.7997,5.7997,5.7997,5.7997,5.8364,5.9159,5.9086,5.9453,6.037,6.0272,6.0603,6.1374,6.1374,6.1741,6.2389,6.2536,6.2683,6.2793,6.2793,6.3282,6.4103,6.4103,6.4567,6.5362,6.6182,6.6512,6.6586,6.7407,6.8201,6.8921,6.9082,6.9633,7.044,7.1233,7.1527,7.1637,7.2312,7.2496,7.2532,7.2679,7.2606,7.2532,7.2679,7.2606,7.2496,7.2496,7.301,7.3303,7.2642,7.2496,7.2496,7.2496,7.2606,7.2679,7.2532,7.2606,7.2679,7.2532,7.2496,7.2496,7.2496,7.2496,7.2496,7.2496,7.2496,7.2496,7.2496,7.2496,7.2496,7.2496,7.2496,7.2705,7.3237,7.3923,7.3565,7.1949,7.3114,7.293,7.136,7.136,7.136,7.136,7.136,7.1283,2.9097,0.0,4.3718,0.0,5.2784,5.4095,0.0,0.0,5.7152,5.785,5.8107,5.8143,5.8143,5.807,5.7997,5.7997,5.7997,5.7997,5.7997,5.7997,5.7997,5.7997,5.7997,5.7997,5.7997,5.7997,5.7997,5.7997,5.7997,5.7997,5.7997,5.7997,5.8364,5.9159,5.8499,5.8877,6.0382,5.971,5.9747,6.0566,6.0566,6.0639,6.0737,6.1447,6.2144,6.2793,6.2793,6.3282,6.4103,6.4103,6.4567,6.5362,6.6182,6.6512,6.6586,6.7407,6.8201,6.9009,6.9706,7.0477,7.127,7.2078,7.2349,7.2349,7.2459,7.2496,7.2642,7.334,7.3046,7.2679,7.334,7.301,7.2496,7.2496,7.2569,7.2642,7.2532,7.2496,7.2496,7.2496,7.3046,7.3303,7.2606,7.3083,7.3303,7.2606,7.2496,7.2496,7.2496,7.2496,7.2496,7.2496,7.2496,7.2496,7.2496,7.2496,7.2496,7.2496,7.2496,7.2539,7.2602,7.3687,7.383,7.2865,7.3964,7.4084,7.3161,7.3161,7.3161,7.3161,7.3161,7.2745,2.9329,3.5855,4.2645,0.0,5.0251,5.2931,5.4425,5.5464,5.6235,5.6576,5.665,5.6943,5.7813,5.7997,5.7997,5.7997,5.7997,5.7997,5.7997,5.7997,5.7997,5.7997,5.7997,5.7997,5.7997,5.7997,5.7997,5.7997,5.7997,5.7997,5.7997,5.7997,5.8143,5.8499,5.818,5.8327,5.9061,5.8694,5.8939,5.9747,6.0187,6.0639,6.108,6.1447,6.1777,6.2144,6.2609,6.3013,6.3392,6.3392,6.3576,6.404,6.5325,6.5852,6.5999,6.726,6.8201,6.8958,6.9302,7.0257,7.1344,7.1711,7.2114,7.2496,7.2496,7.2496,7.2569,7.2936,7.2789,7.2569,7.2936,7.2789,7.2496,7.2496,7.2496,7.2496,7.2496,7.2496,7.2496,7.2496,7.2789,7.2936,7.2569,7.2789,7.2899,7.2569,7.2496,7.2496,7.2496,7.2496,7.2496,7.2496,7.2496,7.2496,7.2496,7.2496,7.2496,7.2496,7.2496,7.2644,7.2997,7.3829,7.4254,7.418,7.4517,7.4315,7.3507,7.3507,7.3507,7.3507,7.3507,7.3014,0.0,0.0,3.9525,4.3195,4.6985,5.0372,0.0,5.3812,5.4851,5.5475,5.5585,5.5989,5.7164,5.7384,5.7446,5.7666,5.7519,5.7531,5.7923,5.7813,5.7776,5.796,5.7997,5.7997,5.7997,5.7997,5.7997,5.7997,5.7997,5.7997,5.7997,5.7997,5.7997,5.7997,5.7997,5.7997,5.7997,5.7997,5.829,5.8902,5.949,6.0089,6.0688,6.1117,6.13,6.1337,6.2352,6.2793,6.2793,6.2793,6.2793,6.2976,6.4664,6.5288,6.5472,6.7113,6.8201,6.8885,6.8885,6.9802,7.1013,7.1233,7.1711,7.2239,7.2459,7.2496,7.2496,7.2496,7.2496,7.2496,7.2496,7.2496,7.2496,7.2496,7.2496,7.2496,7.2496,7.2496,7.2496,7.2496,7.2679,7.2753,7.2532,7.2679,7.2753,7.2532,7.2496,7.2496,7.2496,7.2496,7.2496,7.2496,7.2496,7.2496,7.2496,7.2496,7.2496,7.2496,7.2496,7.2714,7.3159,7.39,7.4495,7.4905,7.4986,7.4738,7.4123,7.4123,7.4123,7.4123,7.4123,7.3668,0.0,3.1054,0.0,4.0671,4.3204,4.5378,0.0,5.2134,5.2831,5.5144,5.5585,5.5622,5.5695,5.5732,5.5989,5.6737,5.6198,5.6246,5.7776,5.7336,5.7141,5.7923,5.7997,5.7997,5.7997,5.7997,5.7997,5.7997,5.7997,5.7997,5.7997,5.7997,5.7997,5.7997,5.7997,5.7997,5.7997,5.7997,5.8033,5.807,5.8107,5.8143,5.8253,5.9758,6.0456,6.0566,6.2132,6.2793,6.2793,6.2793,6.2793,6.2976,6.4664,6.5288,6.5472,6.7113,6.8201,6.8885,6.8885,6.9449,7.0293,7.105,7.1344,7.149,7.2275,7.2496,7.2496,7.2496,7.2496,7.2496,7.2496,7.2496,7.2496,7.2496,7.2496,7.2496,7.2496,7.2496,7.2496,7.2496,7.312,7.3377,7.2642,7.312,7.3377,7.2606,7.2496,7.2496,7.2496,7.2496,7.2496,7.2496,7.2496,7.2496,7.2496,7.2496,7.2496,7.2496,7.2496,7.251,7.2553,7.37,7.4304,7.4336,7.5404,7.5899,7.5861,7.5861,7.5861,7.5861,7.5861,7.5399,0.0,0.0,0.0,3.5305,3.8241,4.1075,4.3653,4.6223,4.8343,4.9197,5.1059,5.2674,5.3198,5.4557,5.5695,5.5978,5.5805,5.5805,5.6393,5.6209,5.6136,5.6429,5.6466,5.6638,5.7189,5.7226,5.7446,5.796,5.7997,5.7997,5.7997,5.7997,5.7997,5.7997,5.7997,5.7997,5.7997,5.7997,5.7997,5.7997,5.7997,5.8253,5.8792,5.9905,6.0676,6.1227,6.2316,6.2793,6.2793,6.2793,6.2793,6.2903,6.409,6.4861,6.5435,6.6512,6.743,6.8128,6.8128,6.8641,6.9376,6.9655,7.0463,7.1344,7.1637,7.2092,7.2496,7.2496,7.2496,7.2496,7.2496,7.2496,7.2496,7.2496,7.2496,7.2496,7.2496,7.2496,7.2496,7.2496,7.2716,7.2826,7.2569,7.2753,7.301,7.323,7.2826,7.2679,7.3193,7.2826,7.2496,7.2496,7.2496,7.2496,7.2496,7.2496,7.2496,7.2496,7.2496,7.2672,7.304,7.4364,7.4977,7.4828,7.6158,7.6553,7.6015,7.6015,7.6015,7.6015,7.6015,7.5515,2.5416,0.0,0.0,0.0,3.4247,3.6817,3.8982,4.2176,4.4929,4.5736,4.8306,5.0618,5.1473,5.2905,5.4252,5.5071,5.4961,5.4997,5.5511,5.5365,5.5291,5.5585,5.5585,5.5915,5.6701,5.6565,5.6859,5.7923,5.774,5.7703,5.7997,5.7997,5.7997,5.7997,5.7997,5.7997,5.7997,5.7997,5.7997,5.7997,5.7997,5.829,5.8829,5.9636,6.0456,6.1227,6.2071,6.2536,6.2793,6.2793,6.2793,6.2903,6.4053,6.4824,6.5435,6.6512,6.726,6.77,6.77,6.8054,6.8531,6.8825,6.9816,7.094,7.1233,7.1857,7.2496,7.2496,7.2496,7.2496,7.2496,7.2496,7.2496,7.2496,7.2496,7.2496,7.2496,7.2496,7.2496,7.2496,7.2496,7.2606,7.2863,7.2899,7.3193,7.3964,7.367,7.3413,7.3685,7.323,7.2789,7.2532,7.2753,7.2789,7.2532,7.301,7.3193,7.2936,7.3156,7.3572,7.4198,7.5307,7.5904,7.5977,7.6853,7.7015,7.6438,7.613,7.6015,7.6015,7.6015,7.5515,0.0,0.0,0.0,0.0,3.1317,3.2602,3.7441,4.0333,4.2763,4.5259,4.7691,4.9674,5.0545,5.0729,5.1499,5.3885,5.3654,5.3728,5.5328,5.4851,5.4656,5.5438,5.5548,5.5842,5.6627,5.6014,5.6246,5.785,5.7226,5.7152,5.796,5.7997,5.7997,5.7997,5.7997,5.7997,5.7997,5.7997,5.7997,5.7997,5.7997,5.7997,5.8033,5.8829,5.9636,6.0419,6.1227,6.2034,6.2756,6.2793,6.2793,6.2976,6.4628,6.5288,6.5472,6.7076,6.7664,6.77,6.77,6.77,6.7847,6.8605,6.9412,7.022,7.1013,7.1821,7.2459,7.2496,7.2496,7.2496,7.2496,7.2496,7.2496,7.2496,7.2496,7.2496,7.2496,7.2496,7.2496,7.2496,7.2496,7.2753,7.3575,7.3722,7.3964,7.4793,7.4903,7.461,7.3854,7.3758,7.345,7.2642,7.3266,7.3413,7.2642,7.3986,7.4588,7.378,7.4478,7.5209,7.5889,7.6472,7.703,7.7721,7.7475,7.733,7.7292,7.6438,7.6015,7.6015,7.6015,7.5553,2.5416,0.0,0.0,0.0,0.0,0.0,3.358,3.5231,3.7367,4.1544,4.3461,4.5259,4.8406,4.8994,4.9627,5.1499,5.2087,5.2674,5.3728,5.3654,5.3618,5.3849,5.3849,5.4179,5.4987,5.4876,5.539,5.6994,5.6381,5.6539,5.7923,5.7997,5.7997,5.7997,5.7997,5.7997,5.7997,5.7997,5.7997,5.7997,5.7997,5.7997,5.8033,5.8829,5.9306,5.96,6.1006,6.1741,6.1998,6.2572,6.2793,6.2903,6.4016,6.4787,6.5398,6.6439,6.7187,6.77,6.77,6.77,6.7737,6.7958,6.8568,6.9376,7.0183,7.0991,7.1747,7.2349,7.2496,7.2496,7.2496,7.2496,7.2496,7.2496,7.2496,7.2496,7.2496,7.2496,7.2496,7.2496,7.2496,7.2753,7.3575,7.3722,7.4147,7.5579,7.527,7.5014,7.5395,7.4918,7.4478,7.4243,7.4426,7.4478,7.4243,7.4647,7.4793,7.4573,7.4793,7.5361,7.6446,7.7232,7.7835,7.8267,7.8193,7.7869,7.7292,7.6438,7.6015,7.6015,7.6015,7.5861,0.0,0.0,0.0,0.0,0.0,0.0,3.0711,3.2259,3.4497,3.8726,3.9974,4.1405,4.5112,4.5259,4.5443,4.7425,4.871,5.0215,5.238,5.2711,5.2821,5.3177,5.3214,5.3508,5.4326,5.4106,5.4583,5.6198,5.5537,5.5794,5.7409,5.7813,5.7997,5.7997,5.7997,5.7997,5.7997,5.7997,5.7997,5.7997,5.7997,5.7997,5.8033,5.851,5.8866,5.9269,6.0566,6.13,6.1667,6.2462,6.2793,6.2903,6.4127,6.4897,6.5435,6.6586,6.7297,6.77,6.77,6.77,6.77,6.77,6.8238,6.9045,6.9853,7.066,7.1454,7.2275,7.2496,7.2496,7.2496,7.2496,7.2496,7.2496,7.2496,7.2496,7.2496,7.2496,7.2496,7.2496,7.2496,7.2863,7.4001,7.4184,7.4735,7.6371,7.6188,7.5931,7.6093,7.5689,7.527,7.494,7.5197,7.527,7.494,7.5527,7.5747,7.5417,7.5711,7.6444,7.7707,7.7878,7.8304,7.9038,7.8369,7.7599,7.6746,7.6245,7.6015,7.6015,7.6015,7.6015,0.0,0.0,0.0,0.0,2.8013,0.0,2.9207,3.0931,3.3323,3.6795,3.7199,3.7999,4.1405,4.0781,4.0569,4.2955,4.4718,4.7168,5.1179,5.1803,5.216,5.2957,5.3067,5.3361,5.4179,5.3618,5.3838,5.5365,5.495,5.5207,5.6492,5.7483,5.796,5.7886,5.796,5.7997,5.7997,5.7997,5.7997,5.7997,5.7997,5.7997,5.7997,5.7997,5.84,5.9123,5.993,6.0713,6.152,6.2316,6.2719,6.2976,6.4554,6.5215,6.5472,6.699,6.7627,6.77,6.77,6.77,6.77,6.77,6.8164,6.8935,6.9816,7.055,7.1233,7.2129,7.2422,7.2496,7.2496,7.2496,7.2496,7.2496,7.2496,7.2496,7.2496,7.2496,7.2496,7.2496,7.2569,7.312,7.4647,7.4977,7.5564,7.7069,7.7289,7.7032,7.635,7.624,7.5946,7.5234,7.5799,7.5946,7.5234,7.6481,7.6995,7.6276,7.6976,7.79,7.9001,7.8376,7.8544,7.9615,7.8092,7.6868,7.6015,7.6015,7.6015,7.6015,7.6015,7.6015,0.0,0.0,0.0,0.0,2.9249,0.0,3.1555,3.1268,3.1971,3.6574,3.5392,3.4945,3.9541,3.957,3.9717,4.2139,4.3864,4.614,4.9564,5.0629,5.1316,5.2134,5.2234,5.2564,5.3361,5.3287,5.3581,5.4546,5.5684,5.5904,5.4913,5.6859,5.7703,5.7042,5.7666,5.7997,5.7997,5.7997,5.7997,5.7997,5.7997,5.7997,5.7997,5.7997,5.8107,5.829,5.9086,5.9893,6.0713,6.1484,6.2218,6.2903,6.3943,6.4714,6.5398,6.6366,6.715,6.77,6.77,6.77,6.77,6.77,6.7811,6.8214,6.9669,6.9743,6.9655,7.1123,7.2004,7.2496,7.2496,7.2496,7.2496,7.2496,7.2496,7.2496,7.2496,7.2496,7.2496,7.2496,7.301,7.378,7.472,7.5432,7.6203,7.7179,7.7289,7.7252,7.7105,7.7069,7.6995,7.6848,7.6959,7.6995,7.6848,7.7142,7.7252,7.7069,7.7715,7.8133,7.816,7.8504,7.873,7.8738,7.7792,7.6868,7.6015,7.6015,7.6015,7.6015,7.6015,7.6015,0.0,0.0,0.0,2.9396,0.0,0.0,0.0,3.046,3.0754,3.4805,3.3066,3.2039,3.6119,3.5532,3.5238,3.7661,3.946,4.1662,4.4892,4.8169,5.0518,5.1316,5.1389,5.172,5.2527,5.2601,5.2931,5.3728,5.4913,5.5244,5.4436,5.6308,5.7226,5.6811,5.7593,5.7997,5.7997,5.7997,5.7997,5.7997,5.7997,5.7997,5.7997,5.7997,5.7997,5.807,5.9269,6.004,6.0493,6.1704,6.2426,6.2903,6.3759,6.4604,6.5398,6.6219,6.699,6.77,6.77,6.77,6.77,6.77,6.77,6.7994,6.9596,7.0367,7.0881,7.1674,7.2188,7.2496,7.2496,7.2496,7.2496,7.2496,7.2496,7.2606,7.301,7.2789,7.2606,7.301,7.3413,7.3817,7.4221,7.4992,7.5763,7.6592,7.7032,7.7289,7.7289,7.7289,7.7289,7.7289,7.7289,7.7289,7.7289,7.7289,7.742,7.7782,7.7705,7.8079,7.8944,7.8102,7.7482,7.7238,7.6868,7.6438,7.6015,7.6015,7.6015,7.6015,7.6015,7.6015,0.0,0.0,0.0,0.0,0.0,2.9757,0.0,0.0,0.0,3.2559,3.0938,2.9904,3.2816,3.1604,3.0834,3.2779,3.4908,3.7147,3.9591,4.4562,4.8426,4.9701,4.9444,4.9774,5.1363,5.1803,5.227,5.292,5.3849,5.4326,5.4179,5.5684,5.6565,5.6565,5.7336,5.785,5.7997,5.7997,5.7997,5.7997,5.7997,5.7997,5.7997,5.7997,5.7997,5.807,5.9391,6.0126,6.0481,6.1802,6.2536,6.2866,6.3576,6.4347,6.5191,6.5962,6.6769,6.748,6.7664,6.77,6.77,6.77,6.7811,6.8178,6.9486,7.0991,7.2275,7.2275,7.2386,7.2496,7.2496,7.2606,7.2679,7.2532,7.2606,7.2863,7.334,7.2973,7.2679,7.334,7.345,7.3523,7.3685,7.4368,7.5124,7.5763,7.6408,7.6885,7.7069,7.7069,7.7069,7.7069,7.7069,7.7069,7.7069,7.7184,7.7503,7.8031,7.7625,7.8029,7.9542,7.7597,7.6488,7.6469,7.6322,7.6322,7.6476,7.6322,7.6169,7.6015,7.6015,7.6015,0.0,0.0,0.0,0.0,3.1194,0.0,2.961,0.0,3.0173,3.054,0.0,2.9543,3.1354,0.0,0.0,3.0577,3.3807,3.6156,3.5738,3.9371,4.3158,4.6104,4.4562,4.5002,4.9454,5.1143,5.206,5.2134,5.3555,5.4106,5.3361,5.484,5.5732,5.5732,5.6528,5.7299,5.7997,5.7997,5.7997,5.7997,5.7997,5.7997,5.7997,5.7997,5.7997,5.7997,5.818,5.9098,6.0407,6.0603,6.1508,6.2793,6.2903,6.3466,6.431,6.5154,6.5962,6.6733,6.7444,6.77,6.77,6.77,6.8164,6.8788,6.8972,7.0169,7.1454,7.1454,7.1931,7.2496,7.2496,7.3046,7.3377,7.2679,7.3046,7.3377,7.2789,7.2569,7.2532,7.2606,7.2642,7.2863,7.356,7.4368,7.494,7.5014,7.5124,7.5417,7.613,7.624,7.624,7.624,7.624,7.624,7.624,7.6787,7.7135,7.7138,7.8108,7.8426,7.7932,7.7432,7.7508,7.8215,7.7522,7.7484,7.8215,7.7484,7.6746,7.6015,7.6015,7.6015,0.0,0.0,0.0,0.0,0.0,0.0,3.024,0.0,2.9653,3.0093,0.0,0.0,0.0,0.0,0.0,0.0,3.2345,3.3807,3.4851,3.5665,3.7903,4.2571,4.2204,4.3122,4.7067,4.8059,4.8636,4.9104,5.0655,5.1206,5.0388,5.2821,5.4436,5.4887,5.6124,5.6957,5.7299,5.7776,5.7997,5.7997,5.7997,5.7997,5.7997,5.7997,5.7997,5.8033,5.8499,5.9343,6.0456,6.0896,6.1777,6.2793,6.2793,6.3319,6.4139,6.4494,6.5411,6.6549,6.688,6.7297,6.77,6.77,6.8238,6.8885,6.8885,6.9706,7.0697,7.116,7.1527,7.1894,7.2386,7.2753,7.2936,7.2569,7.2753,7.3046,7.3156,7.3193,7.3193,7.3193,7.3193,7.3156,7.3046,7.367,7.4184,7.4184,7.461,7.5014,7.5359,7.5799,7.5909,7.5469,7.5836,7.6251,7.6639,7.6932,7.7591,7.8712,7.9667,7.9557,7.8168,7.8538,7.8669,7.8484,7.8176,7.8176,7.8484,7.7676,7.7369,7.7445,7.6984,7.6746,3.7999,0.0,0.0,0.0,0.0,0.0,0.0,0.0,0.0,0.0,2.991,0.0,0.0,0.0,0.0,0.0,0.0,3.2192,3.35,3.306,3.4454,3.9525,4.07,4.1947,4.4048,4.5039,4.5736,4.6094,4.7388,4.8122,4.7966,5.0425,5.2553,5.4032,5.5647,5.6602,5.6811,5.7593,5.7997,5.7997,5.7997,5.7997,5.7997,5.7997,5.7997,5.8033,5.8609,5.9453,6.0456,6.1043,6.1887,6.2793,6.2793,6.3196,6.3759,6.4029,6.4824,6.5925,6.6329,6.7026,6.77,6.77,6.8238,6.8935,6.9155,6.9779,7.0587,7.138,7.1637,7.1747,7.2349,7.2679,7.2789,7.2569,7.2679,7.2936,7.3303,7.3377,7.3377,7.3377,7.3377,7.3193,7.2606,7.2973,7.3377,7.3377,7.3891,7.4316,7.4551,7.5285,7.5469,7.4661,7.5662,7.648,7.6731,7.728,7.8274,7.9924,8.0455,8.0169,7.8907,7.9477,7.9631,7.9215,7.8984,7.8984,7.9215,7.8407,7.8284,7.8823,7.7792,7.7407,0.0,0.0,0.0,3.9798,0.0,0.0,0.0,0.0,3.0173,0.0,0.0,0.0,0.0,0.0,0.0,0.0,0.0,0.0,0.0,3.1635,3.3844,3.7235,3.968,4.0846,4.0165,4.291,4.4415,4.3653,4.4378,4.5507,4.7076,4.7966,4.9911,5.3141,5.4803,5.6014,5.6774,5.7593,5.7997,5.7997,5.7997,5.7997,5.7997,5.7997,5.7997,5.7997,5.8033,5.8951,6.0419,6.0419,6.1361,6.2793,6.2793,6.2829,6.2939,6.3796,6.4139,6.4396,6.5962,6.7026,6.77,6.77,6.8238,6.9045,6.9816,7.0624,7.1417,7.2239,7.2459,7.2459,7.2496,7.3083,7.345,7.2679,7.3083,7.345,7.2716,7.2532,7.2532,7.2532,7.2532,7.2532,7.2496,7.2532,7.2532,7.2532,7.2569,7.2863,7.3648,7.4441,7.461,7.3817,7.5731,7.6744,7.6001,7.7711,7.91,7.9769,7.9846,7.9815,7.9738,7.9777,8.0169,8.1016,8.0208,8.0169,8.1016,8.0131,7.9738,7.97,7.8054,7.7715,4.4471,4.4076,4.3204,4.3754,4.0818,3.7257,0.0,0.0,0.0,0.0,0.0,0.0,0.0,0.0,0.0,0.0,0.0,0.0,0.0,3.1788,3.2412,3.4064,3.5922,3.7609,3.8982,3.9614,4.0055,4.0304,4.1075,4.2213,4.3856,4.6205,4.8994,5.2307,5.4483,5.5732,5.5978,5.7336,5.7997,5.7997,5.7997,5.7997,5.7997,5.7997,5.7997,5.7997,5.7997,5.8914,6.0419,6.0419,6.1361,6.2793,6.2793,6.2793,6.2829,6.3123,6.3613,6.4323,6.5925,6.6659,6.7003,6.7517,6.7884,6.8238,6.9045,6.9522,6.9986,7.1344,7.1711,7.1821,7.2349,7.2716,7.2826,7.2569,7.2716,7.2826,7.2569,7.2936,7.312,7.2606,7.2936,7.312,7.2606,7.2496,7.2496,7.2496,7.2496,7.2789,7.3597,7.4404,7.4793,7.4515,7.6079,7.7152,7.7299,7.9152,8.0449,8.0662,8.0669,8.0669,8.0669,8.0669,8.0785,8.1093,8.0823,8.0823,8.1093,8.0239,8.0085,8.0631,7.9477,7.9092,4.6975,4.6351,4.5397,4.6471,4.3497,3.9937,3.8388,3.6156,3.4291,0.0,0.0,0.0,0.0,0.0,0.0,0.0,0.0,0.0,0.0,3.2228,3.2235,3.2192,3.358,3.5298,3.7213,3.7184,3.7044,3.6964,3.7698,3.9239,4.1727,4.437,4.7609,5.1473,5.419,5.5585,5.5585,5.72,5.7997,5.7997,5.7997,5.7997,5.7997,5.7997,5.7997,5.7997,5.7997,5.8914,6.0419,6.0419,6.1361,6.2793,6.2793,6.2793,6.2793,6.2793,6.3527,6.4677,6.5705,6.6439,6.699,6.7517,6.7884,6.8274,6.9082,6.9509,6.9912,7.0646,7.127,7.1711,7.1651,7.2055,7.2496,7.2496,7.2496,7.2496,7.2496,7.2899,7.312,7.2606,7.2936,7.312,7.2606,7.2496,7.2496,7.2496,7.2753,7.312,7.3634,7.4661,7.5316,7.5275,7.6792,7.8172,7.9018,8.0319,8.1093,8.1093,8.1093,8.1093,8.1093,8.1093,8.1362,8.1977,8.14,8.14,8.1977,8.0823,8.0554,8.1093,8.0516,8.0246]}]]